Wetterdaten: Dienstag, 27.06.2017
Datum Zeit Temp. A. Pool Temp. Feuchte A. Luftdruck Regen Wind Richtung Richtung Sonnenschein ET UV Solar Taupunkt Windchill Windben Empfang
27.06.2017 00:00 21,3 C 26,1 C 68 % 1008,1 hPa 0,0 l/m 2,8 km/h (1 Bft) O-SO 113 0 min 0,000 mm 0,0 UV-I 0 W/m 15,1 C 21,3 C 4,8 km/h (1 Bft) 100,00 %
27.06.2017 00:02 21,3 C 26,1 C 68 % 1008,1 hPa 0,0 l/m 0,9 km/h (0 Bft) O-SO 113 0 min 0,000 mm 0,0 UV-I 0 W/m 15,1 C 21,3 C 1,6 km/h (1 Bft) 97,67 %
27.06.2017 00:04 21,1 C 26,1 C 68 % 1008,1 hPa 0,0 l/m 1,8 km/h (1 Bft) O-SO 113 0 min 0,000 mm 0,0 UV-I 0 W/m 15,0 C 21,1 C 3,2 km/h (1 Bft) 94,00 %
27.06.2017 00:06 20,9 C 26,1 C 69 % 1008,1 hPa 0,0 l/m 2,9 km/h (1 Bft) O-SO 113 0 min 0,000 mm 0,0 UV-I 0 W/m 15,0 C 20,9 C 4,8 km/h (1 Bft) 97,87 %
27.06.2017 00:08 20,7 C 26,1 C 70 % 1008,1 hPa 0,0 l/m 1,3 km/h (1 Bft) O-SO 113 0 min 0,000 mm 0,0 UV-I 0 W/m 15,0 C 20,7 C 3,2 km/h (1 Bft) 93,62 %
27.06.2017 00:10 20,5 C 26,1 C 71 % 1008,1 hPa 0,0 l/m 2,6 km/h (1 Bft) O-SO 113 0 min 0,000 mm 0,0 UV-I 0 W/m 15,1 C 20,5 C 4,8 km/h (1 Bft) 100,00 %
27.06.2017 00:12 20,3 C 26,1 C 72 % 1008,1 hPa 0,0 l/m 0,4 km/h (0 Bft) O-SO 113 0 min 0,000 mm 0,0 UV-I 0 W/m 15,1 C 20,3 C 1,6 km/h (1 Bft) 100,00 %
27.06.2017 00:14 20,1 C 26,1 C 73 % 1008,1 hPa 0,0 l/m 0,9 km/h (0 Bft) O-SO 113 0 min 0,000 mm 0,0 UV-I 0 W/m 15,1 C 20,1 C 3,2 km/h (1 Bft) 100,00 %
27.06.2017 00:16 19,9 C 26,1 C 74 % 1008,1 hPa 0,0 l/m 2,2 km/h (1 Bft) O-SO 113 0 min 0,000 mm 0,0 UV-I 0 W/m 15,1 C 19,9 C 3,2 km/h (1 Bft) 97,73 %
27.06.2017 00:18 19,9 C 26,1 C 74 % 1008,1 hPa 0,0 l/m 2,7 km/h (1 Bft) O-SO 113 0 min 0,000 mm 0,0 UV-I 0 W/m 15,1 C 19,9 C 3,2 km/h (1 Bft) 97,92 %
27.06.2017 00:20 19,9 C 26,1 C 74 % 1008,1 hPa 0,0 l/m 2,2 km/h (1 Bft) O-SO 113 0 min 0,000 mm 0,0 UV-I 0 W/m 15,1 C 19,9 C 3,2 km/h (1 Bft) 100,00 %
27.06.2017 00:22 19,9 C 26,1 C 74 % 1008,1 hPa 0,0 l/m 2,2 km/h (1 Bft) O-SO 113 0 min 0,000 mm 0,0 UV-I 0 W/m 15,1 C 19,9 C 3,2 km/h (1 Bft) 97,37 %
27.06.2017 00:24 19,9 C 26,1 C 73 % 1008,1 hPa 0,0 l/m 2,2 km/h (1 Bft) O-SO 113 0 min 0,000 mm 0,0 UV-I 0 W/m 14,9 C 19,9 C 3,2 km/h (1 Bft) 100,00 %
27.06.2017 00:26 20,1 C 26,1 C 73 % 1008,2 hPa 0,0 l/m 1,0 km/h (0 Bft) O-SO 113 0 min 0,000 mm 0,0 UV-I 0 W/m 15,1 C 20,1 C 3,2 km/h (1 Bft) 94,74 %
27.06.2017 00:28 20,1 C 26,1 C 74 % 1008,2 hPa 0,0 l/m 0,0 km/h (0 Bft) O-SO 113 0 min 0,000 mm 0,0 UV-I 0 W/m 15,3 C 20,1 C 0,0 km/h (0 Bft) 98,11 %
27.06.2017 00:30 19,9 C 26,1 C 75 % 1008,1 hPa 0,0 l/m 0,0 km/h (0 Bft) O-SO 113 0 min 0,000 mm 0,0 UV-I 0 W/m 15,3 C 19,9 C 0,0 km/h (0 Bft) 100,00 %
27.06.2017 00:32 19,8 C 26,1 C 76 % 1008,1 hPa 0,0 l/m 0,0 km/h (0 Bft) O-SO 113 0 min 0,000 mm 0,0 UV-I 0 W/m 15,4 C 19,8 C 0,0 km/h (0 Bft) 93,75 %
27.06.2017 00:34 19,6 C 26,1 C 76 % 1008,1 hPa 0,0 l/m 0,0 km/h (0 Bft) O-SO 113 0 min 0,000 mm 0,0 UV-I 0 W/m 15,2 C 19,6 C 0,0 km/h (0 Bft) 100,00 %
27.06.2017 00:36 19,4 C 26,1 C 77 % 1008,1 hPa 0,0 l/m 0,0 km/h (0 Bft) O-SO 113 0 min 0,000 mm 0,0 UV-I 0 W/m 15,3 C 19,4 C 0,0 km/h (0 Bft) 100,00 %
27.06.2017 00:38 19,3 C 26,1 C 77 % 1008,1 hPa 0,0 l/m 0,0 km/h (0 Bft) O-SO 113 0 min 0,000 mm 0,0 UV-I 0 W/m 15,2 C 19,3 C 0,0 km/h (0 Bft) 97,92 %
27.06.2017 00:40 19,2 C 26,1 C 77 % 1008,1 hPa 0,0 l/m 0,3 km/h (0 Bft) O-SO 113 0 min 0,000 mm 0,0 UV-I 0 W/m 15,1 C 19,2 C 1,6 km/h (1 Bft) 98,00 %
27.06.2017 00:42 19,2 C 26,1 C 77 % 1008,1 hPa 0,0 l/m 0,3 km/h (0 Bft) O-SO 113 0 min 0,000 mm 0,0 UV-I 0 W/m 15,1 C 19,2 C 1,6 km/h (1 Bft) 96,00 %
27.06.2017 00:44 19,1 C 26,1 C 77 % 1008,1 hPa 0,0 l/m 0,0 km/h (0 Bft) O-SO 113 0 min 0,000 mm 0,0 UV-I 0 W/m 15,0 C 19,1 C 0,0 km/h (0 Bft) 96,00 %
27.06.2017 00:46 18,9 C 26,1 C 78 % 1008,1 hPa 0,0 l/m 0,7 km/h (0 Bft) O-SO 113 0 min 0,000 mm 0,0 UV-I 0 W/m 15,0 C 18,9 C 1,6 km/h (1 Bft) 97,37 %
27.06.2017 00:48 18,9 C 26,1 C 78 % 1008,0 hPa 0,0 l/m 0,8 km/h (0 Bft) O-SO 113 0 min 0,000 mm 0,0 UV-I 0 W/m 15,0 C 18,9 C 1,6 km/h (1 Bft) 96,23 %
27.06.2017 00:50 18,9 C 26,1 C 79 % 1008,0 hPa 0,0 l/m 2,0 km/h (1 Bft) O-SO 113 0 min 0,000 mm 0,0 UV-I 0 W/m 15,2 C 18,9 C 3,2 km/h (1 Bft) 95,74 %
27.06.2017 00:52 18,9 C 26,1 C 78 % 1008,0 hPa 0,0 l/m 2,1 km/h (1 Bft) O-SO 113 0 min 0,000 mm 0,0 UV-I 0 W/m 15,0 C 18,9 C 3,2 km/h (1 Bft) 95,74 %
27.06.2017 00:54 19,1 C 26,1 C 77 % 1008,0 hPa 0,0 l/m 2,8 km/h (1 Bft) O-SO 113 0 min 0,000 mm 0,0 UV-I 0 W/m 15,0 C 19,1 C 3,2 km/h (1 Bft) 97,14 %
27.06.2017 00:56 19,1 C 26,1 C 78 % 1008,0 hPa 0,0 l/m 3,0 km/h (1 Bft) O-SO 113 0 min 0,000 mm 0,0 UV-I 0 W/m 15,2 C 19,1 C 3,2 km/h (1 Bft) 98,21 %
27.06.2017 00:58 19,1 C 26,1 C 78 % 1008,0 hPa 0,0 l/m 3,2 km/h (1 Bft) O-SO 113 0 min 0,000 mm 0,0 UV-I 0 W/m 15,2 C 19,1 C 4,8 km/h (1 Bft) 98,00 %
27.06.2017 01:00 19,0 C 26,1 C 77 % 1007,9 hPa 0,0 l/m 3,3 km/h (1 Bft) O-SO 112 0 min 0,000 mm 0,0 UV-I 0 W/m 14,9 C 19,0 C 4,8 km/h (1 Bft) 97,37 %
27.06.2017 01:02 18,9 C 26,1 C 78 % 1007,9 hPa 0,0 l/m 2,8 km/h (1 Bft) O-SO 112 0 min 0,000 mm 0,0 UV-I 0 W/m 15,0 C 18,9 C 3,2 km/h (1 Bft) 96,08 %
27.06.2017 01:04 18,9 C 26,1 C 78 % 1007,9 hPa 0,0 l/m 2,6 km/h (1 Bft) O-SO 112 0 min 0,000 mm 0,0 UV-I 0 W/m 15,0 C 18,9 C 3,2 km/h (1 Bft) 98,00 %
27.06.2017 01:06 18,9 C 26,1 C 78 % 1007,9 hPa 0,0 l/m 2,8 km/h (1 Bft) O-SO 112 0 min 0,000 mm 0,0 UV-I 0 W/m 15,0 C 18,9 C 3,2 km/h (1 Bft) 97,87 %
27.06.2017 01:08 18,9 C 26,1 C 78 % 1007,9 hPa 0,0 l/m 2,6 km/h (1 Bft) O-SO 112 0 min 0,000 mm 0,0 UV-I 0 W/m 15,0 C 18,9 C 4,8 km/h (1 Bft) 95,12 %
27.06.2017 01:10 18,9 C 26,1 C 78 % 1007,9 hPa 0,0 l/m 1,0 km/h (0 Bft) O-SO 112 0 min 0,000 mm 0,0 UV-I 0 W/m 15,0 C 18,9 C 1,6 km/h (1 Bft) 98,00 %
27.06.2017 01:12 18,8 C 26,1 C 79 % 1007,8 hPa 0,0 l/m 0,7 km/h (0 Bft) O-SO 112 0 min 0,000 mm 0,0 UV-I 0 W/m 15,1 C 18,8 C 1,6 km/h (1 Bft) 98,00 %
27.06.2017 01:14 18,7 C 26,1 C 79 % 1007,8 hPa 0,0 l/m 0,0 km/h (0 Bft) O-SO 112 0 min 0,000 mm 0,0 UV-I 0 W/m 15,0 C 18,7 C 0,0 km/h (0 Bft) 97,22 %
27.06.2017 01:16 18,7 C 26,1 C 80 % 1007,8 hPa 0,0 l/m 0,0 km/h (0 Bft) O-SO 112 0 min 0,000 mm 0,0 UV-I 0 W/m 15,2 C 18,7 C 0,0 km/h (0 Bft) 100,00 %
27.06.2017 01:18 18,6 C 26,1 C 81 % 1007,8 hPa 0,0 l/m 0,0 km/h (0 Bft) O-SO 112 0 min 0,000 mm 0,0 UV-I 0 W/m 15,3 C 18,6 C 0,0 km/h (0 Bft) 97,87 %
27.06.2017 01:20 18,5 C 26,1 C 80 % 1007,8 hPa 0,0 l/m 2,0 km/h (1 Bft) O-SO 112 0 min 0,000 mm 0,0 UV-I 0 W/m 15,0 C 18,5 C 3,2 km/h (1 Bft) 97,56 %
27.06.2017 01:22 18,4 C 26,1 C 80 % 1007,8 hPa 0,0 l/m 2,3 km/h (1 Bft) O-SO 111 0 min 0,000 mm 0,0 UV-I 0 W/m 14,9 C 18,4 C 4,8 km/h (1 Bft) 98,11 %
27.06.2017 01:24 18,3 C 26,1 C 80 % 1007,8 hPa 0,0 l/m 4,1 km/h (1 Bft) O-SO 110 0 min 0,000 mm 0,0 UV-I 0 W/m 14,8 C 18,3 C 4,8 km/h (1 Bft) 100,00 %
27.06.2017 01:26 18,3 C 26,1 C 80 % 1007,7 hPa 0,0 l/m 4,5 km/h (1 Bft) O-SO 103 0 min 0,000 mm 0,0 UV-I 0 W/m 14,8 C 18,3 C 6,4 km/h (2 Bft) 98,00 %
27.06.2017 01:28 18,4 C 26,1 C 80 % 1007,7 hPa 0,0 l/m 3,8 km/h (1 Bft) O-SO 103 0 min 0,000 mm 0,0 UV-I 0 W/m 14,9 C 18,4 C 4,8 km/h (1 Bft) 100,00 %
27.06.2017 01:30 18,6 C 26,1 C 79 % 1007,7 hPa 0,0 l/m 3,2 km/h (1 Bft) O-SO 103 0 min 0,000 mm 0,0 UV-I 0 W/m 14,9 C 18,6 C 4,8 km/h (1 Bft) 100,00 %
27.06.2017 01:32 18,8 C 26,1 C 79 % 1007,7 hPa 0,0 l/m 2,6 km/h (1 Bft) O-SO 103 0 min 0,000 mm 0,0 UV-I 0 W/m 15,1 C 18,8 C 3,2 km/h (1 Bft) 100,00 %
27.06.2017 01:34 18,9 C 26,1 C 78 % 1007,7 hPa 0,0 l/m 3,2 km/h (1 Bft) O-SO 103 0 min 0,000 mm 0,0 UV-I 0 W/m 15,0 C 18,9 C 4,8 km/h (1 Bft) 100,00 %
27.06.2017 01:36 18,8 C 26,1 C 79 % 1007,8 hPa 0,0 l/m 2,4 km/h (1 Bft) O-SO 103 0 min 0,000 mm 0,0 UV-I 0 W/m 15,1 C 18,8 C 4,8 km/h (1 Bft) 96,00 %
27.06.2017 01:38 18,7 C 26,1 C 79 % 1007,7 hPa 0,0 l/m 3,0 km/h (1 Bft) O-SO 103 0 min 0,000 mm 0,0 UV-I 0 W/m 15,0 C 18,7 C 3,2 km/h (1 Bft) 100,00 %
27.06.2017 01:40 18,5 C 26,1 C 80 % 1007,7 hPa 0,0 l/m 1,7 km/h (1 Bft) O-SO 103 0 min 0,000 mm 0,0 UV-I 0 W/m 15,0 C 18,5 C 3,2 km/h (1 Bft) 100,00 %
27.06.2017 01:42 18,4 C 26,1 C 80 % 1007,7 hPa 0,0 l/m 0,3 km/h (0 Bft) O-SO 103 0 min 0,000 mm 0,0 UV-I 0 W/m 14,9 C 18,4 C 1,6 km/h (1 Bft) 100,00 %
27.06.2017 01:44 18,3 C 26,1 C 81 % 1007,7 hPa 0,0 l/m 0,0 km/h (0 Bft) O-SO 103 0 min 0,000 mm 0,0 UV-I 0 W/m 15,0 C 18,3 C 0,0 km/h (0 Bft) 100,00 %
27.06.2017 01:46 18,2 C 26,1 C 81 % 1007,7 hPa 0,0 l/m 0,0 km/h (0 Bft) O-SO 103 0 min 0,000 mm 0,0 UV-I 0 W/m 14,9 C 18,2 C 0,0 km/h (0 Bft) 100,00 %
27.06.2017 01:48 18,2 C 26,1 C 82 % 1007,7 hPa 0,0 l/m 0,0 km/h (0 Bft) O-SO 103 0 min 0,000 mm 0,0 UV-I 0 W/m 15,1 C 18,2 C 0,0 km/h (0 Bft) 100,00 %
27.06.2017 01:50 18,1 C 26,1 C 82 % 1007,7 hPa 0,0 l/m 0,0 km/h (0 Bft) O-SO 103 0 min 0,000 mm 0,0 UV-I 0 W/m 15,0 C 18,1 C 0,0 km/h (0 Bft) 98,00 %
27.06.2017 01:52 18,1 C 26,1 C 82 % 1007,7 hPa 0,0 l/m 0,3 km/h (0 Bft) O-SO 103 0 min 0,000 mm 0,0 UV-I 0 W/m 15,0 C 18,1 C 3,2 km/h (1 Bft) 97,87 %
27.06.2017 01:54 17,9 C 26,1 C 82 % 1007,7 hPa 0,0 l/m 0,7 km/h (0 Bft) O-SO 103 0 min 0,000 mm 0,0 UV-I 0 W/m 14,8 C 17,9 C 3,2 km/h (1 Bft) 100,00 %
27.06.2017 01:56 17,9 C 26,1 C 82 % 1007,8 hPa 0,0 l/m 0,1 km/h (0 Bft) O-SO 103 0 min 0,000 mm 0,0 UV-I 0 W/m 14,8 C 17,9 C 1,6 km/h (1 Bft) 100,00 %
27.06.2017 01:58 18,0 C 26,1 C 82 % 1007,8 hPa 0,0 l/m 0,0 km/h (0 Bft) O-SO 103 0 min 0,000 mm 0,0 UV-I 0 W/m 14,9 C 18,0 C 0,0 km/h (0 Bft) 100,00 %
27.06.2017 02:00 18,0 C 26,1 C 83 % 1007,8 hPa 0,0 l/m 0,0 km/h (0 Bft) O-SO 103 0 min 0,000 mm 0,0 UV-I 0 W/m 15,1 C 18,0 C 0,0 km/h (0 Bft) 100,00 %
27.06.2017 02:02 17,9 C 26,1 C 83 % 1007,8 hPa 0,0 l/m 0,0 km/h (0 Bft) O-SO 103 0 min 0,000 mm 0,0 UV-I 0 W/m 15,0 C 17,9 C 0,0 km/h (0 Bft) 100,00 %
27.06.2017 02:04 17,8 C 26,1 C 83 % 1007,8 hPa 0,0 l/m 0,0 km/h (0 Bft) O-SO 103 0 min 0,000 mm 0,0 UV-I 0 W/m 14,9 C 17,8 C 0,0 km/h (0 Bft) 100,00 %
27.06.2017 02:06 17,8 C 26,1 C 83 % 1007,8 hPa 0,0 l/m 0,7 km/h (0 Bft) O-SO 103 0 min 0,000 mm 0,0 UV-I 0 W/m 14,9 C 17,8 C 1,6 km/h (1 Bft) 100,00 %
27.06.2017 02:08 17,8 C 26,1 C 84 % 1007,7 hPa 0,0 l/m 2,1 km/h (1 Bft) O-SO 103 0 min 0,000 mm 0,0 UV-I 0 W/m 15,1 C 17,8 C 3,2 km/h (1 Bft) 97,37 %
27.06.2017 02:10 17,8 C 26,1 C 84 % 1007,7 hPa 0,0 l/m 2,3 km/h (1 Bft) O-SO 103 0 min 0,000 mm 0,0 UV-I 0 W/m 15,1 C 17,8 C 3,2 km/h (1 Bft) 100,00 %
27.06.2017 02:12 17,8 C 26,1 C 83 % 1007,7 hPa 0,0 l/m 1,7 km/h (1 Bft) O-SO 103 0 min 0,000 mm 0,0 UV-I 0 W/m 14,9 C 17,8 C 3,2 km/h (1 Bft) 97,87 %
27.06.2017 02:14 17,9 C 26,1 C 83 % 1007,8 hPa 0,0 l/m 1,2 km/h (1 Bft) O-SO 103 0 min 0,000 mm 0,0 UV-I 0 W/m 15,0 C 17,9 C 1,6 km/h (1 Bft) 97,37 %
27.06.2017 02:16 18,0 C 26,1 C 83 % 1007,7 hPa 0,0 l/m 1,4 km/h (1 Bft) O-SO 103 0 min 0,000 mm 0,0 UV-I 0 W/m 15,1 C 18,0 C 3,2 km/h (1 Bft) 97,87 %
27.06.2017 02:18 18,1 C 26,1 C 82 % 1007,7 hPa 0,0 l/m 3,0 km/h (1 Bft) O-SO 103 0 min 0,000 mm 0,0 UV-I 0 W/m 15,0 C 18,1 C 4,8 km/h (1 Bft) 96,00 %
27.06.2017 02:20 18,1 C 26,1 C 82 % 1007,7 hPa 0,0 l/m 3,4 km/h (1 Bft) O-SO 103 0 min 0,000 mm 0,0 UV-I 0 W/m 15,0 C 18,1 C 4,8 km/h (1 Bft) 100,00 %
27.06.2017 02:22 18,1 C 26,1 C 82 % 1007,7 hPa 0,0 l/m 3,1 km/h (1 Bft) O-SO 103 0 min 0,000 mm 0,0 UV-I 0 W/m 15,0 C 18,1 C 4,8 km/h (1 Bft) 96,23 %
27.06.2017 02:24 17,9 C 26,1 C 82 % 1007,6 hPa 0,0 l/m 3,3 km/h (1 Bft) O-SO 103 0 min 0,000 mm 0,0 UV-I 0 W/m 14,8 C 17,9 C 4,8 km/h (1 Bft) 95,74 %
27.06.2017 02:26 17,9 C 26,1 C 83 % 1007,6 hPa 0,0 l/m 2,6 km/h (1 Bft) O-SO 103 0 min 0,000 mm 0,0 UV-I 0 W/m 15,0 C 17,9 C 4,8 km/h (1 Bft) 95,12 %
27.06.2017 02:28 17,8 C 26,1 C 83 % 1007,6 hPa 0,0 l/m 1,7 km/h (1 Bft) O-SO 103 0 min 0,000 mm 0,0 UV-I 0 W/m 14,9 C 17,8 C 3,2 km/h (1 Bft) 96,23 %
27.06.2017 02:30 17,8 C 26,1 C 83 % 1007,7 hPa 0,0 l/m 0,0 km/h (0 Bft) O-SO 103 0 min 0,000 mm 0,0 UV-I 0 W/m 14,9 C 17,8 C 0,0 km/h (0 Bft) 98,00 %
27.06.2017 02:32 17,9 C 26,1 C 83 % 1007,7 hPa 0,0 l/m 0,0 km/h (0 Bft) O-SO 103 0 min 0,000 mm 0,0 UV-I 0 W/m 15,0 C 17,9 C 0,0 km/h (0 Bft) 97,22 %
27.06.2017 02:34 18,0 C 26,1 C 83 % 1007,7 hPa 0,0 l/m 0,0 km/h (0 Bft) O-SO 103 0 min 0,000 mm 0,0 UV-I 0 W/m 15,1 C 18,0 C 0,0 km/h (0 Bft) 96,23 %
27.06.2017 02:36 17,9 C 26,1 C 83 % 1007,7 hPa 0,0 l/m 0,0 km/h (0 Bft) O-SO 103 0 min 0,000 mm 0,0 UV-I 0 W/m 15,0 C 17,9 C 0,0 km/h (0 Bft) 97,87 %
27.06.2017 02:38 17,9 C 26,1 C 83 % 1007,7 hPa 0,0 l/m 0,0 km/h (0 Bft) O-SO 103 0 min 0,000 mm 0,0 UV-I 0 W/m 15,0 C 17,9 C 1,6 km/h (1 Bft) 98,00 %
27.06.2017 02:40 17,8 C 26,1 C 83 % 1007,7 hPa 0,0 l/m 0,0 km/h (0 Bft) O-SO 103 0 min 0,000 mm 0,0 UV-I 0 W/m 14,9 C 17,8 C 0,0 km/h (0 Bft) 97,87 %
27.06.2017 02:42 17,7 C 26,1 C 84 % 1007,6 hPa 0,0 l/m 0,0 km/h (0 Bft) O-SO 103 0 min 0,000 mm 0,0 UV-I 0 W/m 15,0 C 17,7 C 0,0 km/h (0 Bft) 95,12 %
27.06.2017 02:44 17,6 C 26,1 C 84 % 1007,6 hPa 0,0 l/m 0,0 km/h (0 Bft) O-SO 103 0 min 0,000 mm 0,0 UV-I 0 W/m 14,9 C 17,6 C 0,0 km/h (0 Bft) 96,00 %
27.06.2017 02:46 17,6 C 26,1 C 84 % 1007,6 hPa 0,0 l/m 0,0 km/h (0 Bft) O-SO 103 0 min 0,000 mm 0,0 UV-I 0 W/m 14,9 C 17,6 C 0,0 km/h (0 Bft) 94,00 %
27.06.2017 02:48 17,6 C 26,1 C 84 % 1007,6 hPa 0,0 l/m 0,0 km/h (0 Bft) O-SO 103 0 min 0,000 mm 0,0 UV-I 0 W/m 14,9 C 17,6 C 0,0 km/h (0 Bft) 94,74 %
27.06.2017 02:50 17,6 C 26,1 C 84 % 1007,6 hPa 0,0 l/m 0,0 km/h (0 Bft) O-SO 103 0 min 0,000 mm 0,0 UV-I 0 W/m 14,9 C 17,6 C 0,0 km/h (0 Bft) 95,74 %
27.06.2017 02:52 17,7 C 26,1 C 84 % 1007,6 hPa 0,0 l/m 0,0 km/h (0 Bft) O-SO 103 0 min 0,000 mm 0,0 UV-I 0 W/m 15,0 C 17,7 C 0,0 km/h (0 Bft) 95,74 %
27.06.2017 02:54 17,7 C 26,1 C 84 % 1007,6 hPa 0,0 l/m 0,0 km/h (0 Bft) O-SO 103 0 min 0,000 mm 0,0 UV-I 0 W/m 15,0 C 17,7 C 1,6 km/h (1 Bft) 92,00 %
27.06.2017 02:56 17,7 C 26,1 C 84 % 1007,6 hPa 0,0 l/m 0,2 km/h (0 Bft) O-SO 103 0 min 0,000 mm 0,0 UV-I 0 W/m 15,0 C 17,7 C 3,2 km/h (1 Bft) 95,12 %
27.06.2017 02:58 17,6 C 26,1 C 85 % 1007,6 hPa 0,0 l/m 1,7 km/h (1 Bft) O-SO 103 0 min 0,000 mm 0,0 UV-I 0 W/m 15,0 C 17,6 C 3,2 km/h (1 Bft) 94,00 %
27.06.2017 03:00 17,6 C 26,1 C 85 % 1007,6 hPa 0,0 l/m 2,4 km/h (1 Bft) O-SO 103 0 min 0,000 mm 0,0 UV-I 0 W/m 15,0 C 17,6 C 3,2 km/h (1 Bft) 93,62 %
27.06.2017 03:02 17,6 C 26,1 C 85 % 1007,6 hPa 0,0 l/m 1,1 km/h (1 Bft) O-SO 103 0 min 0,000 mm 0,0 UV-I 0 W/m 15,0 C 17,6 C 3,2 km/h (1 Bft) 90,57 %
27.06.2017 03:04 17,6 C 26,1 C 85 % 1007,6 hPa 0,0 l/m 0,4 km/h (0 Bft) O-SO 103 0 min 0,000 mm 0,0 UV-I 0 W/m 15,0 C 17,6 C 1,6 km/h (1 Bft) 95,83 %
27.06.2017 03:06 17,6 C 26,1 C 85 % 1007,7 hPa 0,0 l/m 2,6 km/h (1 Bft) O-SO 103 0 min 0,000 mm 0,0 UV-I 0 W/m 15,0 C 17,6 C 4,8 km/h (1 Bft) 94,03 %
27.06.2017 03:08 17,6 C 26,1 C 85 % 1007,7 hPa 0,0 l/m 2,0 km/h (1 Bft) O-SO 103 0 min 0,000 mm 0,0 UV-I 0 W/m 15,0 C 17,6 C 3,2 km/h (1 Bft) 93,62 %
27.06.2017 03:10 17,7 C 26,1 C 85 % 1007,7 hPa 0,0 l/m 0,1 km/h (0 Bft) O-SO 103 0 min 0,000 mm 0,0 UV-I 0 W/m 15,1 C 17,7 C 1,6 km/h (1 Bft) 95,56 %
27.06.2017 03:12 17,8 C 26,1 C 84 % 1007,7 hPa 0,0 l/m 0,0 km/h (0 Bft) O-SO 103 0 min 0,000 mm 0,0 UV-I 0 W/m 15,1 C 17,8 C 0,0 km/h (0 Bft) 94,23 %
27.06.2017 03:14 17,9 C 26,1 C 84 % 1007,8 hPa 0,0 l/m 0,3 km/h (0 Bft) O-SO 103 0 min 0,000 mm 0,0 UV-I 0 W/m 15,2 C 17,9 C 1,6 km/h (1 Bft) 95,83 %
27.06.2017 03:16 18,0 C 26,1 C 84 % 1007,7 hPa 0,0 l/m 1,7 km/h (1 Bft) O-SO 103 0 min 0,000 mm 0,0 UV-I 0 W/m 15,3 C 18,0 C 3,2 km/h (1 Bft) 97,87 %
27.06.2017 03:18 17,9 C 26,1 C 83 % 1007,7 hPa 0,0 l/m 3,5 km/h (1 Bft) O-SO 103 0 min 0,000 mm 0,0 UV-I 0 W/m 15,0 C 17,9 C 4,8 km/h (1 Bft) 97,37 %
27.06.2017 03:20 17,8 C 26,1 C 83 % 1007,7 hPa 0,0 l/m 3,7 km/h (1 Bft) O-SO 104 0 min 0,000 mm 0,0 UV-I 0 W/m 14,9 C 17,8 C 6,4 km/h (2 Bft) 98,11 %
27.06.2017 03:22 17,6 C 26,1 C 84 % 1007,7 hPa 0,0 l/m 3,2 km/h (1 Bft) O-SO 105 0 min 0,000 mm 0,0 UV-I 0 W/m 14,9 C 17,6 C 4,8 km/h (1 Bft) 97,37 %
27.06.2017 03:24 17,5 C 26,1 C 84 % 1007,7 hPa 0,0 l/m 1,9 km/h (1 Bft) O-SO 105 0 min 0,000 mm 0,0 UV-I 0 W/m 14,8 C 17,5 C 3,2 km/h (1 Bft) 100,00 %
27.06.2017 03:26 17,4 C 26,1 C 85 % 1007,6 hPa 0,0 l/m 3,0 km/h (1 Bft) O-SO 105 0 min 0,000 mm 0,0 UV-I 0 W/m 14,8 C 17,4 C 4,8 km/h (1 Bft) 100,00 %
27.06.2017 03:28 17,4 C 26,1 C 85 % 1007,6 hPa 0,0 l/m 1,1 km/h (1 Bft) O-SO 105 0 min 0,000 mm 0,0 UV-I 0 W/m 14,8 C 17,4 C 3,2 km/h (1 Bft) 98,00 %
27.06.2017 03:30 17,6 C 26,1 C 85 % 1007,6 hPa 0,0 l/m 1,8 km/h (1 Bft) O-SO 105 0 min 0,000 mm 0,0 UV-I 0 W/m 15,0 C 17,6 C 3,2 km/h (1 Bft) 100,00 %
27.06.2017 03:32 17,6 C 26,1 C 84 % 1007,6 hPa 0,0 l/m 1,9 km/h (1 Bft) O-SO 105 0 min 0,000 mm 0,0 UV-I 0 W/m 14,9 C 17,6 C 3,2 km/h (1 Bft) 97,37 %
27.06.2017 03:34 17,7 C 26,1 C 84 % 1007,6 hPa 0,0 l/m 3,1 km/h (1 Bft) O-SO 107 0 min 0,000 mm 0,0 UV-I 0 W/m 15,0 C 17,7 C 4,8 km/h (1 Bft) 100,00 %
27.06.2017 03:36 17,7 C 26,1 C 84 % 1007,7 hPa 0,0 l/m 4,9 km/h (1 Bft) S-SO 165 0 min 0,000 mm 0,0 UV-I 0 W/m 15,0 C 17,7 C 6,4 km/h (2 Bft) 98,11 %
27.06.2017 03:38 17,7 C 26,1 C 84 % 1007,7 hPa 0,0 l/m 5,0 km/h (1 Bft) S 176 0 min 0,000 mm 0,0 UV-I 0 W/m 15,0 C 17,7 C 6,4 km/h (2 Bft) 100,00 %
27.06.2017 03:40 17,6 C 26,1 C 84 % 1007,7 hPa 0,0 l/m 5,0 km/h (1 Bft) S-SW 196 0 min 0,000 mm 0,0 UV-I 0 W/m 14,9 C 17,6 C 6,4 km/h (2 Bft) 96,88 %
27.06.2017 03:42 17,6 C 26,1 C 84 % 1007,7 hPa 0,0 l/m 3,3 km/h (1 Bft) S-SW 196 0 min 0,000 mm 0,0 UV-I 0 W/m 14,9 C 17,6 C 4,8 km/h (1 Bft) 100,00 %
27.06.2017 03:44 17,6 C 26,1 C 85 % 1007,8 hPa 0,0 l/m 3,2 km/h (1 Bft) S-SW 196 0 min 0,000 mm 0,0 UV-I 0 W/m 15,0 C 17,6 C 4,8 km/h (1 Bft) 98,00 %
27.06.2017 03:46 17,6 C 26,1 C 85 % 1007,7 hPa 0,0 l/m 3,0 km/h (1 Bft) S-SW 196 0 min 0,000 mm 0,0 UV-I 0 W/m 15,0 C 17,6 C 4,8 km/h (1 Bft) 100,00 %
27.06.2017 03:48 17,6 C 26,1 C 85 % 1007,7 hPa 0,0 l/m 3,2 km/h (1 Bft) S-SW 196 0 min 0,000 mm 0,0 UV-I 0 W/m 15,0 C 17,6 C 4,8 km/h (1 Bft) 98,00 %
27.06.2017 03:50 17,6 C 26,1 C 85 % 1007,7 hPa 0,0 l/m 2,4 km/h (1 Bft) S-SW 196 0 min 0,000 mm 0,0 UV-I 0 W/m 15,0 C 17,6 C 4,8 km/h (1 Bft) 95,74 %
27.06.2017 03:52 17,6 C 26,1 C 85 % 1007,7 hPa 0,0 l/m 2,5 km/h (1 Bft) S-SW 196 0 min 0,000 mm 0,0 UV-I 0 W/m 15,0 C 17,6 C 4,8 km/h (1 Bft) 100,00 %
27.06.2017 03:54 17,6 C 26,1 C 85 % 1007,7 hPa 0,0 l/m 1,7 km/h (1 Bft) S-SW 196 0 min 0,000 mm 0,0 UV-I 0 W/m 15,0 C 17,6 C 3,2 km/h (1 Bft) 100,00 %
27.06.2017 03:56 17,6 C 26,1 C 85 % 1007,8 hPa 0,0 l/m 2,9 km/h (1 Bft) S-SW 196 0 min 0,000 mm 0,0 UV-I 0 W/m 15,0 C 17,6 C 4,8 km/h (1 Bft) 98,00 %
27.06.2017 03:58 17,6 C 26,1 C 85 % 1007,8 hPa 0,0 l/m 4,7 km/h (1 Bft) S-SW 196 0 min 0,000 mm 0,0 UV-I 0 W/m 15,0 C 17,6 C 6,4 km/h (2 Bft) 100,00 %
27.06.2017 04:00 17,6 C 26,1 C 84 % 1007,8 hPa 0,0 l/m 4,3 km/h (1 Bft) S-SW 196 0 min 0,000 mm 0,0 UV-I 0 W/m 14,9 C 17,6 C 4,8 km/h (1 Bft) 100,00 %
27.06.2017 04:02 17,6 C 26,1 C 85 % 1007,8 hPa 0,0 l/m 3,1 km/h (1 Bft) S-SW 196 0 min 0,000 mm 0,0 UV-I 0 W/m 15,0 C 17,6 C 3,2 km/h (1 Bft) 90,91 %
27.06.2017 04:04 17,6 C 26,1 C 85 % 1007,8 hPa 0,0 l/m 2,9 km/h (1 Bft) S-SW 196 0 min 0,000 mm 0,0 UV-I 0 W/m 15,0 C 17,6 C 3,2 km/h (1 Bft) 98,00 %
27.06.2017 04:06 17,6 C 26,1 C 85 % 1007,7 hPa 0,0 l/m 1,6 km/h (1 Bft) S-SW 196 0 min 0,000 mm 0,0 UV-I 0 W/m 15,0 C 17,6 C 3,2 km/h (1 Bft) 100,00 %
27.06.2017 04:08 17,6 C 26,1 C 85 % 1007,7 hPa 0,0 l/m 0,2 km/h (0 Bft) S-SW 196 0 min 0,000 mm 0,0 UV-I 0 W/m 15,0 C 17,6 C 1,6 km/h (1 Bft) 98,00 %
27.06.2017 04:10 17,6 C 26,1 C 85 % 1007,7 hPa 0,0 l/m 0,5 km/h (0 Bft) S-SW 196 0 min 0,000 mm 0,0 UV-I 0 W/m 15,0 C 17,6 C 1,6 km/h (1 Bft) 100,00 %
27.06.2017 04:12 17,5 C 26,1 C 85 % 1007,7 hPa 0,0 l/m 1,6 km/h (1 Bft) S-SW 196 0 min 0,000 mm 0,0 UV-I 0 W/m 14,9 C 17,5 C 3,2 km/h (1 Bft) 100,00 %
27.06.2017 04:14 17,5 C 26,1 C 85 % 1007,6 hPa 0,0 l/m 3,0 km/h (1 Bft) S-SW 196 0 min 0,000 mm 0,0 UV-I 0 W/m 14,9 C 17,5 C 4,8 km/h (1 Bft) 98,36 %
27.06.2017 04:16 17,5 C 26,1 C 85 % 1007,7 hPa 0,0 l/m 4,0 km/h (1 Bft) S-SW 196 0 min 0,000 mm 0,0 UV-I 0 W/m 14,9 C 17,5 C 4,8 km/h (1 Bft) 100,00 %
27.06.2017 04:18 17,5 C 26,1 C 85 % 1007,7 hPa 0,0 l/m 2,5 km/h (1 Bft) S-SW 196 0 min 0,000 mm 0,0 UV-I 0 W/m 14,9 C 17,5 C 4,8 km/h (1 Bft) 100,00 %
27.06.2017 04:20 17,5 C 26,1 C 85 % 1007,6 hPa 0,0 l/m 1,5 km/h (1 Bft) S-SW 196 0 min 0,000 mm 0,0 UV-I 0 W/m 14,9 C 17,5 C 4,8 km/h (1 Bft) 100,00 %
27.06.2017 04:22 17,5 C 26,1 C 85 % 1007,6 hPa 0,0 l/m 0,1 km/h (0 Bft) S-SW 196 0 min 0,000 mm 0,0 UV-I 0 W/m 14,9 C 17,5 C 1,6 km/h (1 Bft) 97,73 %
27.06.2017 04:24 17,6 C 26,1 C 85 % 1007,6 hPa 0,0 l/m 0,9 km/h (0 Bft) S-SW 196 0 min 0,000 mm 0,0 UV-I 0 W/m 15,0 C 17,6 C 3,2 km/h (1 Bft) 100,00 %
27.06.2017 04:26 17,6 C 26,1 C 85 % 1007,6 hPa 0,0 l/m 2,2 km/h (1 Bft) S-SW 196 0 min 0,000 mm 0,0 UV-I 0 W/m 15,0 C 17,6 C 3,2 km/h (1 Bft) 100,00 %
27.06.2017 04:28 17,6 C 26,1 C 85 % 1007,6 hPa 0,0 l/m 1,5 km/h (1 Bft) S-SW 196 0 min 0,000 mm 0,0 UV-I 0 W/m 15,0 C 17,6 C 3,2 km/h (1 Bft) 100,00 %
27.06.2017 04:30 17,6 C 26,1 C 85 % 1007,6 hPa 0,0 l/m 1,0 km/h (0 Bft) S-SW 196 0 min 0,000 mm 0,0 UV-I 0 W/m 15,0 C 17,6 C 3,2 km/h (1 Bft) 100,00 %
27.06.2017 04:32 17,6 C 26,1 C 85 % 1007,5 hPa 0,0 l/m 0,3 km/h (0 Bft) S-SW 196 0 min 0,000 mm 0,0 UV-I 0 W/m 15,0 C 17,6 C 1,6 km/h (1 Bft) 100,00 %
27.06.2017 04:34 17,5 C 26,1 C 85 % 1007,5 hPa 0,0 l/m 0,5 km/h (0 Bft) S-SW 196 0 min 0,000 mm 0,0 UV-I 0 W/m 14,9 C 17,5 C 3,2 km/h (1 Bft) 97,73 %
27.06.2017 04:36 17,6 C 26,1 C 85 % 1007,5 hPa 0,0 l/m 0,3 km/h (0 Bft) S-SW 196 0 min 0,000 mm 0,0 UV-I 0 W/m 15,0 C 17,6 C 3,2 km/h (1 Bft) 100,00 %
27.06.2017 04:38 17,6 C 26,1 C 85 % 1007,5 hPa 0,0 l/m 0,8 km/h (0 Bft) S-SW 196 0 min 0,000 mm 0,0 UV-I 0 W/m 15,0 C 17,6 C 3,2 km/h (1 Bft) 100,00 %
27.06.2017 04:40 17,6 C 26,1 C 85 % 1007,5 hPa 0,0 l/m 0,0 km/h (0 Bft) S-SW 196 0 min 0,000 mm 0,0 UV-I 0 W/m 15,0 C 17,6 C 0,0 km/h (0 Bft) 100,00 %
27.06.2017 04:42 17,6 C 26,1 C 85 % 1007,5 hPa 0,0 l/m 0,1 km/h (0 Bft) S-SW 196 0 min 0,000 mm 0,0 UV-I 0 W/m 15,0 C 17,6 C 1,6 km/h (1 Bft) 96,30 %
27.06.2017 04:44 17,7 C 26,1 C 85 % 1007,4 hPa 0,0 l/m 0,2 km/h (0 Bft) S-SW 196 0 min 0,000 mm 0,0 UV-I 0 W/m 15,1 C 17,7 C 1,6 km/h (1 Bft) 95,74 %
27.06.2017 04:46 17,7 C 26,1 C 85 % 1007,5 hPa 0,0 l/m 1,2 km/h (1 Bft) S-SW 196 0 min 0,000 mm 0,0 UV-I 0 W/m 15,1 C 17,7 C 1,6 km/h (1 Bft) 97,73 %
27.06.2017 04:48 17,7 C 26,1 C 85 % 1007,5 hPa 0,0 l/m 0,5 km/h (0 Bft) S-SW 196 0 min 0,000 mm 0,0 UV-I 2 W/m 15,1 C 17,7 C 1,6 km/h (1 Bft) 94,00 %
27.06.2017 04:50 17,7 C 26,1 C 85 % 1007,5 hPa 0,0 l/m 1,8 km/h (1 Bft) S-SW 196 0 min 0,000 mm 0,0 UV-I 5 W/m 15,1 C 17,7 C 3,2 km/h (1 Bft) 95,74 %
27.06.2017 04:52 17,7 C 26,1 C 85 % 1007,4 hPa 0,0 l/m 2,8 km/h (1 Bft) S-SW 196 0 min 0,000 mm 0,0 UV-I 5 W/m 15,1 C 17,7 C 3,2 km/h (1 Bft) 94,34 %
27.06.2017 04:54 17,7 C 26,1 C 85 % 1007,3 hPa 0,0 l/m 2,2 km/h (1 Bft) S-SW 196 0 min 0,000 mm 0,0 UV-I 5 W/m 15,1 C 17,7 C 4,8 km/h (1 Bft) 97,37 %
27.06.2017 04:56 17,7 C 26,1 C 85 % 1007,3 hPa 0,0 l/m 2,5 km/h (1 Bft) S-SW 196 0 min 0,000 mm 0,0 UV-I 6 W/m 15,1 C 17,7 C 3,2 km/h (1 Bft) 96,00 %
27.06.2017 04:58 17,7 C 26,1 C 85 % 1007,3 hPa 0,0 l/m 2,8 km/h (1 Bft) S-SW 196 0 min 0,000 mm 0,0 UV-I 7 W/m 15,1 C 17,7 C 4,8 km/h (1 Bft) 96,00 %
27.06.2017 05:00 17,8 C 26,1 C 85 % 1007,3 hPa 0,0 l/m 3,2 km/h (1 Bft) S-SW 196 0 min 0,000 mm 0,0 UV-I 9 W/m 15,2 C 17,8 C 4,8 km/h (1 Bft) 92,11 %
27.06.2017 05:02 17,8 C 26,1 C 85 % 1007,3 hPa 0,0 l/m 5,8 km/h (2 Bft) S-SO 164 0 min 0,000 mm 0,0 UV-I 10 W/m 15,2 C 17,8 C 8,0 km/h (2 Bft) 98,21 %
27.06.2017 05:04 17,7 C 26,1 C 85 % 1007,2 hPa 0,0 l/m 5,6 km/h (1 Bft) S-SO 164 0 min 0,000 mm 0,0 UV-I 11 W/m 15,1 C 17,7 C 6,4 km/h (2 Bft) 94,44 %
27.06.2017 05:06 17,7 C 26,1 C 85 % 1007,2 hPa 0,0 l/m 3,3 km/h (1 Bft) S-SO 164 0 min 0,000 mm 0,0 UV-I 11 W/m 15,1 C 17,7 C 6,4 km/h (2 Bft) 96,23 %
27.06.2017 05:08 17,6 C 26,1 C 85 % 1007,1 hPa 0,0 l/m 1,8 km/h (1 Bft) S-SO 164 0 min 0,000 mm 0,0 UV-I 12 W/m 15,0 C 17,6 C 3,2 km/h (1 Bft) 95,74 %
27.06.2017 05:10 17,6 C 26,1 C 85 % 1007,3 hPa 0,0 l/m 0,7 km/h (0 Bft) S-SO 164 0 min 0,000 mm 0,0 UV-I 12 W/m 15,0 C 17,6 C 1,6 km/h (1 Bft) 98,00 %
27.06.2017 05:12 17,6 C 26,1 C 85 % 1007,3 hPa 0,0 l/m 0,5 km/h (0 Bft) S-SO 164 0 min 0,000 mm 0,0 UV-I 12 W/m 15,0 C 17,6 C 1,6 km/h (1 Bft) 97,87 %
27.06.2017 05:14 17,7 C 26,1 C 85 % 1007,4 hPa 0,0 l/m 3,3 km/h (1 Bft) S-SO 164 0 min 0,000 mm 0,0 UV-I 14 W/m 15,1 C 17,7 C 6,4 km/h (2 Bft) 98,00 %
27.06.2017 05:16 17,7 C 26,1 C 85 % 1007,4 hPa 0,0 l/m 1,3 km/h (1 Bft) S-SO 164 0 min 0,000 mm 0,0 UV-I 14 W/m 15,1 C 17,7 C 3,2 km/h (1 Bft) 100,00 %
27.06.2017 05:18 17,7 C 26,1 C 86 % 1007,4 hPa 0,0 l/m 2,3 km/h (1 Bft) S-SO 164 2 min 0,000 mm 0,0 UV-I 14 W/m 15,3 C 17,7 C 3,2 km/h (1 Bft) 100,00 %
27.06.2017 05:20 17,7 C 26,1 C 85 % 1007,3 hPa 0,0 l/m 0,6 km/h (0 Bft) S-SO 164 2 min 0,000 mm 0,0 UV-I 16 W/m 15,1 C 17,7 C 1,6 km/h (1 Bft) 100,00 %
27.06.2017 05:22 17,7 C 26,1 C 85 % 1007,3 hPa 0,0 l/m 0,1 km/h (0 Bft) S-SO 164 2 min 0,000 mm 0,0 UV-I 16 W/m 15,1 C 17,7 C 1,6 km/h (1 Bft) 100,00 %
27.06.2017 05:24 17,7 C 26,1 C 85 % 1007,3 hPa 0,0 l/m 0,0 km/h (0 Bft) S-SO 164 2 min 0,000 mm 0,0 UV-I 18 W/m 15,1 C 17,7 C 0,0 km/h (0 Bft) 100,00 %
27.06.2017 05:26 17,7 C 26,1 C 85 % 1007,3 hPa 0,0 l/m 0,0 km/h (0 Bft) S-SO 164 2 min 0,000 mm 0,0 UV-I 20 W/m 15,1 C 17,7 C 0,0 km/h (0 Bft) 100,00 %
27.06.2017 05:28 17,7 C 26,1 C 85 % 1007,3 hPa 0,0 l/m 0,0 km/h (0 Bft) S-SO 164 2 min 0,000 mm 0,0 UV-I 26 W/m 15,1 C 17,7 C 0,0 km/h (0 Bft) 100,00 %
27.06.2017 05:30 17,7 C 26,1 C 86 % 1007,3 hPa 0,0 l/m 1,2 km/h (1 Bft) S-SO 164 2 min 0,000 mm 0,0 UV-I 26 W/m 15,3 C 17,7 C 3,2 km/h (1 Bft) 97,37 %
27.06.2017 05:32 17,7 C 26,1 C 85 % 1007,3 hPa 0,0 l/m 0,5 km/h (0 Bft) S-SO 164 0 min 0,000 mm 0,0 UV-I 26 W/m 15,1 C 17,7 C 3,2 km/h (1 Bft) 97,87 %
27.06.2017 05:34 17,7 C 26,1 C 86 % 1007,3 hPa 0,0 l/m 3,2 km/h (1 Bft) S-SO 164 0 min 0,000 mm 0,0 UV-I 25 W/m 15,3 C 17,7 C 6,4 km/h (2 Bft) 98,21 %
27.06.2017 05:36 17,7 C 26,1 C 86 % 1007,3 hPa 0,0 l/m 1,2 km/h (1 Bft) S-SO 164 0 min 0,000 mm 0,0 UV-I 25 W/m 15,3 C 17,7 C 3,2 km/h (1 Bft) 100,00 %
27.06.2017 05:38 17,7 C 26,1 C 86 % 1007,2 hPa 0,0 l/m 0,3 km/h (0 Bft) S-SO 164 0 min 0,000 mm 0,0 UV-I 26 W/m 15,3 C 17,7 C 1,6 km/h (1 Bft) 98,21 %
27.06.2017 05:40 17,7 C 26,1 C 86 % 1007,3 hPa 0,0 l/m 1,4 km/h (1 Bft) S-SO 164 0 min 0,000 mm 0,0 UV-I 28 W/m 15,3 C 17,7 C 3,2 km/h (1 Bft) 100,00 %
27.06.2017 05:42 17,7 C 26,1 C 86 % 1007,2 hPa 0,0 l/m 1,9 km/h (1 Bft) S-SO 164 0 min 0,000 mm 0,0 UV-I 31 W/m 15,3 C 17,7 C 3,2 km/h (1 Bft) 98,11 %
27.06.2017 05:44 17,7 C 26,1 C 86 % 1007,3 hPa 0,0 l/m 2,7 km/h (1 Bft) S-SO 164 0 min 0,000 mm 0,0 UV-I 32 W/m 15,3 C 17,7 C 6,4 km/h (2 Bft) 100,00 %
27.06.2017 05:46 17,7 C 26,1 C 86 % 1007,3 hPa 0,0 l/m 3,4 km/h (1 Bft) S-SO 164 0 min 0,000 mm 0,0 UV-I 34 W/m 15,3 C 17,7 C 6,4 km/h (2 Bft) 96,55 %
27.06.2017 05:48 17,7 C 26,1 C 86 % 1007,2 hPa 0,0 l/m 0,8 km/h (0 Bft) S-SO 164 0 min 0,000 mm 0,0 UV-I 36 W/m 15,3 C 17,7 C 3,2 km/h (1 Bft) 100,00 %
27.06.2017 05:50 17,6 C 26,1 C 86 % 1007,2 hPa 0,0 l/m 0,0 km/h (0 Bft) S-SO 164 0 min 0,000 mm 0,0 UV-I 37 W/m 15,2 C 17,6 C 1,6 km/h (1 Bft) 97,44 %
27.06.2017 05:52 17,7 C 26,1 C 86 % 1007,2 hPa 0,0 l/m 0,0 km/h (0 Bft) S-SO 164 0 min 0,000 mm 0,0 UV-I 39 W/m 15,3 C 17,7 C 0,0 km/h (0 Bft) 98,00 %
27.06.2017 05:54 17,7 C 26,1 C 86 % 1007,2 hPa 0,0 l/m 0,0 km/h (0 Bft) S-SO 164 0 min 0,000 mm 0,0 UV-I 42 W/m 15,3 C 17,7 C 0,0 km/h (0 Bft) 100,00 %
27.06.2017 05:56 17,7 C 26,1 C 86 % 1007,3 hPa 0,0 l/m 0,8 km/h (0 Bft) S-SO 164 0 min 0,000 mm 0,0 UV-I 45 W/m 15,3 C 17,7 C 3,2 km/h (1 Bft) 98,00 %
27.06.2017 05:58 17,8 C 26,1 C 86 % 1007,4 hPa 0,0 l/m 3,7 km/h (1 Bft) S-SO 164 0 min 0,000 mm 0,0 UV-I 47 W/m 15,4 C 17,8 C 6,4 km/h (2 Bft) 100,00 %
27.06.2017 06:00 17,8 C 26,1 C 86 % 1007,6 hPa 0,0 l/m 4,8 km/h (1 Bft) S-SO 164 0 min 0,025 mm 0,0 UV-I 50 W/m 15,4 C 17,8 C 8,0 km/h (2 Bft) 100,00 %
27.06.2017 06:02 17,8 C 26,1 C 87 % 1007,6 hPa 0,0 l/m 5,4 km/h (1 Bft) S-SW 194 0 min 0,000 mm 0,0 UV-I 51 W/m 15,6 C 17,8 C 6,4 km/h (2 Bft) 100,00 %
27.06.2017 06:04 17,8 C 26,1 C 86 % 1007,7 hPa 0,0 l/m 3,5 km/h (1 Bft) S-SW 194 0 min 0,000 mm 0,0 UV-I 53 W/m 15,4 C 17,8 C 6,4 km/h (2 Bft) 94,64 %
27.06.2017 06:06 17,8 C 26,1 C 87 % 1007,7 hPa 0,0 l/m 3,5 km/h (1 Bft) S-SW 195 0 min 0,000 mm 0,0 UV-I 56 W/m 15,6 C 17,8 C 4,8 km/h (1 Bft) 94,74 %
27.06.2017 06:08 17,8 C 26,1 C 86 % 1007,7 hPa 0,0 l/m 4,4 km/h (1 Bft) S-SW 209 0 min 0,000 mm 0,0 UV-I 58 W/m 15,4 C 17,8 C 4,8 km/h (1 Bft) 98,11 %
27.06.2017 06:10 17,8 C 26,1 C 86 % 1007,7 hPa 0,0 l/m 3,9 km/h (1 Bft) S-SW 209 0 min 0,000 mm 0,0 UV-I 61 W/m 15,4 C 17,8 C 4,8 km/h (1 Bft) 97,87 %
27.06.2017 06:12 17,8 C 26,1 C 87 % 1007,8 hPa 0,0 l/m 5,3 km/h (1 Bft) S-SW 211 0 min 0,000 mm 0,0 UV-I 62 W/m 15,6 C 17,8 C 8,0 km/h (2 Bft) 96,55 %
27.06.2017 06:14 17,8 C 26,1 C 86 % 1007,7 hPa 0,0 l/m 5,9 km/h (2 Bft) S-SW 211 0 min 0,000 mm 0,0 UV-I 64 W/m 15,4 C 17,8 C 6,4 km/h (2 Bft) 96,92 %
27.06.2017 06:16 17,9 C 26,1 C 86 % 1007,8 hPa 0,0 l/m 3,6 km/h (1 Bft) S-SW 211 0 min 0,000 mm 0,0 UV-I 67 W/m 15,5 C 17,9 C 6,4 km/h (2 Bft) 97,87 %
27.06.2017 06:18 17,9 C 26,1 C 86 % 1007,7 hPa 0,0 l/m 4,5 km/h (1 Bft) S-SW 212 0 min 0,000 mm 0,0 UV-I 65 W/m 15,5 C 17,9 C 4,8 km/h (1 Bft) 97,73 %
27.06.2017 06:20 17,9 C 26,1 C 86 % 1007,8 hPa 0,0 l/m 4,9 km/h (1 Bft) S-SW 212 0 min 0,000 mm 0,0 UV-I 65 W/m 15,5 C 17,9 C 6,4 km/h (2 Bft) 97,87 %
27.06.2017 06:22 17,9 C 26,1 C 86 % 1007,8 hPa 0,0 l/m 4,2 km/h (1 Bft) S-SW 212 0 min 0,000 mm 0,0 UV-I 67 W/m 15,5 C 17,9 C 4,8 km/h (1 Bft) 97,44 %
27.06.2017 06:24 18,1 C 26,1 C 86 % 1007,9 hPa 0,0 l/m 4,9 km/h (1 Bft) SW 217 0 min 0,000 mm 0,0 UV-I 69 W/m 15,7 C 18,1 C 6,4 km/h (2 Bft) 94,83 %
27.06.2017 06:26 18,1 C 26,1 C 86 % 1007,9 hPa 0,0 l/m 5,2 km/h (1 Bft) SW 219 0 min 0,000 mm 0,0 UV-I 70 W/m 15,7 C 18,1 C 8,0 km/h (2 Bft) 95,74 %
27.06.2017 06:28 18,1 C 26,1 C 86 % 1008,0 hPa 0,0 l/m 5,5 km/h (1 Bft) SW 219 0 min 0,000 mm 0,0 UV-I 73 W/m 15,7 C 18,1 C 8,0 km/h (2 Bft) 97,44 %
27.06.2017 06:30 18,2 C 26,1 C 86 % 1008,1 hPa 0,0 l/m 3,6 km/h (1 Bft) SW 219 0 min 0,000 mm 0,0 UV-I 76 W/m 15,8 C 18,2 C 4,8 km/h (1 Bft) 95,74 %
27.06.2017 06:32 18,2 C 26,1 C 86 % 1008,2 hPa 0,0 l/m 2,7 km/h (1 Bft) SW 219 0 min 0,000 mm 0,0 UV-I 77 W/m 15,8 C 18,2 C 4,8 km/h (1 Bft) 96,00 %
27.06.2017 06:34 18,2 C 26,1 C 86 % 1008,3 hPa 0,0 l/m 3,1 km/h (1 Bft) SW 219 0 min 0,000 mm 0,0 UV-I 80 W/m 15,8 C 18,2 C 4,8 km/h (1 Bft) 93,62 %
27.06.2017 06:36 18,3 C 26,1 C 86 % 1008,3 hPa 0,0 l/m 5,6 km/h (1 Bft) W 273 0 min 0,000 mm 0,0 UV-I 83 W/m 15,9 C 18,3 C 12,9 km/h (3 Bft) 98,00 %
27.06.2017 06:38 18,3 C 26,1 C 85 % 1008,3 hPa 0,0 l/m 6,8 km/h (2 Bft) W-SW 246 0 min 0,000 mm 0,0 UV-I 86 W/m 15,7 C 18,1 C 12,9 km/h (3 Bft) 97,87 %
27.06.2017 06:40 18,3 C 26,1 C 85 % 1008,4 hPa 0,0 l/m 8,1 km/h (2 Bft) W-SW 253 0 min 0,000 mm 0,0 UV-I 90 W/m 15,7 C 17,5 C 16,1 km/h (3 Bft) 94,74 %
27.06.2017 06:42 18,3 C 26,1 C 85 % 1008,5 hPa 0,0 l/m 6,9 km/h (2 Bft) W-SW 252 0 min 0,000 mm 0,0 UV-I 91 W/m 15,7 C 18,1 C 14,5 km/h (3 Bft) 94,00 %
27.06.2017 06:44 18,4 C 26,1 C 85 % 1008,4 hPa 0,0 l/m 9,6 km/h (2 Bft) W-SW 246 0 min 0,000 mm 0,0 UV-I 95 W/m 15,8 C 17,0 C 12,9 km/h (3 Bft) 94,34 %
27.06.2017 06:46 18,4 C 26,1 C 85 % 1008,4 hPa 0,0 l/m 8,4 km/h (2 Bft) W-SW 250 0 min 0,000 mm 0,0 UV-I 98 W/m 15,8 C 17,5 C 12,9 km/h (3 Bft) 95,12 %
27.06.2017 06:48 18,4 C 26,1 C 85 % 1008,4 hPa 0,0 l/m 6,2 km/h (2 Bft) SW 225 0 min 0,000 mm 0,0 UV-I 103 W/m 15,8 C 18,4 C 11,3 km/h (2 Bft) 90,57 %
27.06.2017 06:50 18,5 C 26,1 C 84 % 1008,4 hPa 0,0 l/m 7,4 km/h (2 Bft) W-SW 243 0 min 0,000 mm 0,0 UV-I 105 W/m 15,7 C 18,0 C 12,9 km/h (3 Bft) 100,00 %
27.06.2017 06:52 18,6 C 26,1 C 84 % 1008,3 hPa 0,0 l/m 5,8 km/h (2 Bft) W-SW 244 0 min 0,000 mm 0,0 UV-I 108 W/m 15,8 C 18,6 C 9,7 km/h (2 Bft) 88,00 %
27.06.2017 06:54 18,6 C 26,1 C 83 % 1008,3 hPa 0,0 l/m 7,0 km/h (2 Bft) W 265 0 min 0,000 mm 0,0 UV-I 111 W/m 15,7 C 18,3 C 11,3 km/h (2 Bft) 93,62 %
27.06.2017 06:56 18,7 C 26,1 C 84 % 1008,3 hPa 0,0 l/m 5,6 km/h (1 Bft) W 266 0 min 0,000 mm 0,0 UV-I 113 W/m 15,9 C 18,7 C 9,7 km/h (2 Bft) 96,23 %
27.06.2017 06:58 18,8 C 26,1 C 83 % 1008,3 hPa 0,0 l/m 4,4 km/h (1 Bft) W 260 0 min 0,000 mm 0,0 UV-I 113 W/m 15,8 C 18,8 C 6,4 km/h (2 Bft) 95,12 %
27.06.2017 07:00 18,8 C 26,1 C 82 % 1008,3 hPa 0,0 l/m 4,5 km/h (1 Bft) W 265 0 min 0,000 mm 0,0 UV-I 113 W/m 15,7 C 18,8 C 8,0 km/h (2 Bft) 95,24 %
27.06.2017 07:02 18,9 C 26,1 C 82 % 1008,3 hPa 0,0 l/m 2,7 km/h (1 Bft) W-NW 283 0 min 0,051 mm 0,0 UV-I 115 W/m 15,8 C 18,9 C 6,4 km/h (2 Bft) 96,15 %
27.06.2017 07:04 19,0 C 26,1 C 82 % 1008,3 hPa 0,0 l/m 3,3 km/h (1 Bft) W-NW 283 0 min 0,000 mm 0,0 UV-I 116 W/m 15,9 C 19,0 C 4,8 km/h (1 Bft) 95,74 %
27.06.2017 07:06 19,1 C 26,1 C 82 % 1008,3 hPa 0,0 l/m 3,4 km/h (1 Bft) W-NW 283 0 min 0,000 mm 0,0 UV-I 116 W/m 16,0 C 19,1 C 4,8 km/h (1 Bft) 90,00 %
27.06.2017 07:08 19,1 C 26,1 C 82 % 1008,3 hPa 0,0 l/m 4,5 km/h (1 Bft) W 263 0 min 0,000 mm 0,0 UV-I 118 W/m 16,0 C 19,1 C 6,4 km/h (2 Bft) 95,24 %
27.06.2017 07:10 19,2 C 26,1 C 81 % 1008,4 hPa 0,0 l/m 6,4 km/h (2 Bft) W-SW 244 0 min 0,000 mm 0,0 UV-I 121 W/m 15,9 C 19,2 C 9,7 km/h (2 Bft) 95,12 %
27.06.2017 07:12 19,2 C 26,1 C 81 % 1008,4 hPa 0,0 l/m 7,2 km/h (2 Bft) SW 230 0 min 0,000 mm 0,0 UV-I 128 W/m 15,9 C 18,9 C 12,9 km/h (3 Bft) 96,77 %
27.06.2017 07:14 19,2 C 26,1 C 80 % 1008,5 hPa 0,0 l/m 5,5 km/h (1 Bft) W-SW 242 0 min 0,000 mm 0,0 UV-I 127 W/m 15,7 C 19,2 C 8,0 km/h (2 Bft) 97,56 %
27.06.2017 07:16 19,3 C 26,1 C 80 % 1008,5 hPa 0,0 l/m 6,1 km/h (2 Bft) SW 234 0 min 0,000 mm 0,0 UV-I 126 W/m 15,8 C 19,3 C 8,0 km/h (2 Bft) 96,00 %
27.06.2017 07:18 19,3 C 26,1 C 80 % 1008,5 hPa 0,0 l/m 6,7 km/h (2 Bft) W-SW 250 0 min 0,000 mm 0,0 UV-I 129 W/m 15,8 C 19,2 C 11,3 km/h (2 Bft) 94,74 %
27.06.2017 07:20 19,4 C 26,1 C 80 % 1008,6 hPa 0,0 l/m 6,4 km/h (2 Bft) W-SW 251 0 min 0,000 mm 0,0 UV-I 134 W/m 15,9 C 19,4 C 11,3 km/h (2 Bft) 100,00 %
27.06.2017 07:22 19,4 C 26,1 C 80 % 1008,6 hPa 0,0 l/m 6,6 km/h (2 Bft) W-SW 253 0 min 0,000 mm 0,0 UV-I 140 W/m 15,9 C 19,3 C 11,3 km/h (2 Bft) 96,00 %
27.06.2017 07:24 19,5 C 26,1 C 80 % 1008,6 hPa 0,0 l/m 6,6 km/h (2 Bft) SW 221 0 min 0,000 mm 0,3 UV-I 148 W/m 16,0 C 19,4 C 11,3 km/h (2 Bft) 97,73 %
27.06.2017 07:26 19,6 C 26,1 C 80 % 1008,6 hPa 0,0 l/m 6,0 km/h (2 Bft) W-SW 254 0 min 0,000 mm 0,5 UV-I 155 W/m 16,1 C 19,6 C 9,7 km/h (2 Bft) 95,45 %
27.06.2017 07:28 19,7 C 26,1 C 78 % 1008,6 hPa 0,0 l/m 8,0 km/h (2 Bft) W-SW 257 0 min 0,000 mm 0,5 UV-I 165 W/m 15,8 C 19,0 C 11,3 km/h (2 Bft) 100,00 %
27.06.2017 07:30 19,8 C 26,1 C 78 % 1008,7 hPa 0,0 l/m 6,4 km/h (2 Bft) W 261 0 min 0,000 mm 0,5 UV-I 179 W/m 15,8 C 19,8 C 9,7 km/h (2 Bft) 100,00 %
27.06.2017 07:32 19,9 C 26,1 C 78 % 1008,6 hPa 0,0 l/m 7,4 km/h (2 Bft) SW 236 0 min 0,000 mm 0,6 UV-I 193 W/m 15,9 C 19,5 C 11,3 km/h (2 Bft) 100,00 %
27.06.2017 07:34 20,0 C 26,1 C 77 % 1008,7 hPa 0,0 l/m 7,8 km/h (2 Bft) W-SW 253 2 min 0,000 mm 0,6 UV-I 216 W/m 15,8 C 19,4 C 12,9 km/h (3 Bft) 100,00 %
27.06.2017 07:36 20,2 C 26,1 C 77 % 1008,7 hPa 0,0 l/m 8,9 km/h (2 Bft) W-SW 249 2 min 0,000 mm 0,6 UV-I 244 W/m 16,0 C 19,2 C 12,9 km/h (3 Bft) 100,00 %
27.06.2017 07:38 20,3 C 26,1 C 77 % 1008,7 hPa 0,0 l/m 8,4 km/h (2 Bft) W-SW 254 2 min 0,000 mm 0,7 UV-I 247 W/m 16,1 C 19,5 C 14,5 km/h (3 Bft) 96,43 %
27.06.2017 07:40 20,4 C 26,1 C 76 % 1008,8 hPa 0,0 l/m 9,9 km/h (2 Bft) W 260 2 min 0,000 mm 0,7 UV-I 270 W/m 16,0 C 19,1 C 16,1 km/h (3 Bft) 100,00 %
27.06.2017 07:42 20,5 C 26,1 C 77 % 1008,8 hPa 0,0 l/m 10,8 km/h (2 Bft) SW 232 2 min 0,000 mm 0,7 UV-I 310 W/m 16,3 C 18,9 C 24,1 km/h (4 Bft) 97,96 %
27.06.2017 07:44 20,6 C 26,1 C 76 % 1008,8 hPa 0,0 l/m 11,6 km/h (2 Bft) W 267 2 min 0,000 mm 0,8 UV-I 315 W/m 16,2 C 18,8 C 17,7 km/h (3 Bft) 100,00 %
27.06.2017 07:46 20,7 C 26,1 C 75 % 1008,9 hPa 0,0 l/m 9,9 km/h (2 Bft) W-SW 253 2 min 0,000 mm 0,8 UV-I 308 W/m 16,1 C 19,4 C 14,5 km/h (3 Bft) 96,43 %
27.06.2017 07:48 20,8 C 26,1 C 76 % 1009,0 hPa 0,0 l/m 8,0 km/h (2 Bft) SW 223 2 min 0,000 mm 0,8 UV-I 284 W/m 16,4 C 20,2 C 12,9 km/h (3 Bft) 100,00 %
27.06.2017 07:50 20,9 C 26,1 C 76 % 1008,9 hPa 0,0 l/m 7,6 km/h (2 Bft) W 264 2 min 0,000 mm 0,8 UV-I 272 W/m 16,5 C 20,4 C 11,3 km/h (2 Bft) 97,73 %
27.06.2017 07:52 21,0 C 26,1 C 75 % 1008,9 hPa 0,0 l/m 11,5 km/h (2 Bft) SW 231 2 min 0,000 mm 0,9 UV-I 301 W/m 16,4 C 19,3 C 19,3 km/h (3 Bft) 97,56 %
27.06.2017 07:54 21,1 C 26,1 C 76 % 1008,9 hPa 0,0 l/m 12,2 km/h (2 Bft) W-SW 255 2 min 0,000 mm 0,9 UV-I 301 W/m 16,7 C 19,2 C 20,9 km/h (4 Bft) 100,00 %
27.06.2017 07:56 21,1 C 26,1 C 75 % 1008,9 hPa 0,0 l/m 18,2 km/h (3 Bft) W 260 2 min 0,000 mm 0,9 UV-I 328 W/m 16,5 C 17,9 C 29,0 km/h (5 Bft) 100,00 %
27.06.2017 07:58 21,1 C 26,1 C 75 % 1009,0 hPa 0,0 l/m 12,6 km/h (3 Bft) W-SW 258 2 min 0,000 mm 0,9 UV-I 323 W/m 16,5 C 19,1 C 19,3 km/h (3 Bft) 98,21 %
27.06.2017 08:00 21,1 C 26,1 C 75 % 1009,1 hPa 0,0 l/m 16,6 km/h (3 Bft) SW 236 2 min 0,153 mm 1,0 UV-I 326 W/m 16,5 C 18,2 C 25,7 km/h (4 Bft) 100,00 %
27.06.2017 08:02 21,1 C 26,1 C 74 % 1009,1 hPa 0,0 l/m 20,8 km/h (4 Bft) W 281 2 min 0,000 mm 1,0 UV-I 336 W/m 16,3 C 17,5 C 27,4 km/h (4 Bft) 100,00 %
27.06.2017 08:04 21,1 C 26,1 C 75 % 1009,2 hPa 0,0 l/m 14,0 km/h (3 Bft) W 269 2 min 0,000 mm 0,9 UV-I 295 W/m 16,5 C 18,8 C 24,1 km/h (4 Bft) 94,00 %
27.06.2017 08:06 21,1 C 26,1 C 75 % 1009,2 hPa 0,0 l/m 13,5 km/h (3 Bft) W-NW 302 2 min 0,000 mm 0,9 UV-I 279 W/m 16,5 C 18,9 C 24,1 km/h (4 Bft) 97,56 %
27.06.2017 08:08 21,1 C 26,1 C 75 % 1009,2 hPa 0,0 l/m 15,9 km/h (3 Bft) W 271 2 min 0,000 mm 0,9 UV-I 280 W/m 16,5 C 18,4 C 27,4 km/h (4 Bft) 100,00 %
27.06.2017 08:10 21,1 C 26,1 C 75 % 1009,3 hPa 0,0 l/m 14,9 km/h (3 Bft) W 265 2 min 0,000 mm 1,0 UV-I 302 W/m 16,5 C 18,6 C 24,1 km/h (4 Bft) 97,37 %
27.06.2017 08:12 21,2 C 26,1 C 75 % 1009,3 hPa 0,0 l/m 11,6 km/h (2 Bft) W 275 2 min 0,000 mm 1,0 UV-I 324 W/m 16,6 C 19,5 C 24,1 km/h (4 Bft) 98,21 %
27.06.2017 08:14 21,2 C 26,1 C 74 % 1009,4 hPa 0,0 l/m 13,9 km/h (3 Bft) W-SW 245 2 min 0,000 mm 1,1 UV-I 352 W/m 16,4 C 18,9 C 25,7 km/h (4 Bft) 100,00 %
27.06.2017 08:16 21,2 C 26,1 C 74 % 1009,3 hPa 0,0 l/m 13,8 km/h (3 Bft) W-SW 245 2 min 0,000 mm 1,1 UV-I 354 W/m 16,4 C 19,0 C 20,9 km/h (4 Bft) 97,56 %
27.06.2017 08:18 21,3 C 26,1 C 74 % 1009,3 hPa 0,0 l/m 12,6 km/h (3 Bft) W-NW 286 2 min 0,000 mm 1,1 UV-I 365 W/m 16,5 C 19,4 C 30,6 km/h (5 Bft) 95,74 %
27.06.2017 08:20 21,3 C 26,1 C 73 % 1009,4 hPa 0,0 l/m 14,9 km/h (3 Bft) W-SW 240 2 min 0,000 mm 1,2 UV-I 346 W/m 16,3 C 18,8 C 22,5 km/h (4 Bft) 100,00 %
27.06.2017 08:22 21,4 C 26,1 C 73 % 1009,3 hPa 0,0 l/m 11,9 km/h (2 Bft) W 272 2 min 0,000 mm 1,2 UV-I 346 W/m 16,4 C 19,7 C 20,9 km/h (4 Bft) 100,00 %
27.06.2017 08:24 21,3 C 26,1 C 73 % 1009,4 hPa 0,0 l/m 16,5 km/h (3 Bft) W 266 2 min 0,000 mm 1,2 UV-I 341 W/m 16,3 C 18,5 C 22,5 km/h (4 Bft) 94,00 %
27.06.2017 08:26 21,3 C 26,1 C 73 % 1009,3 hPa 0,0 l/m 15,2 km/h (3 Bft) W 263 2 min 0,000 mm 1,2 UV-I 342 W/m 16,3 C 18,8 C 24,1 km/h (4 Bft) 100,00 %
27.06.2017 08:28 21,3 C 26,1 C 73 % 1009,4 hPa 0,0 l/m 15,2 km/h (3 Bft) W 263 2 min 0,000 mm 1,3 UV-I 388 W/m 16,3 C 18,8 C 27,4 km/h (4 Bft) 97,73 %
27.06.2017 08:30 21,4 C 26,1 C 73 % 1009,4 hPa 0,0 l/m 16,1 km/h (3 Bft) W-SW 244 2 min 0,000 mm 1,3 UV-I 367 W/m 16,4 C 18,7 C 24,1 km/h (4 Bft) 94,00 %
27.06.2017 08:32 21,4 C 26,1 C 73 % 1009,4 hPa 0,0 l/m 12,4 km/h (3 Bft) W 262 2 min 0,000 mm 1,3 UV-I 392 W/m 16,4 C 19,5 C 19,3 km/h (3 Bft) 97,37 %
27.06.2017 08:34 21,4 C 26,1 C 74 % 1009,4 hPa 0,0 l/m 7,6 km/h (2 Bft) W-SW 250 2 min 0,000 mm 1,4 UV-I 398 W/m 16,6 C 21,0 C 14,5 km/h (3 Bft) 96,23 %
27.06.2017 08:36 21,6 C 26,1 C 73 % 1009,5 hPa 0,0 l/m 15,9 km/h (3 Bft) W-SW 248 2 min 0,000 mm 1,4 UV-I 378 W/m 16,5 C 19,0 C 22,5 km/h (4 Bft) 93,62 %
27.06.2017 08:38 21,5 C 26,1 C 72 % 1009,4 hPa 0,0 l/m 17,8 km/h (3 Bft) SW 230 2 min 0,000 mm 1,3 UV-I 355 W/m 16,2 C 18,5 C 27,4 km/h (4 Bft) 97,87 %
27.06.2017 08:40 21,4 C 26,1 C 73 % 1009,3 hPa 0,0 l/m 8,5 km/h (2 Bft) W-NW 292 2 min 0,000 mm 1,3 UV-I 346 W/m 16,4 C 20,7 C 22,5 km/h (4 Bft) 96,00 %
27.06.2017 08:42 21,5 C 26,1 C 73 % 1009,3 hPa 0,0 l/m 8,8 km/h (2 Bft) W 268 2 min 0,000 mm 1,3 UV-I 319 W/m 16,4 C 20,7 C 16,1 km/h (3 Bft) 92,11 %
27.06.2017 08:44 21,6 C 26,1 C 73 % 1009,3 hPa 0,0 l/m 11,7 km/h (2 Bft) SW 232 2 min 0,000 mm 1,4 UV-I 324 W/m 16,5 C 19,9 C 17,7 km/h (3 Bft) 98,21 %
27.06.2017 08:46 21,5 C 26,1 C 72 % 1009,3 hPa 0,0 l/m 11,2 km/h (2 Bft) W-SW 240 2 min 0,000 mm 1,4 UV-I 335 W/m 16,2 C 20,0 C 16,1 km/h (3 Bft) 95,12 %
27.06.2017 08:48 21,5 C 26,1 C 72 % 1009,3 hPa 0,0 l/m 8,1 km/h (2 Bft) SW 225 2 min 0,000 mm 1,5 UV-I 349 W/m 16,2 C 20,9 C 20,9 km/h (4 Bft) 98,00 %
27.06.2017 08:50 21,4 C 26,1 C 72 % 1009,3 hPa 0,0 l/m 9,2 km/h (2 Bft) W-SW 245 2 min 0,000 mm 1,4 UV-I 340 W/m 16,1 C 20,4 C 16,1 km/h (3 Bft) 93,33 %
27.06.2017 08:52 21,4 C 26,1 C 72 % 1009,3 hPa 0,0 l/m 6,3 km/h (2 Bft) W 273 2 min 0,000 mm 1,5 UV-I 332 W/m 16,1 C 21,4 C 12,9 km/h (3 Bft) 95,52 %
27.06.2017 08:54 21,4 C 26,1 C 73 % 1009,2 hPa 0,0 l/m 5,4 km/h (1 Bft) W 259 2 min 0,000 mm 1,5 UV-I 333 W/m 16,4 C 21,4 C 12,9 km/h (3 Bft) 92,11 %
27.06.2017 08:56 21,4 C 26,1 C 73 % 1009,2 hPa 0,0 l/m 5,6 km/h (1 Bft) W-SW 243 2 min 0,000 mm 1,4 UV-I 314 W/m 16,4 C 21,4 C 9,7 km/h (2 Bft) 98,21 %
27.06.2017 08:58 21,4 C 26,1 C 73 % 1009,2 hPa 0,0 l/m 8,2 km/h (2 Bft) W-SW 254 0 min 0,000 mm 1,5 UV-I 307 W/m 16,4 C 20,8 C 14,5 km/h (3 Bft) 93,18 %
27.06.2017 09:00 21,4 C 26,1 C 72 % 1009,3 hPa 0,0 l/m 8,7 km/h (2 Bft) W-NW 291 0 min 0,254 mm 1,5 UV-I 306 W/m 16,1 C 20,6 C 16,1 km/h (3 Bft) 97,44 %
27.06.2017 09:02 21,5 C 26,1 C 74 % 1009,3 hPa 0,0 l/m 5,8 km/h (2 Bft) W-SW 245 2 min 0,000 mm 1,5 UV-I 319 W/m 16,7 C 21,5 C 11,3 km/h (2 Bft) 96,55 %
27.06.2017 09:04 21,6 C 26,1 C 73 % 1009,3 hPa 0,0 l/m 5,2 km/h (1 Bft) W 281 2 min 0,000 mm 1,7 UV-I 369 W/m 16,5 C 21,6 C 17,7 km/h (3 Bft) 92,31 %
27.06.2017 09:06 21,6 C 26,1 C 72 % 1009,3 hPa 0,0 l/m 9,6 km/h (2 Bft) W-SW 247 2 min 0,000 mm 1,8 UV-I 453 W/m 16,3 C 20,5 C 17,7 km/h (3 Bft) 98,11 %
27.06.2017 09:08 21,7 C 26,1 C 72 % 1009,4 hPa 0,0 l/m 5,5 km/h (1 Bft) W-SW 256 2 min 0,000 mm 1,9 UV-I 495 W/m 16,4 C 21,7 C 12,9 km/h (3 Bft) 95,12 %
27.06.2017 09:10 21,7 C 26,1 C 72 % 1009,3 hPa 0,0 l/m 7,5 km/h (2 Bft) W-NW 288 2 min 0,000 mm 1,9 UV-I 470 W/m 16,4 C 21,3 C 19,3 km/h (3 Bft) 100,00 %
27.06.2017 09:12 21,7 C 26,1 C 71 % 1009,3 hPa 0,0 l/m 9,4 km/h (2 Bft) W-NW 294 2 min 0,000 mm 1,9 UV-I 460 W/m 16,2 C 20,7 C 16,1 km/h (3 Bft) 100,00 %
27.06.2017 09:14 21,8 C 26,1 C 71 % 1009,3 hPa 0,0 l/m 4,3 km/h (1 Bft) W-SW 241 2 min 0,000 mm 2,0 UV-I 498 W/m 16,3 C 21,8 C 11,3 km/h (2 Bft) 94,92 %
27.06.2017 09:16 21,8 C 26,1 C 71 % 1009,3 hPa 0,0 l/m 5,8 km/h (2 Bft) W-NW 283 2 min 0,000 mm 1,7 UV-I 431 W/m 16,3 C 21,8 C 12,9 km/h (3 Bft) 100,00 %
27.06.2017 09:18 21,9 C 26,1 C 71 % 1009,3 hPa 0,0 l/m 6,8 km/h (2 Bft) W-SW 248 2 min 0,000 mm 1,6 UV-I 373 W/m 16,4 C 21,8 C 16,1 km/h (3 Bft) 97,87 %
27.06.2017 09:20 21,8 C 26,1 C 70 % 1009,3 hPa 0,0 l/m 7,5 km/h (2 Bft) W 271 0 min 0,000 mm 1,5 UV-I 328 W/m 16,1 C 21,4 C 14,5 km/h (3 Bft) 98,00 %
27.06.2017 09:22 21,7 C 26,1 C 70 % 1009,3 hPa 0,0 l/m 5,8 km/h (2 Bft) NW 306 0 min 0,000 mm 1,3 UV-I 298 W/m 16,0 C 21,7 C 11,3 km/h (2 Bft) 97,87 %
27.06.2017 09:24 21,7 C 26,1 C 70 % 1009,4 hPa 0,0 l/m 7,6 km/h (2 Bft) SW 232 0 min 0,000 mm 1,2 UV-I 261 W/m 16,0 C 21,3 C 14,5 km/h (3 Bft) 97,56 %
27.06.2017 09:26 21,6 C 26,1 C 70 % 1009,4 hPa 0,0 l/m 4,5 km/h (1 Bft) W-SW 257 0 min 0,000 mm 1,1 UV-I 248 W/m 15,9 C 21,6 C 11,3 km/h (2 Bft) 100,00 %
27.06.2017 09:28 21,4 C 26,1 C 71 % 1009,4 hPa 0,0 l/m 6,3 km/h (2 Bft) W-SW 255 0 min 0,000 mm 1,1 UV-I 237 W/m 15,9 C 21,4 C 11,3 km/h (2 Bft) 97,56 %
27.06.2017 09:30 21,4 C 26,1 C 71 % 1009,4 hPa 0,0 l/m 9,5 km/h (2 Bft) W-SW 240 0 min 0,000 mm 1,1 UV-I 230 W/m 15,9 C 20,3 C 19,3 km/h (3 Bft) 100,00 %
27.06.2017 09:32 21,3 C 26,1 C 71 % 1009,4 hPa 0,0 l/m 8,8 km/h (2 Bft) W-SW 255 0 min 0,000 mm 1,1 UV-I 227 W/m 15,8 C 20,4 C 12,9 km/h (3 Bft) 98,11 %
27.06.2017 09:34 21,2 C 26,1 C 71 % 1009,4 hPa 0,0 l/m 7,7 km/h (2 Bft) W-SW 241 0 min 0,000 mm 1,2 UV-I 229 W/m 15,7 C 20,7 C 16,1 km/h (3 Bft) 100,00 %
27.06.2017 09:36 21,2 C 25,0 C 71 % 1009,5 hPa 0,0 l/m 7,5 km/h (2 Bft) W-NW 283 0 min 0,000 mm 1,2 UV-I 237 W/m 15,7 C 20,8 C 16,1 km/h (3 Bft) 97,56 %
27.06.2017 09:38 21,2 C 25,0 C 71 % 1009,5 hPa 0,0 l/m 5,4 km/h (1 Bft) W-SW 255 0 min 0,000 mm 1,3 UV-I 246 W/m 15,7 C 21,2 C 9,7 km/h (2 Bft) 97,62 %
27.06.2017 09:40 21,2 C 25,0 C 70 % 1009,4 hPa 0,0 l/m 5,4 km/h (1 Bft) W 276 0 min 0,000 mm 1,3 UV-I 259 W/m 15,5 C 21,2 C 12,9 km/h (3 Bft) 100,00 %
27.06.2017 09:42 21,2 C 25,0 C 71 % 1009,4 hPa 0,0 l/m 10,8 km/h (2 Bft) W-SW 251 0 min 0,000 mm 1,4 UV-I 263 W/m 15,7 C 19,7 C 17,7 km/h (3 Bft) 96,43 %
27.06.2017 09:44 21,1 C 25,0 C 70 % 1009,4 hPa 0,0 l/m 10,5 km/h (2 Bft) W-NW 300 0 min 0,000 mm 1,4 UV-I 253 W/m 15,4 C 19,7 C 20,9 km/h (4 Bft) 96,00 %
27.06.2017 09:46 21,2 C 25,0 C 71 % 1009,4 hPa 0,0 l/m 5,4 km/h (1 Bft) W 271 0 min 0,000 mm 1,4 UV-I 251 W/m 15,7 C 21,2 C 12,9 km/h (3 Bft) 100,00 %
27.06.2017 09:48 21,2 C 25,0 C 71 % 1009,4 hPa 0,0 l/m 8,1 km/h (2 Bft) SW 232 0 min 0,000 mm 1,5 UV-I 262 W/m 15,7 C 20,6 C 12,9 km/h (3 Bft) 98,08 %
27.06.2017 09:50 21,2 C 25,0 C 70 % 1009,3 hPa 0,0 l/m 7,7 km/h (2 Bft) SW 236 0 min 0,000 mm 1,7 UV-I 289 W/m 15,5 C 20,7 C 14,5 km/h (3 Bft) 95,45 %
27.06.2017 09:52 21,2 C 25,0 C 70 % 1009,3 hPa 0,0 l/m 12,1 km/h (2 Bft) W-SW 254 0 min 0,000 mm 2,0 UV-I 325 W/m 15,5 C 19,4 C 17,7 km/h (3 Bft) 100,00 %
27.06.2017 09:54 21,2 C 25,0 C 70 % 1009,3 hPa 0,0 l/m 8,6 km/h (2 Bft) W-SW 248 0 min 0,000 mm 2,3 UV-I 375 W/m 15,5 C 20,4 C 14,5 km/h (3 Bft) 100,00 %
27.06.2017 09:56 21,3 C 25,0 C 72 % 1009,2 hPa 0,0 l/m 7,9 km/h (2 Bft) W-NW 286 2 min 0,000 mm 2,8 UV-I 464 W/m 16,0 C 20,8 C 12,9 km/h (3 Bft) 100,00 %
27.06.2017 09:58 21,4 C 25,6 C 71 % 1009,2 hPa 0,0 l/m 5,1 km/h (1 Bft) SW 236 2 min 0,000 mm 3,3 UV-I 559 W/m 15,9 C 21,4 C 9,7 km/h (2 Bft) 92,31 %
27.06.2017 10:00 21,8 C 25,0 C 70 % 1009,2 hPa 0,0 l/m 5,3 km/h (1 Bft) W-SW 250 2 min 0,228 mm 3,3 UV-I 756 W/m 16,1 C 21,8 C 12,9 km/h (3 Bft) 96,00 %
27.06.2017 10:02 22,1 C 25,0 C 68 % 1009,1 hPa 0,0 l/m 8,4 km/h (2 Bft) SW 236 2 min 0,000 mm 2,5 UV-I 443 W/m 15,9 C 21,4 C 16,1 km/h (3 Bft) 95,12 %
27.06.2017 10:04 22,1 C 25,0 C 67 % 1009,1 hPa 0,0 l/m 7,6 km/h (2 Bft) SW 227 2 min 0,000 mm 2,2 UV-I 407 W/m 15,7 C 21,7 C 12,9 km/h (3 Bft) 98,00 %
27.06.2017 10:06 21,9 C 25,0 C 68 % 1009,0 hPa 0,0 l/m 7,3 km/h (2 Bft) NW 307 0 min 0,000 mm 2,0 UV-I 359 W/m 15,7 C 21,6 C 12,9 km/h (3 Bft) 96,00 %
27.06.2017 10:08 21,8 C 25,0 C 69 % 1009,0 hPa 0,0 l/m 2,9 km/h (1 Bft) N-NO 15 0 min 0,000 mm 1,9 UV-I 320 W/m 15,9 C 21,8 C 6,4 km/h (2 Bft) 95,12 %
27.06.2017 10:10 21,8 C 25,0 C 70 % 1009,0 hPa 0,0 l/m 3,3 km/h (1 Bft) N-NW 327 0 min 0,000 mm 1,8 UV-I 306 W/m 16,1 C 21,8 C 6,4 km/h (2 Bft) 94,74 %
27.06.2017 10:12 21,8 C 25,0 C 71 % 1009,1 hPa 0,0 l/m 3,6 km/h (1 Bft) W-SW 241 0 min 0,000 mm 1,7 UV-I 291 W/m 16,3 C 21,8 C 12,9 km/h (3 Bft) 96,43 %
27.06.2017 10:14 21,7 C 25,0 C 69 % 1009,1 hPa 0,0 l/m 7,1 km/h (2 Bft) W-SW 248 0 min 0,000 mm 1,7 UV-I 286 W/m 15,8 C 21,5 C 12,9 km/h (3 Bft) 96,23 %
27.06.2017 10:16 21,6 C 25,0 C 70 % 1009,1 hPa 0,0 l/m 7,0 km/h (2 Bft) W 275 0 min 0,000 mm 1,9 UV-I 303 W/m 15,9 C 21,4 C 14,5 km/h (3 Bft) 97,44 %
27.06.2017 10:18 21,4 C 25,0 C 68 % 1009,1 hPa 0,0 l/m 6,2 km/h (2 Bft) W-NW 301 0 min 0,000 mm 2,0 UV-I 331 W/m 15,2 C 21,4 C 9,7 km/h (2 Bft) 97,87 %
27.06.2017 10:20 21,3 C 25,0 C 69 % 1009,3 hPa 0,0 l/m 7,2 km/h (2 Bft) SW 223 0 min 0,000 mm 2,2 UV-I 358 W/m 15,4 C 21,0 C 12,9 km/h (3 Bft) 96,36 %
27.06.2017 10:22 21,4 C 25,0 C 72 % 1009,3 hPa 0,0 l/m 7,1 km/h (2 Bft) W 263 0 min 0,000 mm 2,4 UV-I 378 W/m 16,1 C 21,1 C 11,3 km/h (2 Bft) 95,24 %
27.06.2017 10:24 21,6 C 25,0 C 71 % 1009,3 hPa 0,0 l/m 10,8 km/h (2 Bft) W-SW 246 0 min 0,000 mm 2,4 UV-I 383 W/m 16,1 C 20,2 C 16,1 km/h (3 Bft) 97,37 %
27.06.2017 10:26 21,5 C 25,0 C 70 % 1009,2 hPa 0,0 l/m 11,2 km/h (2 Bft) W 259 0 min 0,000 mm 2,4 UV-I 366 W/m 15,8 C 20,0 C 16,1 km/h (3 Bft) 94,92 %
27.06.2017 10:28 21,3 C 25,0 C 69 % 1009,1 hPa 0,0 l/m 6,5 km/h (2 Bft) W 259 0 min 0,000 mm 2,4 UV-I 368 W/m 15,4 C 21,3 C 14,5 km/h (3 Bft) 95,74 %
27.06.2017 10:30 21,3 C 25,0 C 70 % 1009,2 hPa 0,0 l/m 6,9 km/h (2 Bft) W-SW 239 0 min 0,000 mm 2,5 UV-I 376 W/m 15,6 C 21,1 C 12,9 km/h (3 Bft) 89,47 %
27.06.2017 10:32 21,1 C 25,0 C 70 % 1009,2 hPa 0,0 l/m 6,1 km/h (2 Bft) SW 223 0 min 0,000 mm 2,6 UV-I 380 W/m 15,4 C 21,1 C 9,7 km/h (2 Bft) 93,62 %
27.06.2017 10:34 21,2 C 25,0 C 71 % 1009,2 hPa 0,0 l/m 4,0 km/h (1 Bft) W-SW 242 0 min 0,000 mm 2,7 UV-I 398 W/m 15,7 C 21,2 C 8,0 km/h (2 Bft) 96,00 %
27.06.2017 10:36 21,2 C 25,0 C 71 % 1009,2 hPa 0,0 l/m 4,1 km/h (1 Bft) W 280 0 min 0,000 mm 2,9 UV-I 404 W/m 15,7 C 21,2 C 9,7 km/h (2 Bft) 92,00 %
27.06.2017 10:38 21,2 C 25,0 C 71 % 1009,2 hPa 0,0 l/m 3,8 km/h (1 Bft) SW 222 2 min 0,000 mm 3,0 UV-I 446 W/m 15,7 C 21,2 C 9,7 km/h (2 Bft) 92,68 %
27.06.2017 10:40 21,3 C 25,0 C 71 % 1009,2 hPa 0,0 l/m 3,0 km/h (1 Bft) W-SW 254 2 min 0,000 mm 3,3 UV-I 537 W/m 15,8 C 21,3 C 4,8 km/h (1 Bft) 90,91 %
27.06.2017 10:42 21,4 C 25,0 C 71 % 1009,2 hPa 0,0 l/m 1,7 km/h (1 Bft) W 277 2 min 0,000 mm 3,8 UV-I 627 W/m 15,9 C 21,4 C 4,8 km/h (1 Bft) 94,00 %
27.06.2017 10:44 21,6 C 25,0 C 70 % 1009,1 hPa 0,0 l/m 4,9 km/h (1 Bft) W-NW 288 2 min 0,000 mm 3,8 UV-I 625 W/m 15,9 C 21,6 C 8,0 km/h (2 Bft) 87,23 %
27.06.2017 10:46 21,6 C 25,6 C 70 % 1009,0 hPa 0,0 l/m 4,1 km/h (1 Bft) W-NW 294 2 min 0,000 mm 3,8 UV-I 604 W/m 15,9 C 21,6 C 8,0 km/h (2 Bft) 92,00 %
27.06.2017 10:48 21,8 C 25,6 C 71 % 1009,0 hPa 0,0 l/m 1,9 km/h (1 Bft) W 265 2 min 0,000 mm 4,0 UV-I 641 W/m 16,3 C 21,8 C 4,8 km/h (1 Bft) 90,24 %
27.06.2017 10:50 21,9 C 25,6 C 71 % 1008,9 hPa 0,0 l/m 1,4 km/h (1 Bft) W-NW 298 2 min 0,000 mm 4,1 UV-I 667 W/m 16,4 C 21,9 C 3,2 km/h (1 Bft) 94,34 %
27.06.2017 10:52 22,0 C 25,6 C 70 % 1008,9 hPa 0,0 l/m 3,3 km/h (1 Bft) N-NW 328 2 min 0,000 mm 4,3 UV-I 688 W/m 16,3 C 22,0 C 6,4 km/h (2 Bft) 90,00 %
27.06.2017 10:54 22,1 C 25,0 C 68 % 1008,8 hPa 0,0 l/m 3,7 km/h (1 Bft) NW 319 2 min 0,000 mm 4,5 UV-I 727 W/m 15,9 C 22,1 C 6,4 km/h (2 Bft) 96,00 %
27.06.2017 10:56 22,3 C 25,6 C 67 % 1008,8 hPa 0,0 l/m 3,7 km/h (1 Bft) NW 325 2 min 0,000 mm 4,7 UV-I 776 W/m 15,9 C 22,3 C 8,0 km/h (2 Bft) 97,44 %
27.06.2017 10:58 22,2 C 25,6 C 67 % 1008,8 hPa 0,0 l/m 4,1 km/h (1 Bft) W 277 2 min 0,000 mm 5,1 UV-I 853 W/m 15,8 C 22,2 C 6,4 km/h (2 Bft) 98,00 %
27.06.2017 11:00 22,0 C 25,6 C 68 % 1008,8 hPa 0,0 l/m 1,5 km/h (1 Bft) N-NW 348 2 min 0,305 mm 5,2 UV-I 844 W/m 15,8 C 22,0 C 4,8 km/h (1 Bft) 87,80 %
27.06.2017 11:02 22,2 C 25,6 C 69 % 1008,8 hPa 0,0 l/m 1,4 km/h (1 Bft) N-NW 329 2 min 0,000 mm 5,2 UV-I 841 W/m 16,2 C 22,2 C 3,2 km/h (1 Bft) 94,64 %
27.06.2017 11:04 22,5 C 25,6 C 69 % 1008,8 hPa 0,0 l/m 0,9 km/h (0 Bft) N-NW 329 2 min 0,000 mm 5,3 UV-I 867 W/m 16,5 C 22,5 C 3,2 km/h (1 Bft) 97,56 %
27.06.2017 11:06 22,7 C 25,6 C 65 % 1008,8 hPa 0,0 l/m 3,2 km/h (1 Bft) O-SO 123 2 min 0,000 mm 5,2 UV-I 846 W/m 15,8 C 22,7 C 6,4 km/h (2 Bft) 97,73 %
27.06.2017 11:08 22,7 C 25,6 C 65 % 1008,7 hPa 0,0 l/m 4,1 km/h (1 Bft) SO 128 2 min 0,000 mm 5,3 UV-I 835 W/m 15,8 C 22,7 C 9,7 km/h (2 Bft) 98,11 %
27.06.2017 11:10 22,7 C 25,6 C 66 % 1008,6 hPa 0,0 l/m 5,3 km/h (1 Bft) O-NO 57 2 min 0,000 mm 5,4 UV-I 870 W/m 16,0 C 22,7 C 8,0 km/h (2 Bft) 98,00 %
27.06.2017 11:12 22,6 C 25,6 C 65 % 1008,7 hPa 0,0 l/m 2,5 km/h (1 Bft) NO 53 2 min 0,000 mm 5,4 UV-I 849 W/m 15,7 C 22,6 C 6,4 km/h (2 Bft) 92,68 %
27.06.2017 11:14 22,6 C 25,6 C 67 % 1008,7 hPa 0,0 l/m 1,3 km/h (1 Bft) NO 53 2 min 0,000 mm 5,1 UV-I 781 W/m 16,2 C 22,6 C 3,2 km/h (1 Bft) 100,00 %
27.06.2017 11:16 22,8 C 25,6 C 66 % 1008,6 hPa 0,0 l/m 3,9 km/h (1 Bft) W 277 2 min 0,000 mm 4,9 UV-I 717 W/m 16,1 C 22,8 C 11,3 km/h (2 Bft) 100,00 %
27.06.2017 11:18 22,8 C 25,6 C 65 % 1008,6 hPa 0,0 l/m 4,6 km/h (1 Bft) S-SW 213 2 min 0,000 mm 4,8 UV-I 692 W/m 15,9 C 22,8 C 11,3 km/h (2 Bft) 90,77 %
27.06.2017 11:20 22,8 C 25,6 C 65 % 1008,5 hPa 0,0 l/m 3,4 km/h (1 Bft) W-NW 283 2 min 0,000 mm 5,1 UV-I 735 W/m 15,9 C 22,8 C 11,3 km/h (2 Bft) 97,56 %
27.06.2017 11:22 22,9 C 25,6 C 66 % 1008,5 hPa 0,0 l/m 5,9 km/h (2 Bft) W-SW 254 2 min 0,000 mm 5,2 UV-I 771 W/m 16,2 C 22,9 C 11,3 km/h (2 Bft) 100,00 %
27.06.2017 11:24 23,1 C 25,6 C 65 % 1008,5 hPa 0,0 l/m 5,6 km/h (1 Bft) W-SW 258 2 min 0,000 mm 5,3 UV-I 792 W/m 16,2 C 23,1 C 11,3 km/h (2 Bft) 86,79 %
27.06.2017 11:26 23,0 C 25,6 C 64 % 1008,5 hPa 0,0 l/m 6,8 km/h (2 Bft) W-SW 243 2 min 0,000 mm 5,4 UV-I 807 W/m 15,8 C 22,9 C 12,9 km/h (3 Bft) 97,87 %
27.06.2017 11:28 23,0 C 25,6 C 65 % 1008,5 hPa 0,0 l/m 6,8 km/h (2 Bft) W-NW 289 2 min 0,000 mm 5,4 UV-I 774 W/m 16,1 C 22,9 C 11,3 km/h (2 Bft) 97,87 %
27.06.2017 11:30 23,1 C 25,6 C 64 % 1008,4 hPa 0,0 l/m 4,6 km/h (1 Bft) NW 309 2 min 0,000 mm 5,3 UV-I 765 W/m 15,9 C 23,1 C 11,3 km/h (2 Bft) 98,00 %
27.06.2017 11:32 23,2 C 25,6 C 65 % 1008,4 hPa 0,0 l/m 3,8 km/h (1 Bft) S 179 2 min 0,000 mm 5,3 UV-I 748 W/m 16,2 C 23,2 C 8,0 km/h (2 Bft) 95,45 %
27.06.2017 11:34 23,2 C 25,6 C 65 % 1008,3 hPa 0,0 l/m 4,9 km/h (1 Bft) SO 142 2 min 0,000 mm 5,3 UV-I 748 W/m 16,2 C 23,2 C 8,0 km/h (2 Bft) 100,00 %
27.06.2017 11:36 23,3 C 25,6 C 65 % 1008,3 hPa 0,0 l/m 5,3 km/h (1 Bft) SO 130 2 min 0,000 mm 5,4 UV-I 738 W/m 16,3 C 23,3 C 9,7 km/h (2 Bft) 97,62 %
27.06.2017 11:38 23,6 C 25,6 C 64 % 1008,3 hPa 0,0 l/m 3,0 km/h (1 Bft) SO 129 2 min 0,000 mm 5,0 UV-I 712 W/m 16,4 C 23,6 C 4,8 km/h (1 Bft) 96,00 %
27.06.2017 11:40 23,6 C 25,6 C 64 % 1008,3 hPa 0,0 l/m 3,0 km/h (1 Bft) SO 129 2 min 0,000 mm 4,7 UV-I 619 W/m 16,4 C 23,6 C 4,8 km/h (1 Bft) 100,00 %
27.06.2017 11:42 23,8 C 25,6 C 65 % 1008,3 hPa 0,0 l/m 2,7 km/h (1 Bft) SO 124 2 min 0,000 mm 4,7 UV-I 589 W/m 16,8 C 23,8 C 4,8 km/h (1 Bft) 89,36 %
27.06.2017 11:44 24,1 C 25,6 C 64 % 1008,3 hPa 0,0 l/m 4,8 km/h (1 Bft) O 89 2 min 0,000 mm 5,1 UV-I 679 W/m 16,9 C 24,1 C 9,7 km/h (2 Bft) 100,00 %
27.06.2017 11:46 23,9 C 25,6 C 62 % 1008,2 hPa 0,0 l/m 4,3 km/h (1 Bft) O-NO 77 2 min 0,000 mm 4,8 UV-I 616 W/m 16,2 C 23,9 C 9,7 km/h (2 Bft) 97,37 %
27.06.2017 11:48 23,8 C 25,6 C 63 % 1008,1 hPa 0,0 l/m 0,4 km/h (0 Bft) O-NO 77 2 min 0,000 mm 5,0 UV-I 662 W/m 16,3 C 23,8 C 1,6 km/h (1 Bft) 98,00 %
27.06.2017 11:50 23,9 C 25,6 C 63 % 1008,1 hPa 0,0 l/m 1,3 km/h (1 Bft) N 9 2 min 0,000 mm 5,3 UV-I 755 W/m 16,4 C 23,9 C 4,8 km/h (1 Bft) 98,00 %
27.06.2017 11:52 24,1 C 25,6 C 62 % 1008,1 hPa 0,0 l/m 5,1 km/h (1 Bft) N-NO 29 2 min 0,000 mm 5,9 UV-I 699 W/m 16,4 C 24,1 C 16,1 km/h (3 Bft) 97,73 %
27.06.2017 11:54 24,5 C 25,6 C 63 % 1008,1 hPa 0,0 l/m 8,3 km/h (2 Bft) O 82 2 min 0,000 mm 5,9 UV-I 877 W/m 17,0 C 24,0 C 14,5 km/h (3 Bft) 100,00 %
27.06.2017 11:56 24,6 C 25,6 C 61 % 1008,1 hPa 0,0 l/m 8,6 km/h (2 Bft) O-NO 78 2 min 0,000 mm 6,1 UV-I 894 W/m 16,6 C 24,0 C 12,9 km/h (3 Bft) 97,37 %
27.06.2017 11:58 24,6 C 25,6 C 62 % 1008,1 hPa 0,0 l/m 4,3 km/h (1 Bft) N-NW 347 2 min 0,000 mm 6,1 UV-I 899 W/m 16,8 C 24,6 C 6,4 km/h (2 Bft) 98,21 %
27.06.2017 12:00 24,6 C 25,6 C 61 % 1008,1 hPa 0,0 l/m 1,6 km/h (1 Bft) N 349 2 min 0,483 mm 5,9 UV-I 870 W/m 16,6 C 24,6 C 3,2 km/h (1 Bft) 97,56 %
27.06.2017 12:02 24,4 C 25,6 C 62 % 1008,1 hPa 0,0 l/m 6,0 km/h (2 Bft) W-NW 303 2 min 0,000 mm 5,5 UV-I 802 W/m 16,6 C 24,4 C 16,1 km/h (3 Bft) 97,73 %
27.06.2017 12:04 24,4 C 25,6 C 62 % 1008,1 hPa 0,0 l/m 2,2 km/h (1 Bft) N 5 2 min 0,000 mm 5,6 UV-I 812 W/m 16,6 C 24,4 C 4,8 km/h (1 Bft) 96,00 %
27.06.2017 12:06 24,5 C 25,6 C 63 % 1008,1 hPa 0,0 l/m 2,9 km/h (1 Bft) NO 35 2 min 0,000 mm 5,8 UV-I 812 W/m 17,0 C 24,5 C 6,4 km/h (2 Bft) 100,00 %
27.06.2017 12:08 24,8 C 25,6 C 63 % 1008,0 hPa 0,0 l/m 4,8 km/h (1 Bft) N-NO 13 2 min 0,000 mm 5,8 UV-I 884 W/m 17,3 C 24,8 C 8,0 km/h (2 Bft) 100,00 %
27.06.2017 12:10 24,8 C 25,6 C 61 % 1008,0 hPa 0,0 l/m 3,6 km/h (1 Bft) O-NO 71 2 min 0,000 mm 5,3 UV-I 895 W/m 16,8 C 24,8 C 11,3 km/h (2 Bft) 100,00 %
27.06.2017 12:12 24,9 C 25,6 C 60 % 1008,0 hPa 0,0 l/m 2,8 km/h (1 Bft) N 5 2 min 0,000 mm 6,0 UV-I 895 W/m 16,6 C 24,9 C 6,4 km/h (2 Bft) 100,00 %
27.06.2017 12:14 24,8 C 25,6 C 60 % 1007,9 hPa 0,0 l/m 4,4 km/h (1 Bft) N-NO 32 2 min 0,000 mm 4,4 UV-I 895 W/m 16,5 C 24,8 C 9,7 km/h (2 Bft) 97,62 %
27.06.2017 12:16 24,8 C 25,6 C 61 % 1007,9 hPa 0,0 l/m 4,4 km/h (1 Bft) NO 47 0 min 0,000 mm 4,2 UV-I 478 W/m 16,8 C 24,8 C 8,0 km/h (2 Bft) 96,23 %
27.06.2017 12:18 24,8 C 25,6 C 61 % 1008,0 hPa 0,0 l/m 2,4 km/h (1 Bft) NO 44 2 min 0,000 mm 4,6 UV-I 510 W/m 16,8 C 24,8 C 4,8 km/h (1 Bft) 93,88 %
27.06.2017 12:20 24,9 C 25,6 C 61 % 1007,9 hPa 0,0 l/m 1,0 km/h (0 Bft) N-NO 31 2 min 0,000 mm 4,5 UV-I 592 W/m 16,8 C 24,9 C 3,2 km/h (1 Bft) 97,44 %
27.06.2017 12:22 24,8 C 25,6 C 61 % 1007,9 hPa 0,0 l/m 2,2 km/h (1 Bft) N-NO 33 2 min 0,000 mm 4,4 UV-I 534 W/m 16,8 C 24,8 C 6,4 km/h (2 Bft) 96,00 %
27.06.2017 12:24 24,7 C 25,6 C 61 % 1007,9 hPa 0,0 l/m 3,1 km/h (1 Bft) N-NO 33 2 min 0,000 mm 4,5 UV-I 541 W/m 16,7 C 24,7 C 4,8 km/h (1 Bft) 98,00 %
27.06.2017 12:26 24,7 C 25,6 C 63 % 1007,9 hPa 0,0 l/m 3,3 km/h (1 Bft) N 11 2 min 0,000 mm 4,7 UV-I 585 W/m 17,2 C 24,7 C 4,8 km/h (1 Bft) 98,00 %
27.06.2017 12:28 24,8 C 25,6 C 65 % 1007,8 hPa 0,0 l/m 2,9 km/h (1 Bft) N 5 2 min 0,000 mm 4,9 UV-I 552 W/m 17,8 C 24,8 C 8,0 km/h (2 Bft) 95,12 %
27.06.2017 12:30 24,9 C 25,6 C 61 % 1007,8 hPa 0,0 l/m 2,7 km/h (1 Bft) N-NW 345 2 min 0,000 mm 5,1 UV-I 585 W/m 16,8 C 24,9 C 6,4 km/h (2 Bft) 92,00 %
27.06.2017 12:32 24,9 C 25,6 C 62 % 1007,8 hPa 0,0 l/m 3,1 km/h (1 Bft) N-NO 20 2 min 0,000 mm 5,1 UV-I 587 W/m 17,1 C 24,9 C 6,4 km/h (2 Bft) 97,56 %
27.06.2017 12:34 24,8 C 25,6 C 61 % 1007,8 hPa 0,0 l/m 4,0 km/h (1 Bft) NO 38 2 min 0,000 mm 5,2 UV-I 648 W/m 16,8 C 24,8 C 9,7 km/h (2 Bft) 96,00 %
27.06.2017 12:36 24,8 C 25,6 C 63 % 1007,7 hPa 0,0 l/m 0,9 km/h (0 Bft) W-NW 288 2 min 0,000 mm 5,7 UV-I 818 W/m 17,3 C 24,8 C 3,2 km/h (1 Bft) 96,00 %
27.06.2017 12:38 24,9 C 25,6 C 60 % 1007,7 hPa 0,0 l/m 3,3 km/h (1 Bft) N-NW 343 2 min 0,000 mm 6,2 UV-I 892 W/m 16,6 C 24,9 C 6,4 km/h (2 Bft) 96,00 %
27.06.2017 12:40 24,8 C 25,6 C 60 % 1007,7 hPa 0,0 l/m 3,3 km/h (1 Bft) W-NW 296 2 min 0,000 mm 5,8 UV-I 912 W/m 16,5 C 24,8 C 9,7 km/h (2 Bft) 97,87 %
27.06.2017 12:42 25,0 C 25,6 C 62 % 1007,7 hPa 0,0 l/m 5,0 km/h (1 Bft) N-NW 339 2 min 0,000 mm 6,3 UV-I 895 W/m 17,2 C 25,0 C 9,7 km/h (2 Bft) 95,74 %
27.06.2017 12:44 25,1 C 25,6 C 61 % 1007,7 hPa 0,0 l/m 4,3 km/h (1 Bft) N-NW 336 2 min 0,000 mm 5,9 UV-I 797 W/m 17,0 C 25,1 C 8,0 km/h (2 Bft) 94,29 %
27.06.2017 12:46 25,3 C 25,6 C 60 % 1007,6 hPa 0,0 l/m 3,0 km/h (1 Bft) NO 40 2 min 0,000 mm 5,9 UV-I 840 W/m 17,0 C 25,3 C 8,0 km/h (2 Bft) 94,34 %
27.06.2017 12:48 25,3 C 25,6 C 61 % 1007,6 hPa 0,0 l/m 3,5 km/h (1 Bft) N 11 2 min 0,000 mm 6,3 UV-I 886 W/m 17,2 C 25,3 C 8,0 km/h (2 Bft) 97,56 %
27.06.2017 12:50 25,6 C 25,6 C 60 % 1007,5 hPa 0,0 l/m 3,3 km/h (1 Bft) N 9 2 min 0,000 mm 6,7 UV-I 986 W/m 17,2 C 25,6 C 6,4 km/h (2 Bft) 98,21 %
27.06.2017 12:52 25,6 C 25,6 C 58 % 1007,5 hPa 0,0 l/m 4,1 km/h (1 Bft) N-NW 340 2 min 0,000 mm 6,9 UV-I 997 W/m 16,7 C 25,6 C 6,4 km/h (2 Bft) 97,22 %
27.06.2017 12:54 25,4 C 25,6 C 60 % 1007,5 hPa 0,0 l/m 3,1 km/h (1 Bft) NW 317 2 min 0,000 mm 6,3 UV-I 1005 W/m 17,1 C 25,4 C 4,8 km/h (1 Bft) 96,23 %
27.06.2017 12:56 25,5 C 26,1 C 59 % 1007,4 hPa 0,0 l/m 3,1 km/h (1 Bft) N-NO 24 2 min 0,000 mm 6,1 UV-I 1005 W/m 16,9 C 25,5 C 11,3 km/h (2 Bft) 98,08 %
27.06.2017 12:58 25,6 C 25,6 C 60 % 1007,4 hPa 0,0 l/m 3,9 km/h (1 Bft) N-NW 336 2 min 0,000 mm 6,5 UV-I 1001 W/m 17,2 C 25,6 C 9,7 km/h (2 Bft) 97,62 %
27.06.2017 13:00 25,5 C 25,6 C 59 % 1007,4 hPa 0,0 l/m 5,4 km/h (1 Bft) NW 311 2 min 0,482 mm 6,5 UV-I 955 W/m 16,9 C 25,5 C 14,5 km/h (3 Bft) 100,00 %
27.06.2017 13:02 25,6 C 25,6 C 60 % 1007,4 hPa 0,0 l/m 2,9 km/h (1 Bft) N-NW 327 2 min 0,000 mm 6,1 UV-I 845 W/m 17,2 C 25,6 C 6,4 km/h (2 Bft) 94,74 %
27.06.2017 13:04 25,7 C 25,6 C 58 % 1007,4 hPa 0,0 l/m 4,7 km/h (1 Bft) NW 304 2 min 0,000 mm 4,2 UV-I 784 W/m 16,8 C 25,7 C 8,0 km/h (2 Bft) 100,00 %
27.06.2017 13:06 25,3 C 25,6 C 59 % 1007,3 hPa 0,0 l/m 3,7 km/h (1 Bft) N-NW 339 0 min 0,000 mm 3,7 UV-I 430 W/m 16,7 C 25,3 C 8,0 km/h (2 Bft) 100,00 %
27.06.2017 13:08 25,2 C 26,1 C 59 % 1007,3 hPa 0,0 l/m 1,2 km/h (1 Bft) NW 319 0 min 0,000 mm 4,9 UV-I 335 W/m 16,6 C 25,2 C 3,2 km/h (1 Bft) 95,74 %
27.06.2017 13:10 25,4 C 26,1 C 62 % 1007,3 hPa 0,0 l/m 4,4 km/h (1 Bft) N-NO 17 2 min 0,000 mm 6,6 UV-I 967 W/m 17,6 C 25,4 C 8,0 km/h (2 Bft) 98,11 %
27.06.2017 13:12 25,7 C 26,1 C 61 % 1007,2 hPa 0,0 l/m 4,3 km/h (1 Bft) N 11 2 min 0,000 mm 6,6 UV-I 951 W/m 17,6 C 25,7 C 11,3 km/h (2 Bft) 100,00 %
27.06.2017 13:14 26,2 C 26,1 C 62 % 1007,2 hPa 0,0 l/m 7,1 km/h (2 Bft) N-NO 33 2 min 0,000 mm 6,8 UV-I 984 W/m 18,3 C 26,1 C 12,9 km/h (3 Bft) 100,00 %
27.06.2017 13:16 26,5 C 26,1 C 57 % 1007,2 hPa 0,0 l/m 3,8 km/h (1 Bft) N-NO 15 2 min 0,000 mm 6,5 UV-I 953 W/m 17,3 C 26,5 C 6,4 km/h (2 Bft) 97,56 %
27.06.2017 13:18 26,4 C 26,1 C 58 % 1007,2 hPa 0,0 l/m 4,9 km/h (1 Bft) N-NO 13 2 min 0,000 mm 6,0 UV-I 823 W/m 17,5 C 26,4 C 8,0 km/h (2 Bft) 100,00 %
27.06.2017 13:20 26,3 C 26,1 C 59 % 1007,2 hPa 0,0 l/m 4,6 km/h (1 Bft) NO 42 2 min 0,000 mm 5,6 UV-I 697 W/m 17,6 C 26,3 C 9,7 km/h (2 Bft) 98,21 %
27.06.2017 13:22 26,4 C 26,1 C 61 % 1007,1 hPa 0,0 l/m 4,5 km/h (1 Bft) N 360 2 min 0,000 mm 6,1 UV-I 750 W/m 18,3 C 26,4 C 9,7 km/h (2 Bft) 97,87 %
27.06.2017 13:24 26,5 C 26,1 C 58 % 1007,1 hPa 0,0 l/m 3,6 km/h (1 Bft) N 9 2 min 0,000 mm 6,7 UV-I 960 W/m 17,5 C 26,5 C 8,0 km/h (2 Bft) 97,14 %
27.06.2017 13:26 26,7 C 26,1 C 57 % 1007,1 hPa 0,0 l/m 4,2 km/h (1 Bft) N 5 2 min 0,000 mm 6,5 UV-I 983 W/m 17,5 C 26,7 C 8,0 km/h (2 Bft) 100,00 %
27.06.2017 13:28 26,4 C 26,1 C 55 % 1007,1 hPa 0,0 l/m 4,8 km/h (1 Bft) N-NW 336 2 min 0,000 mm 5,6 UV-I 799 W/m 16,6 C 26,4 C 12,9 km/h (3 Bft) 100,00 %
27.06.2017 13:30 26,1 C 26,1 C 58 % 1007,1 hPa 0,0 l/m 3,3 km/h (1 Bft) NO 35 2 min 0,000 mm 4,9 UV-I 584 W/m 17,2 C 26,1 C 8,0 km/h (2 Bft) 100,00 %
27.06.2017 13:32 26,1 C 26,1 C 58 % 1007,0 hPa 0,0 l/m 2,3 km/h (1 Bft) NW 318 2 min 0,000 mm 5,4 UV-I 648 W/m 17,2 C 26,1 C 6,4 km/h (2 Bft) 98,00 %
27.06.2017 13:34 26,1 C 26,1 C 58 % 1007,0 hPa 0,0 l/m 6,4 km/h (2 Bft) NO 45 2 min 0,000 mm 5,3 UV-I 643 W/m 17,2 C 26,1 C 14,5 km/h (3 Bft) 96,30 %
27.06.2017 13:36 26,1 C 26,1 C 58 % 1007,1 hPa 0,0 l/m 7,4 km/h (2 Bft) N-NO 25 2 min 0,000 mm 4,4 UV-I 607 W/m 17,2 C 25,9 C 11,3 km/h (2 Bft) 100,00 %
27.06.2017 13:38 26,2 C 26,1 C 58 % 1007,1 hPa 0,0 l/m 3,4 km/h (1 Bft) N 355 0 min 0,000 mm 4,1 UV-I 483 W/m 17,3 C 26,2 C 6,4 km/h (2 Bft) 100,00 %
27.06.2017 13:40 26,2 C 26,1 C 58 % 1007,1 hPa 0,0 l/m 2,3 km/h (1 Bft) N 5 2 min 0,000 mm 4,6 UV-I 549 W/m 17,3 C 26,2 C 6,4 km/h (2 Bft) 100,00 %
27.06.2017 13:42 26,2 C 26,1 C 58 % 1007,1 hPa 0,0 l/m 9,0 km/h (2 Bft) N-NO 33 2 min 0,000 mm 4,7 UV-I 603 W/m 17,3 C 25,7 C 14,5 km/h (3 Bft) 98,00 %
27.06.2017 13:44 26,2 C 26,1 C 59 % 1007,1 hPa 0,0 l/m 6,3 km/h (2 Bft) N-NO 25 2 min 0,000 mm 4,5 UV-I 596 W/m 17,5 C 26,2 C 14,5 km/h (3 Bft) 97,56 %
27.06.2017 13:46 26,1 C 26,1 C 58 % 1007,1 hPa 0,0 l/m 2,7 km/h (1 Bft) NO 56 2 min 0,000 mm 4,3 UV-I 568 W/m 17,2 C 26,1 C 6,4 km/h (2 Bft) 92,45 %
27.06.2017 13:48 26,1 C 26,1 C 57 % 1007,0 hPa 0,0 l/m 1,5 km/h (1 Bft) N-NW 343 2 min 0,000 mm 4,2 UV-I 559 W/m 16,9 C 26,1 C 3,2 km/h (1 Bft) 92,68 %
27.06.2017 13:50 25,9 C 26,1 C 57 % 1007,0 hPa 0,0 l/m 1,8 km/h (1 Bft) NW 317 2 min 0,000 mm 4,1 UV-I 541 W/m 16,7 C 25,9 C 4,8 km/h (1 Bft) 97,73 %
27.06.2017 13:52 25,8 C 26,1 C 57 % 1007,0 hPa 0,0 l/m 2,4 km/h (1 Bft) N-NW 342 2 min 0,000 mm 4,3 UV-I 607 W/m 16,6 C 25,8 C 4,8 km/h (1 Bft) 96,00 %
27.06.2017 13:54 25,7 C 26,1 C 57 % 1007,0 hPa 0,0 l/m 3,5 km/h (1 Bft) N-NO 24 2 min 0,000 mm 4,8 UV-I 713 W/m 16,5 C 25,7 C 8,0 km/h (2 Bft) 97,87 %
27.06.2017 13:56 25,8 C 26,1 C 59 % 1006,9 hPa 0,0 l/m 2,5 km/h (1 Bft) W-NW 302 2 min 0,000 mm 4,8 UV-I 689 W/m 17,2 C 25,8 C 6,4 km/h (2 Bft) 95,45 %
27.06.2017 13:58 25,9 C 26,1 C 58 % 1006,9 hPa 0,0 l/m 3,6 km/h (1 Bft) N-NO 20 2 min 0,000 mm 5,0 UV-I 686 W/m 17,0 C 25,9 C 12,9 km/h (3 Bft) 94,00 %
27.06.2017 14:00 26,3 C 26,1 C 58 % 1006,9 hPa 0,0 l/m 6,6 km/h (2 Bft) N 9 2 min 0,000 mm 5,4 UV-I 735 W/m 17,4 C 26,3 C 16,1 km/h (3 Bft) 100,00 %
27.06.2017 14:03 26,5 C 26,1 C 57 % 1006,8 hPa 0,0 l/m 3,7 km/h (1 Bft) N 355 3 min 0,483 mm 5,5 UV-I 720 W/m 17,3 C 26,5 C 12,9 km/h (3 Bft) 96,81 %
27.06.2017 14:04 26,6 C 26,1 C 55 % 1006,8 hPa 0,0 l/m 2,9 km/h (1 Bft) W-NW 298 1 min 0,000 mm 5,5 UV-I 707 W/m 16,8 C 26,6 C 6,4 km/h (2 Bft) 92,31 %
27.06.2017 14:06 26,6 C 26,1 C 57 % 1006,8 hPa 0,0 l/m 4,7 km/h (1 Bft) N-NO 19 2 min 0,000 mm 5,6 UV-I 766 W/m 17,4 C 26,6 C 12,9 km/h (3 Bft) 95,74 %
27.06.2017 14:08 26,6 C 26,1 C 56 % 1006,8 hPa 0,0 l/m 4,1 km/h (1 Bft) N-NW 348 2 min 0,000 mm 6,8 UV-I 939 W/m 17,1 C 26,6 C 9,7 km/h (2 Bft) 94,74 %
27.06.2017 14:10 26,8 C 26,1 C 58 % 1006,7 hPa 0,0 l/m 9,1 km/h (2 Bft) N-NO 22 2 min 0,000 mm 6,2 UV-I 1023 W/m 17,8 C 26,3 C 16,1 km/h (3 Bft) 96,00 %
27.06.2017 14:12 26,9 C 26,1 C 56 % 1006,7 hPa 0,0 l/m 6,3 km/h (2 Bft) NO 47 2 min 0,000 mm 5,7 UV-I 932 W/m 17,4 C 26,9 C 14,5 km/h (3 Bft) 96,00 %
27.06.2017 14:14 26,9 C 26,1 C 54 % 1006,7 hPa 0,0 l/m 10,4 km/h (2 Bft) NO 56 2 min 0,000 mm 5,1 UV-I 809 W/m 16,8 C 26,2 C 19,3 km/h (3 Bft) 93,75 %
27.06.2017 14:16 26,8 C 26,1 C 54 % 1006,7 hPa 0,0 l/m 5,1 km/h (1 Bft) O-NO 57 2 min 0,000 mm 4,9 UV-I 732 W/m 16,7 C 26,8 C 8,0 km/h (2 Bft) 94,74 %
27.06.2017 14:18 26,6 C 26,1 C 58 % 1006,7 hPa 0,0 l/m 3,9 km/h (1 Bft) N 5 2 min 0,000 mm 4,8 UV-I 737 W/m 17,6 C 26,6 C 8,0 km/h (2 Bft) 94,00 %
27.06.2017 14:20 26,7 C 26,1 C 57 % 1006,6 hPa 0,0 l/m 2,5 km/h (1 Bft) NO 37 2 min 0,000 mm 5,2 UV-I 783 W/m 17,5 C 26,7 C 8,0 km/h (2 Bft) 91,49 %
27.06.2017 14:22 26,8 C 26,1 C 58 % 1006,6 hPa 0,0 l/m 9,0 km/h (2 Bft) NO 44 2 min 0,000 mm 4,6 UV-I 724 W/m 17,8 C 26,3 C 14,5 km/h (3 Bft) 95,74 %
27.06.2017 14:24 26,8 C 26,1 C 56 % 1006,6 hPa 0,0 l/m 7,4 km/h (2 Bft) N 9 2 min 0,000 mm 4,8 UV-I 652 W/m 17,3 C 26,6 C 16,1 km/h (3 Bft) 96,23 %
27.06.2017 14:26 26,8 C 26,1 C 55 % 1006,5 hPa 0,0 l/m 4,7 km/h (1 Bft) N-NW 342 2 min 0,000 mm 4,8 UV-I 644 W/m 17,0 C 26,8 C 14,5 km/h (3 Bft) 92,68 %
27.06.2017 14:28 26,6 C 26,1 C 55 % 1006,5 hPa 0,0 l/m 5,3 km/h (1 Bft) N 5 2 min 0,000 mm 4,6 UV-I 664 W/m 16,8 C 26,6 C 14,5 km/h (3 Bft) 90,00 %
27.06.2017 14:30 26,6 C 26,1 C 55 % 1006,5 hPa 0,0 l/m 3,4 km/h (1 Bft) N-NO 16 2 min 0,000 mm 4,3 UV-I 625 W/m 16,8 C 26,6 C 6,4 km/h (2 Bft) 96,00 %
27.06.2017 14:32 26,5 C 26,1 C 56 % 1006,5 hPa 0,0 l/m 6,7 km/h (2 Bft) NO 43 0 min 0,000 mm 3,6 UV-I 444 W/m 17,0 C 26,4 C 14,5 km/h (3 Bft) 95,12 %
27.06.2017 14:34 26,4 C 26,1 C 57 % 1006,4 hPa 0,0 l/m 7,3 km/h (2 Bft) N 355 2 min 0,000 mm 3,8 UV-I 494 W/m 17,2 C 26,2 C 12,9 km/h (3 Bft) 96,00 %
27.06.2017 14:36 26,4 C 26,1 C 57 % 1006,4 hPa 0,0 l/m 11,1 km/h (2 Bft) N-NO 17 2 min 0,000 mm 4,1 UV-I 592 W/m 17,2 C 25,5 C 17,7 km/h (3 Bft) 95,12 %
27.06.2017 14:38 26,6 C 26,1 C 57 % 1006,4 hPa 0,0 l/m 10,0 km/h (2 Bft) O-NO 61 2 min 0,000 mm 4,5 UV-I 693 W/m 17,4 C 25,9 C 17,7 km/h (3 Bft) 96,23 %
27.06.2017 14:40 26,7 C 26,1 C 57 % 1006,4 hPa 0,0 l/m 6,8 km/h (2 Bft) O-NO 62 2 min 0,000 mm 5,0 UV-I 733 W/m 17,5 C 26,6 C 11,3 km/h (2 Bft) 97,14 %
27.06.2017 14:42 26,9 C 26,1 C 55 % 1006,4 hPa 0,0 l/m 8,7 km/h (2 Bft) O-NO 60 2 min 0,000 mm 5,8 UV-I 977 W/m 17,1 C 26,5 C 12,9 km/h (3 Bft) 98,00 %
27.06.2017 14:44 27,1 C 26,1 C 56 % 1006,4 hPa 0,0 l/m 7,3 km/h (2 Bft) N-NO 32 2 min 0,000 mm 5,8 UV-I 978 W/m 17,5 C 26,9 C 16,1 km/h (3 Bft) 98,21 %
27.06.2017 14:46 27,4 C 26,1 C 58 % 1006,3 hPa 0,0 l/m 8,0 km/h (2 Bft) N-NO 16 2 min 0,000 mm 5,9 UV-I 977 W/m 18,4 C 27,1 C 17,7 km/h (3 Bft) 97,37 %
27.06.2017 14:48 27,5 C 26,1 C 55 % 1006,3 hPa 0,0 l/m 10,4 km/h (2 Bft) O 101 2 min 0,000 mm 5,9 UV-I 956 W/m 17,6 C 26,9 C 17,7 km/h (3 Bft) 96,43 %
27.06.2017 14:50 27,6 C 26,1 C 56 % 1006,3 hPa 0,0 l/m 9,4 km/h (2 Bft) NO 46 2 min 0,000 mm 5,7 UV-I 920 W/m 18,0 C 27,1 C 16,1 km/h (3 Bft) 100,00 %
27.06.2017 14:52 27,8 C 26,1 C 54 % 1006,3 hPa 0,0 l/m 7,9 km/h (2 Bft) NW 305 2 min 0,000 mm 5,7 UV-I 907 W/m 17,6 C 27,6 C 17,7 km/h (3 Bft) 100,00 %
27.06.2017 14:54 27,8 C 26,1 C 56 % 1006,3 hPa 0,0 l/m 5,5 km/h (1 Bft) N 5 2 min 0,000 mm 5,5 UV-I 880 W/m 18,2 C 27,8 C 16,1 km/h (3 Bft) 97,87 %
27.06.2017 14:56 27,8 C 26,1 C 57 % 1006,3 hPa 0,0 l/m 6,2 km/h (2 Bft) NO 51 2 min 0,000 mm 5,5 UV-I 869 W/m 18,5 C 27,8 C 14,5 km/h (3 Bft) 92,86 %
27.06.2017 14:58 27,9 C 26,1 C 55 % 1006,3 hPa 0,0 l/m 10,2 km/h (2 Bft) O-NO 64 2 min 0,000 mm 5,5 UV-I 882 W/m 18,0 C 27,3 C 16,1 km/h (3 Bft) 100,00 %
27.06.2017 15:00 27,9 C 26,1 C 55 % 1006,2 hPa 0,0 l/m 3,9 km/h (1 Bft) NW 306 2 min 0,559 mm 5,6 UV-I 898 W/m 18,0 C 27,9 C 8,0 km/h (2 Bft) 96,00 %
27.06.2017 15:02 27,7 C 26,1 C 55 % 1006,0 hPa 0,0 l/m 6,9 km/h (2 Bft) NO 35 2 min 0,000 mm 5,5 UV-I 898 W/m 17,8 C 27,6 C 12,9 km/h (3 Bft) 100,00 %
27.06.2017 15:04 27,7 C 26,1 C 57 % 1006,1 hPa 0,0 l/m 5,4 km/h (1 Bft) N-NW 340 2 min 0,000 mm 5,4 UV-I 861 W/m 18,4 C 27,7 C 16,1 km/h (3 Bft) 100,00 %
27.06.2017 15:06 27,4 C 26,1 C 57 % 1006,1 hPa 0,0 l/m 5,5 km/h (1 Bft) N 355 2 min 0,000 mm 5,0 UV-I 914 W/m 18,1 C 27,4 C 14,5 km/h (3 Bft) 97,87 %
27.06.2017 15:09 27,4 C 26,7 C 59 % 1006,1 hPa 0,0 l/m 4,7 km/h (1 Bft) N-NO 17 3 min 0,000 mm 5,1 UV-I 909 W/m 18,7 C 27,4 C 9,7 km/h (2 Bft) 98,00 %
27.06.2017 15:10 27,4 C 26,7 C 57 % 1006,1 hPa 0,0 l/m 3,1 km/h (1 Bft) N-NW 346 1 min 0,000 mm 5,3 UV-I 880 W/m 18,1 C 27,4 C 4,8 km/h (1 Bft) 95,12 %
27.06.2017 15:12 27,2 C 26,7 C 55 % 1006,0 hPa 0,0 l/m 3,9 km/h (1 Bft) NW 320 2 min 0,000 mm 5,3 UV-I 871 W/m 17,4 C 27,2 C 8,0 km/h (2 Bft) 96,23 %
27.06.2017 15:14 27,2 C 26,1 C 58 % 1006,0 hPa 0,0 l/m 4,6 km/h (1 Bft) W 265 2 min 0,000 mm 5,1 UV-I 846 W/m 18,2 C 27,2 C 9,7 km/h (2 Bft) 100,00 %
27.06.2017 15:16 27,2 C 26,1 C 58 % 1006,0 hPa 0,0 l/m 5,9 km/h (2 Bft) NW 326 2 min 0,000 mm 5,0 UV-I 797 W/m 18,2 C 27,2 C 12,9 km/h (3 Bft) 96,00 %
27.06.2017 15:18 27,2 C 26,7 C 57 % 1006,0 hPa 0,0 l/m 2,4 km/h (1 Bft) N-NO 24 2 min 0,000 mm 4,9 UV-I 796 W/m 17,9 C 27,2 C 4,8 km/h (1 Bft) 98,00 %
27.06.2017 15:20 27,3 C 26,1 C 57 % 1005,9 hPa 0,0 l/m 4,6 km/h (1 Bft) NW 325 2 min 0,000 mm 4,9 UV-I 809 W/m 18,0 C 27,3 C 11,3 km/h (2 Bft) 94,00 %
27.06.2017 15:22 27,3 C 26,7 C 57 % 1005,9 hPa 0,0 l/m 6,1 km/h (2 Bft) N 355 2 min 0,000 mm 4,9 UV-I 808 W/m 18,0 C 27,3 C 16,1 km/h (3 Bft) 93,75 %
27.06.2017 15:24 26,9 C 26,7 C 57 % 1005,9 hPa 0,0 l/m 6,0 km/h (2 Bft) W-NW 295 2 min 0,000 mm 4,9 UV-I 823 W/m 17,6 C 26,9 C 11,3 km/h (2 Bft) 98,00 %
27.06.2017 15:26 27,0 C 26,7 C 57 % 1005,9 hPa 0,0 l/m 5,1 km/h (1 Bft) N 355 2 min 0,000 mm 4,9 UV-I 834 W/m 17,7 C 27,0 C 9,7 km/h (2 Bft) 94,92 %
27.06.2017 15:28 27,2 C 26,7 C 56 % 1005,9 hPa 0,0 l/m 3,1 km/h (1 Bft) NW 316 2 min 0,000 mm 4,9 UV-I 848 W/m 17,6 C 27,2 C 6,4 km/h (2 Bft) 97,73 %
27.06.2017 15:30 27,1 C 26,7 C 56 % 1006,0 hPa 0,0 l/m 4,2 km/h (1 Bft) NW 308 2 min 0,000 mm 4,8 UV-I 845 W/m 17,5 C 27,1 C 8,0 km/h (2 Bft) 97,62 %
27.06.2017 15:32 26,9 C 26,7 C 56 % 1006,0 hPa 0,0 l/m 4,8 km/h (1 Bft) W-NW 289 2 min 0,000 mm 4,7 UV-I 826 W/m 17,4 C 26,9 C 8,0 km/h (2 Bft) 95,74 %
27.06.2017 15:34 26,7 C 26,7 C 55 % 1006,0 hPa 0,0 l/m 3,3 km/h (1 Bft) W 273 2 min 0,000 mm 4,5 UV-I 780 W/m 16,9 C 26,7 C 4,8 km/h (1 Bft) 96,00 %
27.06.2017 15:36 26,8 C 26,7 C 59 % 1006,1 hPa 0,0 l/m 3,9 km/h (1 Bft) O-NO 69 2 min 0,000 mm 3,9 UV-I 717 W/m 18,1 C 26,8 C 6,4 km/h (2 Bft) 98,00 %
27.06.2017 15:38 27,1 C 26,7 C 58 % 1006,0 hPa 0,0 l/m 4,3 km/h (1 Bft) N-NO 26 2 min 0,000 mm 3,9 UV-I 652 W/m 18,1 C 27,1 C 11,3 km/h (2 Bft) 97,56 %
27.06.2017 15:40 27,2 C 26,7 C 56 % 1006,0 hPa 0,0 l/m 2,2 km/h (1 Bft) NW 316 2 min 0,000 mm 3,4 UV-I 596 W/m 17,6 C 27,2 C 4,8 km/h (1 Bft) 92,00 %
27.06.2017 15:42 27,1 C 26,7 C 55 % 1006,0 hPa 0,0 l/m 3,0 km/h (1 Bft) N 5 0 min 0,000 mm 2,8 UV-I 411 W/m 17,3 C 27,1 C 8,0 km/h (2 Bft) 97,56 %
27.06.2017 15:44 26,9 C 26,7 C 54 % 1006,1 hPa 0,0 l/m 7,7 km/h (2 Bft) NO 53 0 min 0,000 mm 2,6 UV-I 364 W/m 16,8 C 26,7 C 14,5 km/h (3 Bft) 94,00 %
27.06.2017 15:46 26,8 C 26,7 C 55 % 1006,1 hPa 0,0 l/m 6,3 km/h (2 Bft) N-NO 23 0 min 0,000 mm 2,3 UV-I 304 W/m 17,0 C 26,8 C 12,9 km/h (3 Bft) 94,00 %
27.06.2017 15:48 26,7 C 26,7 C 57 % 1006,1 hPa 0,0 l/m 5,9 km/h (2 Bft) N-NO 22 0 min 0,000 mm 2,0 UV-I 238 W/m 17,5 C 26,7 C 8,0 km/h (2 Bft) 100,00 %
27.06.2017 15:50 26,4 C 26,7 C 57 % 1006,1 hPa 0,0 l/m 2,7 km/h (1 Bft) NO 45 0 min 0,000 mm 1,6 UV-I 203 W/m 17,2 C 26,4 C 6,4 km/h (2 Bft) 97,87 %
27.06.2017 15:52 26,3 C 26,7 C 56 % 1006,1 hPa 0,0 l/m 2,7 km/h (1 Bft) NO 45 0 min 0,000 mm 1,7 UV-I 193 W/m 16,8 C 26,3 C 4,8 km/h (1 Bft) 94,74 %
27.06.2017 15:54 26,1 C 26,7 C 57 % 1006,1 hPa 0,0 l/m 0,8 km/h (0 Bft) NO 40 0 min 0,000 mm 1,6 UV-I 194 W/m 16,9 C 26,1 C 1,6 km/h (1 Bft) 100,00 %
27.06.2017 15:56 25,9 C 26,7 C 56 % 1006,1 hPa 0,0 l/m 1,0 km/h (0 Bft) N 5 0 min 0,000 mm 1,5 UV-I 197 W/m 16,4 C 25,9 C 3,2 km/h (1 Bft) 92,68 %
27.06.2017 15:58 25,9 C 26,7 C 56 % 1006,0 hPa 0,0 l/m 0,1 km/h (0 Bft) N 5 0 min 0,000 mm 1,4 UV-I 196 W/m 16,4 C 25,9 C 1,6 km/h (1 Bft) 94,00 %
27.06.2017 16:00 25,8 C 26,7 C 57 % 1005,9 hPa 0,0 l/m 1,1 km/h (1 Bft) N 5 0 min 0,000 mm 1,3 UV-I 190 W/m 16,6 C 25,8 C 3,2 km/h (1 Bft) 94,00 %
27.06.2017 16:02 25,7 C 26,7 C 57 % 1005,8 hPa 0,0 l/m 0,5 km/h (0 Bft) N 5 0 min 0,431 mm 1,2 UV-I 180 W/m 16,5 C 25,7 C 1,6 km/h (1 Bft) 92,68 %
27.06.2017 16:04 25,7 C 26,7 C 59 % 1005,8 hPa 0,0 l/m 0,6 km/h (0 Bft) N 355 0 min 0,000 mm 1,1 UV-I 166 W/m 17,1 C 25,7 C 3,2 km/h (1 Bft) 95,74 %
27.06.2017 16:06 25,6 C 26,7 C 59 % 1005,8 hPa 0,0 l/m 0,8 km/h (0 Bft) N 355 0 min 0,000 mm 1,0 UV-I 154 W/m 17,0 C 25,6 C 3,2 km/h (1 Bft) 95,83 %
27.06.2017 16:08 25,6 C 26,7 C 60 % 1005,8 hPa 0,0 l/m 1,3 km/h (1 Bft) N 350 0 min 0,000 mm 0,9 UV-I 140 W/m 17,2 C 25,6 C 4,8 km/h (1 Bft) 98,08 %
27.06.2017 16:10 25,4 C 26,7 C 60 % 1005,8 hPa 0,0 l/m 0,1 km/h (0 Bft) N 350 0 min 0,000 mm 0,8 UV-I 129 W/m 17,1 C 25,4 C 1,6 km/h (1 Bft) 96,00 %
27.06.2017 16:12 25,4 C 26,7 C 59 % 1005,9 hPa 0,0 l/m 0,9 km/h (0 Bft) N 350 0 min 0,000 mm 0,6 UV-I 116 W/m 16,8 C 25,4 C 1,6 km/h (1 Bft) 97,62 %
27.06.2017 16:14 25,4 C 26,7 C 60 % 1006,0 hPa 0,0 l/m 0,7 km/h (0 Bft) N 350 0 min 0,000 mm 0,6 UV-I 106 W/m 17,1 C 25,4 C 3,2 km/h (1 Bft) 95,45 %
27.06.2017 16:16 25,4 C 26,7 C 57 % 1006,2 hPa 0,0 l/m 1,6 km/h (1 Bft) N-NW 337 0 min 0,000 mm 0,3 UV-I 89 W/m 16,2 C 25,4 C 4,8 km/h (1 Bft) 98,11 %
27.06.2017 16:18 25,4 C 26,7 C 57 % 1006,3 hPa 0,0 l/m 2,7 km/h (1 Bft) N-NW 335 0 min 0,000 mm 0,0 UV-I 67 W/m 16,2 C 25,4 C 4,8 km/h (1 Bft) 97,87 %
27.06.2017 16:20 25,5 C 26,7 C 57 % 1006,5 hPa 0,0 l/m 2,2 km/h (1 Bft) N-NW 335 0 min 0,000 mm 0,0 UV-I 49 W/m 16,3 C 25,5 C 3,2 km/h (1 Bft) 91,49 %
27.06.2017 16:22 25,5 C 26,7 C 57 % 1006,5 hPa 0,0 l/m 3,0 km/h (1 Bft) NW 325 0 min 0,000 mm 0,0 UV-I 42 W/m 16,3 C 25,5 C 4,8 km/h (1 Bft) 92,68 %
27.06.2017 16:24 25,6 C 26,7 C 57 % 1006,6 hPa 0,0 l/m 5,1 km/h (1 Bft) S-SW 211 0 min 0,000 mm 0,0 UV-I 37 W/m 16,4 C 25,6 C 6,4 km/h (2 Bft) 100,00 %
27.06.2017 16:26 25,6 C 26,7 C 57 % 1006,7 hPa 0,0 l/m 6,4 km/h (2 Bft) S-SW 205 0 min 0,000 mm 0,0 UV-I 33 W/m 16,4 C 25,6 C 8,0 km/h (2 Bft) 98,00 %
27.06.2017 16:28 25,6 C 26,7 C 57 % 1006,8 hPa 0,0 l/m 5,7 km/h (1 Bft) S-SW 205 0 min 0,000 mm 0,0 UV-I 33 W/m 16,4 C 25,6 C 8,0 km/h (2 Bft) 97,87 %
27.06.2017 16:30 25,5 C 26,7 C 57 % 1006,9 hPa 0,0 l/m 2,1 km/h (1 Bft) S-SW 194 0 min 0,000 mm 0,0 UV-I 30 W/m 16,3 C 25,5 C 4,8 km/h (1 Bft) 97,73 %
27.06.2017 16:32 25,4 C 26,7 C 59 % 1007,2 hPa 0,0 l/m 5,2 km/h (1 Bft) S-SO 167 0 min 0,000 mm 0,0 UV-I 26 W/m 16,8 C 25,4 C 9,7 km/h (2 Bft) 94,00 %
27.06.2017 16:34 25,4 C 26,7 C 59 % 1007,3 hPa 0,0 l/m 7,9 km/h (2 Bft) S 171 0 min 0,000 mm 0,0 UV-I 20 W/m 16,8 C 25,0 C 16,1 km/h (3 Bft) 100,00 %
27.06.2017 16:36 25,4 C 26,7 C 59 % 1007,5 hPa 0,0 l/m 9,9 km/h (2 Bft) SO 140 0 min 0,000 mm 0,0 UV-I 16 W/m 16,8 C 24,6 C 19,3 km/h (3 Bft) 97,56 %
27.06.2017 16:38 25,2 C 26,7 C 58 % 1007,7 hPa 0,0 l/m 18,7 km/h (3 Bft) SW 236 0 min 0,000 mm 0,0 UV-I 12 W/m 16,3 C 23,1 C 37,0 km/h (5 Bft) 96,23 %
27.06.2017 16:40 24,6 C 26,7 C 59 % 1007,8 hPa 0,0 l/m 21,7 km/h (4 Bft) SO 146 0 min 0,000 mm 0,0 UV-I 12 W/m 16,0 C 22,0 C 37,0 km/h (5 Bft) 92,11 %
27.06.2017 16:42 23,8 C 26,7 C 59 % 1008,0 hPa 0,0 l/m 15,2 km/h (3 Bft) SO 127 0 min 0,000 mm 0,0 UV-I 12 W/m 15,3 C 21,8 C 27,4 km/h (4 Bft) 100,00 %
27.06.2017 16:44 22,9 C 26,7 C 62 % 1007,8 hPa 0,0 l/m 12,5 km/h (3 Bft) S 173 0 min 0,000 mm 0,0 UV-I 12 W/m 15,2 C 21,3 C 24,1 km/h (4 Bft) 97,37 %
27.06.2017 16:46 22,2 C 26,7 C 67 % 1007,6 hPa 0,0 l/m 19,4 km/h (3 Bft) SO 143 0 min 0,000 mm 0,0 UV-I 12 W/m 15,8 C 19,1 C 37,0 km/h (5 Bft) 95,83 %
27.06.2017 16:48 21,4 C 26,7 C 69 % 1007,6 hPa 0,2 l/m 14,2 km/h (3 Bft) S-SO 155 0 min 0,000 mm 0,0 UV-I 13 W/m 15,5 C 19,1 C 24,1 km/h (4 Bft) 96,36 %
27.06.2017 16:50 20,8 C 26,1 C 70 % 1007,6 hPa 0,6 l/m 19,9 km/h (4 Bft) SO 144 0 min 0,000 mm 0,0 UV-I 14 W/m 15,1 C 17,3 C 30,6 km/h (5 Bft) 100,00 %
27.06.2017 16:52 20,3 C 26,1 C 72 % 1007,5 hPa 1,2 l/m 24,1 km/h (4 Bft) O-SO 114 0 min 0,000 mm 0,0 UV-I 16 W/m 15,1 C 15,9 C 35,4 km/h (5 Bft) 95,59 %
27.06.2017 16:54 20,0 C 26,1 C 75 % 1007,2 hPa 0,8 l/m 20,5 km/h (4 Bft) O 88 0 min 0,000 mm 0,0 UV-I 18 W/m 15,4 C 16,1 C 29,0 km/h (5 Bft) 97,56 %
27.06.2017 16:56 19,7 C 26,1 C 77 % 1007,0 hPa 0,8 l/m 19,1 km/h (3 Bft) O-NO 74 0 min 0,000 mm 0,0 UV-I 20 W/m 15,5 C 16,0 C 25,7 km/h (4 Bft) 100,00 %
27.06.2017 16:58 19,3 C 26,1 C 76 % 1006,8 hPa 1,2 l/m 17,3 km/h (3 Bft) O-NO 62 0 min 0,000 mm 0,0 UV-I 24 W/m 15,0 C 15,9 C 25,7 km/h (4 Bft) 95,45 %
27.06.2017 17:00 19,1 C 26,1 C 77 % 1006,5 hPa 0,4 l/m 9,7 km/h (2 Bft) N-NO 24 0 min 0,102 mm 0,0 UV-I 28 W/m 15,0 C 17,8 C 16,1 km/h (3 Bft) 100,00 %
27.06.2017 17:02 18,7 C 26,1 C 80 % 1006,2 hPa 0,2 l/m 7,5 km/h (2 Bft) NO 50 0 min 0,000 mm 0,0 UV-I 31 W/m 15,2 C 18,2 C 11,3 km/h (2 Bft) 95,12 %
27.06.2017 17:04 18,4 C 26,1 C 82 % 1006,1 hPa 0,0 l/m 8,4 km/h (2 Bft) NO 43 0 min 0,000 mm 0,0 UV-I 36 W/m 15,3 C 17,5 C 14,5 km/h (3 Bft) 100,00 %
27.06.2017 17:06 18,2 C 26,1 C 84 % 1006,0 hPa 0,2 l/m 8,0 km/h (2 Bft) NO 49 0 min 0,000 mm 0,0 UV-I 40 W/m 15,4 C 17,5 C 11,3 km/h (2 Bft) 96,23 %
27.06.2017 17:08 18,2 C 26,1 C 85 % 1005,8 hPa 0,0 l/m 7,9 km/h (2 Bft) O-NO 63 0 min 0,000 mm 0,0 UV-I 47 W/m 15,6 C 17,5 C 12,9 km/h (3 Bft) 100,00 %
27.06.2017 17:10 18,2 C 26,1 C 85 % 1005,7 hPa 0,0 l/m 8,4 km/h (2 Bft) O-NO 62 0 min 0,000 mm 0,0 UV-I 54 W/m 15,6 C 17,3 C 12,9 km/h (3 Bft) 98,57 %
27.06.2017 17:12 18,3 C 26,1 C 86 % 1005,6 hPa 0,0 l/m 7,3 km/h (2 Bft) O-NO 63 0 min 0,000 mm 0,0 UV-I 62 W/m 15,9 C 17,9 C 9,7 km/h (2 Bft) 97,56 %
27.06.2017 17:14 18,4 C 26,1 C 86 % 1005,6 hPa 0,0 l/m 5,0 km/h (1 Bft) O-NO 67 0 min 0,000 mm 0,0 UV-I 69 W/m 16,0 C 18,4 C 6,4 km/h (2 Bft) 98,00 %
27.06.2017 17:16 18,5 C 26,1 C 87 % 1005,5 hPa 0,0 l/m 3,9 km/h (1 Bft) O-NO 68 0 min 0,000 mm 0,0 UV-I 79 W/m 16,3 C 18,5 C 6,4 km/h (2 Bft) 97,87 %
27.06.2017 17:18 18,5 C 26,1 C 87 % 1005,5 hPa 0,0 l/m 1,7 km/h (1 Bft) O-NO 68 0 min 0,000 mm 0,0 UV-I 88 W/m 16,3 C 18,5 C 3,2 km/h (1 Bft) 96,00 %
27.06.2017 17:20 18,6 C 26,1 C 88 % 1005,4 hPa 0,0 l/m 1,3 km/h (1 Bft) O-NO 68 0 min 0,000 mm 0,0 UV-I 96 W/m 16,6 C 18,6 C 3,2 km/h (1 Bft) 91,49 %
27.06.2017 17:22 18,6 C 26,1 C 88 % 1005,5 hPa 0,0 l/m 1,3 km/h (1 Bft) O-NO 68 0 min 0,000 mm 0,0 UV-I 102 W/m 16,6 C 18,6 C 3,2 km/h (1 Bft) 92,68 %
27.06.2017 17:24 18,7 C 26,1 C 88 % 1005,4 hPa 0,0 l/m 4,0 km/h (1 Bft) O 82 0 min 0,000 mm 0,0 UV-I 107 W/m 16,7 C 18,7 C 4,8 km/h (1 Bft) 98,00 %
27.06.2017 17:26 18,8 C 26,1 C 88 % 1005,5 hPa 0,0 l/m 5,5 km/h (1 Bft) O-SO 105 0 min 0,000 mm 0,0 UV-I 111 W/m 16,8 C 18,8 C 6,4 km/h (2 Bft) 97,87 %
27.06.2017 17:28 18,9 C 26,1 C 88 % 1005,3 hPa 0,0 l/m 5,3 km/h (1 Bft) O-SO 120 0 min 0,000 mm 0,0 UV-I 114 W/m 16,9 C 18,9 C 9,7 km/h (2 Bft) 89,36 %
27.06.2017 17:30 18,9 C 26,1 C 89 % 1005,4 hPa 0,0 l/m 6,7 km/h (2 Bft) O-SO 112 0 min 0,000 mm 0,0 UV-I 118 W/m 17,0 C 18,8 C 11,3 km/h (2 Bft) 95,74 %
27.06.2017 17:32 18,9 C 26,1 C 89 % 1005,4 hPa 0,0 l/m 7,7 km/h (2 Bft) O-SO 121 0 min 0,000 mm 0,0 UV-I 120 W/m 17,0 C 18,3 C 11,3 km/h (2 Bft) 94,44 %
27.06.2017 17:34 19,0 C 26,1 C 90 % 1005,4 hPa 0,0 l/m 5,9 km/h (2 Bft) S-SO 156 0 min 0,000 mm 0,0 UV-I 121 W/m 17,3 C 19,0 C 11,3 km/h (2 Bft) 93,33 %
27.06.2017 17:36 18,9 C 26,1 C 88 % 1005,5 hPa 0,0 l/m 8,4 km/h (2 Bft) SO 142 0 min 0,000 mm 0,2 UV-I 122 W/m 16,9 C 18,0 C 14,5 km/h (3 Bft) 97,56 %
27.06.2017 17:38 18,8 C 26,1 C 88 % 1005,4 hPa 0,0 l/m 8,5 km/h (2 Bft) S-SO 153 0 min 0,000 mm 0,5 UV-I 124 W/m 16,8 C 17,9 C 14,5 km/h (3 Bft) 96,55 %
27.06.2017 17:40 18,8 C 26,1 C 89 % 1005,4 hPa 0,0 l/m 7,2 km/h (2 Bft) S-SO 165 0 min 0,000 mm 0,5 UV-I 129 W/m 16,9 C 18,4 C 14,5 km/h (3 Bft) 92,65 %
27.06.2017 17:42 18,7 C 26,1 C 89 % 1005,4 hPa 0,0 l/m 8,2 km/h (2 Bft) S-SO 164 0 min 0,000 mm 0,5 UV-I 136 W/m 16,8 C 17,9 C 12,9 km/h (3 Bft) 91,30 %
27.06.2017 17:44 18,7 C 26,1 C 89 % 1005,4 hPa 0,0 l/m 6,6 km/h (2 Bft) S 186 0 min 0,000 mm 0,5 UV-I 143 W/m 16,8 C 18,6 C 14,5 km/h (3 Bft) 98,39 %
27.06.2017 17:46 18,7 C 26,1 C 89 % 1005,4 hPa 0,0 l/m 5,6 km/h (1 Bft) S-SO 154 0 min 0,000 mm 0,6 UV-I 152 W/m 16,8 C 18,7 C 9,7 km/h (2 Bft) 98,21 %
27.06.2017 17:48 18,8 C 26,1 C 90 % 1005,3 hPa 0,0 l/m 5,2 km/h (1 Bft) S-SO 152 0 min 0,000 mm 0,6 UV-I 163 W/m 17,1 C 18,8 C 11,3 km/h (2 Bft) 94,74 %
27.06.2017 17:50 18,8 C 26,1 C 90 % 1005,3 hPa 0,0 l/m 5,5 km/h (1 Bft) S-SW 202 0 min 0,000 mm 0,6 UV-I 173 W/m 17,1 C 18,8 C 9,7 km/h (2 Bft) 92,45 %
27.06.2017 17:52 18,8 C 26,1 C 90 % 1005,3 hPa 0,0 l/m 7,9 km/h (2 Bft) S-SO 159 0 min 0,000 mm 0,7 UV-I 186 W/m 17,1 C 18,1 C 12,9 km/h (3 Bft) 92,68 %
27.06.2017 17:54 18,9 C 26,1 C 91 % 1005,2 hPa 0,0 l/m 6,8 km/h (2 Bft) S-SO 155 0 min 0,000 mm 0,7 UV-I 199 W/m 17,4 C 18,7 C 9,7 km/h (2 Bft) 94,64 %
27.06.2017 17:56 18,9 C 26,1 C 91 % 1005,2 hPa 0,0 l/m 6,2 km/h (2 Bft) SW 216 0 min 0,000 mm 0,8 UV-I 211 W/m 17,4 C 18,9 C 11,3 km/h (2 Bft) 90,24 %
27.06.2017 17:58 19,0 C 26,1 C 91 % 1005,2 hPa 0,0 l/m 6,7 km/h (2 Bft) S-SW 205 0 min 0,000 mm 0,8 UV-I 222 W/m 17,5 C 18,9 C 11,3 km/h (2 Bft) 91,49 %
27.06.2017 18:00 19,0 C 26,1 C 91 % 1005,2 hPa 0,0 l/m 4,8 km/h (1 Bft) S-SO 167 0 min 0,076 mm 0,8 UV-I 216 W/m 17,5 C 19,0 C 11,3 km/h (2 Bft) 90,57 %
27.06.2017 18:02 19,1 C 26,1 C 91 % 1005,1 hPa 0,0 l/m 7,7 km/h (2 Bft) S-SO 167 0 min 0,000 mm 0,8 UV-I 227 W/m 17,6 C 18,5 C 12,9 km/h (3 Bft) 89,47 %
27.06.2017 18:04 19,2 C 26,1 C 91 % 1005,1 hPa 0,0 l/m 6,5 km/h (2 Bft) S 190 2 min 0,000 mm 0,8 UV-I 258 W/m 17,7 C 19,2 C 12,9 km/h (3 Bft) 95,83 %
27.06.2017 18:06 19,3 C 26,1 C 91 % 1005,1 hPa 0,0 l/m 4,4 km/h (1 Bft) S 170 2 min 0,000 mm 0,9 UV-I 325 W/m 17,8 C 19,3 C 9,7 km/h (2 Bft) 94,23 %
27.06.2017 18:08 19,4 C 26,1 C 91 % 1005,0 hPa 0,0 l/m 7,3 km/h (2 Bft) S 174 2 min 0,000 mm 1,0 UV-I 409 W/m 17,9 C 19,0 C 11,3 km/h (2 Bft) 92,31 %
27.06.2017 18:10 19,5 C 26,1 C 90 % 1005,0 hPa 0,0 l/m 6,0 km/h (2 Bft) S 189 2 min 0,000 mm 1,1 UV-I 398 W/m 17,8 C 19,5 C 11,3 km/h (2 Bft) 93,10 %
27.06.2017 18:12 19,6 C 26,1 C 90 % 1005,0 hPa 0,0 l/m 6,6 km/h (2 Bft) S 184 2 min 0,000 mm 1,1 UV-I 395 W/m 17,9 C 19,5 C 11,3 km/h (2 Bft) 95,24 %
27.06.2017 18:14 19,8 C 26,1 C 90 % 1004,9 hPa 0,0 l/m 7,2 km/h (2 Bft) SW 229 2 min 0,000 mm 1,1 UV-I 389 W/m 18,1 C 19,5 C 12,9 km/h (3 Bft) 94,00 %
27.06.2017 18:16 20,1 C 26,1 C 89 % 1005,0 hPa 0,0 l/m 6,6 km/h (2 Bft) S-SW 201 2 min 0,000 mm 1,1 UV-I 423 W/m 18,2 C 20,0 C 12,9 km/h (3 Bft) 97,87 %
27.06.2017 18:18 20,2 C 26,1 C 89 % 1005,0 hPa 0,0 l/m 7,4 km/h (2 Bft) S-SW 204 2 min 0,000 mm 1,1 UV-I 437 W/m 18,3 C 19,8 C 12,9 km/h (3 Bft) 95,74 %
27.06.2017 18:20 20,4 C 26,1 C 88 % 1005,0 hPa 0,0 l/m 7,7 km/h (2 Bft) S-SW 200 2 min 0,000 mm 1,1 UV-I 428 W/m 18,3 C 19,9 C 12,9 km/h (3 Bft) 97,56 %
27.06.2017 18:23 20,5 C 26,1 C 85 % 1005,0 hPa 0,0 l/m 6,3 km/h (2 Bft) S-SO 165 3 min 0,000 mm 1,1 UV-I 426 W/m 17,9 C 20,5 C 14,5 km/h (3 Bft) 97,47 %
27.06.2017 18:24 20,6 C 26,1 C 85 % 1005,0 hPa 0,0 l/m 6,0 km/h (2 Bft) S-SO 166 1 min 0,000 mm 1,1 UV-I 441 W/m 18,0 C 20,6 C 12,9 km/h (3 Bft) 91,67 %
27.06.2017 18:26 20,7 C 26,1 C 85 % 1004,9 hPa 0,0 l/m 6,2 km/h (2 Bft) S-SW 198 2 min 0,000 mm 1,0 UV-I 442 W/m 18,1 C 20,7 C 9,7 km/h (2 Bft) 100,00 %
27.06.2017 18:28 20,8 C 26,1 C 85 % 1005,0 hPa 0,0 l/m 5,1 km/h (1 Bft) S-SW 192 2 min 0,000 mm 1,0 UV-I 433 W/m 18,2 C 20,8 C 9,7 km/h (2 Bft) 97,56 %
27.06.2017 18:30 21,0 C 26,1 C 85 % 1004,9 hPa 0,0 l/m 5,3 km/h (1 Bft) S 185 2 min 0,000 mm 1,0 UV-I 416 W/m 18,4 C 21,0 C 11,3 km/h (2 Bft) 97,87 %
27.06.2017 18:32 21,2 C 26,1 C 85 % 1004,9 hPa 0,0 l/m 6,8 km/h (2 Bft) S-SW 211 2 min 0,000 mm 1,0 UV-I 412 W/m 18,6 C 21,1 C 11,3 km/h (2 Bft) 93,62 %
27.06.2017 18:34 21,3 C 26,1 C 84 % 1004,8 hPa 0,0 l/m 5,3 km/h (1 Bft) S 186 2 min 0,000 mm 0,9 UV-I 394 W/m 18,5 C 21,3 C 9,7 km/h (2 Bft) 96,43 %
27.06.2017 18:36 21,4 C 26,1 C 85 % 1004,7 hPa 0,0 l/m 5,7 km/h (1 Bft) S 185 2 min 0,000 mm 0,9 UV-I 379 W/m 18,8 C 21,4 C 9,7 km/h (2 Bft) 94,29 %
27.06.2017 18:38 21,5 C 26,1 C 83 % 1004,7 hPa 0,0 l/m 2,0 km/h (1 Bft) S 190 2 min 0,000 mm 0,9 UV-I 348 W/m 18,5 C 21,5 C 6,4 km/h (2 Bft) 98,21 %
27.06.2017 18:40 21,5 C 26,1 C 82 % 1004,7 hPa 0,0 l/m 5,4 km/h (1 Bft) S-SO 161 2 min 0,000 mm 0,8 UV-I 310 W/m 18,3 C 21,5 C 9,7 km/h (2 Bft) 100,00 %
27.06.2017 18:42 21,4 C 26,1 C 82 % 1004,7 hPa 0,0 l/m 6,1 km/h (2 Bft) S-SO 162 2 min 0,000 mm 0,8 UV-I 270 W/m 18,2 C 21,4 C 11,3 km/h (2 Bft) 95,74 %
27.06.2017 18:44 21,4 C 26,1 C 82 % 1004,6 hPa 0,0 l/m 4,8 km/h (1 Bft) S 171 2 min 0,000 mm 0,8 UV-I 310 W/m 18,2 C 21,4 C 9,7 km/h (2 Bft) 100,00 %
27.06.2017 18:46 21,4 C 26,1 C 83 % 1004,6 hPa 0,0 l/m 4,4 km/h (1 Bft) S-SO 168 2 min 0,000 mm 0,8 UV-I 339 W/m 18,4 C 21,4 C 8,0 km/h (2 Bft) 100,00 %
27.06.2017 18:48 21,6 C 26,1 C 83 % 1004,6 hPa 0,0 l/m 3,2 km/h (1 Bft) S-SO 155 2 min 0,000 mm 0,8 UV-I 329 W/m 18,6 C 21,6 C 8,0 km/h (2 Bft) 98,18 %
27.06.2017 18:50 21,8 C 26,1 C 83 % 1004,6 hPa 0,0 l/m 2,7 km/h (1 Bft) S-SO 153 2 min 0,000 mm 0,7 UV-I 318 W/m 18,8 C 21,8 C 6,4 km/h (2 Bft) 100,00 %
27.06.2017 18:53 21,9 C 26,1 C 82 % 1004,5 hPa 0,0 l/m 4,3 km/h (1 Bft) S-SO 165 3 min 0,000 mm 0,7 UV-I 303 W/m 18,7 C 21,9 C 9,7 km/h (2 Bft) 97,37 %
27.06.2017 18:54 22,0 C 26,1 C 82 % 1004,5 hPa 0,0 l/m 2,1 km/h (1 Bft) S 186 1 min 0,000 mm 0,7 UV-I 293 W/m 18,8 C 22,0 C 3,2 km/h (1 Bft) 100,00 %
27.06.2017 18:56 22,1 C 26,1 C 82 % 1004,5 hPa 0,0 l/m 3,4 km/h (1 Bft) S-SO 161 2 min 0,000 mm 0,6 UV-I 283 W/m 18,9 C 22,1 C 6,4 km/h (2 Bft) 97,37 %
27.06.2017 18:58 22,2 C 26,1 C 81 % 1004,5 hPa 0,0 l/m 5,2 km/h (1 Bft) S-SO 163 2 min 0,000 mm 0,6 UV-I 272 W/m 18,8 C 22,2 C 8,0 km/h (2 Bft) 97,87 %
27.06.2017 19:00 22,1 C 26,1 C 80 % 1004,5 hPa 0,0 l/m 2,9 km/h (1 Bft) S-SO 155 2 min 0,000 mm 0,6 UV-I 260 W/m 18,5 C 22,1 C 6,4 km/h (2 Bft) 100,00 %
27.06.2017 19:02 22,2 C 26,1 C 82 % 1004,5 hPa 0,0 l/m 1,6 km/h (1 Bft) SO 132 2 min 0,229 mm 0,5 UV-I 250 W/m 19,0 C 22,2 C 6,4 km/h (2 Bft) 98,00 %
27.06.2017 19:04 22,3 C 26,1 C 82 % 1004,5 hPa 0,0 l/m 3,0 km/h (1 Bft) S 169 2 min 0,000 mm 0,5 UV-I 239 W/m 19,1 C 22,3 C 6,4 km/h (2 Bft) 97,87 %
27.06.2017 19:06 22,3 C 26,1 C 81 % 1004,5 hPa 0,0 l/m 3,5 km/h (1 Bft) S 179 2 min 0,000 mm 0,5 UV-I 230 W/m 18,9 C 22,3 C 8,0 km/h (2 Bft) 100,00 %
27.06.2017 19:08 22,4 C 26,1 C 82 % 1004,5 hPa 0,0 l/m 2,5 km/h (1 Bft) S-SO 148 2 min 0,000 mm 0,5 UV-I 222 W/m 19,2 C 22,4 C 6,4 km/h (2 Bft) 98,00 %
27.06.2017 19:10 22,4 C 26,1 C 80 % 1004,5 hPa 0,0 l/m 5,4 km/h (1 Bft) SO 144 2 min 0,000 mm 0,3 UV-I 214 W/m 18,8 C 22,4 C 11,3 km/h (2 Bft) 100,00 %
27.06.2017 19:13 22,3 C 26,1 C 81 % 1004,5 hPa 0,0 l/m 3,6 km/h (1 Bft) S-SO 150 3 min 0,000 mm 0,0 UV-I 205 W/m 18,9 C 22,3 C 8,0 km/h (2 Bft) 97,06 %
27.06.2017 19:14 22,3 C 26,1 C 81 % 1004,5 hPa 0,0 l/m 5,4 km/h (1 Bft) SO 142 1 min 0,000 mm 0,0 UV-I 198 W/m 18,9 C 22,3 C 12,9 km/h (3 Bft) 100,00 %
27.06.2017 19:15 22,3 C 26,1 C 81 % 1004,5 hPa 0,0 l/m 3,2 km/h (1 Bft) SO 135 1 min 0,000 mm 0,0 UV-I 201 W/m 18,9 C 22,3 C 12,9 km/h (3 Bft) 98,25 %
27.06.2017 19:18 22,3 C 26,1 C 80 % 1004,5 hPa 0,0 l/m 6,8 km/h (2 Bft) SO 139 3 min 0,000 mm 0,0 UV-I 186 W/m 18,7 C 22,2 C 9,7 km/h (2 Bft) 97,37 %
27.06.2017 19:20 22,3 C 26,1 C 80 % 1004,5 hPa 0,0 l/m 6,7 km/h (2 Bft) SO 146 2 min 0,000 mm 0,0 UV-I 181 W/m 18,7 C 22,2 C 11,3 km/h (2 Bft) 100,00 %
27.06.2017 19:22 22,3 C 26,1 C 82 % 1004,5 hPa 0,0 l/m 4,6 km/h (1 Bft) S-SO 153 2 min 0,000 mm 0,0 UV-I 174 W/m 19,1 C 22,3 C 8,0 km/h (2 Bft) 100,00 %
27.06.2017 19:24 22,3 C 26,1 C 81 % 1004,5 hPa 0,0 l/m 4,2 km/h (1 Bft) S-SO 148 2 min 0,000 mm 0,0 UV-I 168 W/m 18,9 C 22,3 C 11,3 km/h (2 Bft) 98,00 %
27.06.2017 19:26 22,2 C 26,1 C 81 % 1004,5 hPa 0,0 l/m 3,1 km/h (1 Bft) S-SO 166 2 min 0,000 mm 0,0 UV-I 162 W/m 18,8 C 22,2 C 8,0 km/h (2 Bft) 100,00 %
27.06.2017 19:28 22,1 C 26,1 C 81 % 1004,6 hPa 0,0 l/m 2,5 km/h (1 Bft) S-SO 163 2 min 0,000 mm 0,0 UV-I 156 W/m 18,7 C 22,1 C 6,4 km/h (2 Bft) 100,00 %
27.06.2017 19:30 22,1 C 26,1 C 82 % 1004,6 hPa 0,0 l/m 1,5 km/h (1 Bft) S-SO 163 2 min 0,000 mm 0,0 UV-I 151 W/m 18,9 C 22,1 C 3,2 km/h (1 Bft) 97,14 %
27.06.2017 19:32 22,1 C 26,1 C 82 % 1004,6 hPa 0,0 l/m 1,4 km/h (1 Bft) S-SO 163 2 min 0,000 mm 0,0 UV-I 146 W/m 18,9 C 22,1 C 6,4 km/h (2 Bft) 98,11 %
27.06.2017 19:34 22,1 C 26,1 C 82 % 1004,7 hPa 0,0 l/m 2,1 km/h (1 Bft) S-SO 163 2 min 0,000 mm 0,0 UV-I 140 W/m 18,9 C 22,1 C 6,4 km/h (2 Bft) 100,00 %
27.06.2017 19:36 22,2 C 26,1 C 82 % 1004,7 hPa 0,0 l/m 3,3 km/h (1 Bft) S-SO 163 2 min 0,000 mm 0,0 UV-I 135 W/m 19,0 C 22,2 C 6,4 km/h (2 Bft) 97,62 %
27.06.2017 19:38 22,2 C 26,1 C 81 % 1004,7 hPa 0,0 l/m 3,5 km/h (1 Bft) SO 144 2 min 0,000 mm 0,0 UV-I 130 W/m 18,8 C 22,2 C 6,4 km/h (2 Bft) 98,08 %
27.06.2017 19:40 22,1 C 26,1 C 82 % 1004,6 hPa 0,0 l/m 3,5 km/h (1 Bft) SO 144 2 min 0,000 mm 0,0 UV-I 126 W/m 18,9 C 22,1 C 4,8 km/h (1 Bft) 97,44 %
27.06.2017 19:42 22,1 C 26,1 C 81 % 1004,6 hPa 0,0 l/m 5,0 km/h (1 Bft) SO 136 2 min 0,000 mm 0,0 UV-I 122 W/m 18,7 C 22,1 C 6,4 km/h (2 Bft) 100,00 %
27.06.2017 19:44 22,1 C 26,1 C 81 % 1004,6 hPa 0,0 l/m 3,3 km/h (1 Bft) S-SO 148 2 min 0,000 mm 0,0 UV-I 118 W/m 18,7 C 22,1 C 4,8 km/h (1 Bft) 95,74 %
27.06.2017 19:46 22,1 C 26,1 C 82 % 1004,6 hPa 0,0 l/m 4,4 km/h (1 Bft) SO 128 2 min 0,000 mm 0,0 UV-I 114 W/m 18,9 C 22,1 C 6,4 km/h (2 Bft) 98,00 %
27.06.2017 19:48 22,1 C 26,1 C 83 % 1004,7 hPa 0,0 l/m 4,8 km/h (1 Bft) O-SO 113 2 min 0,000 mm 0,0 UV-I 111 W/m 19,1 C 22,1 C 6,4 km/h (2 Bft) 94,00 %
27.06.2017 19:50 22,0 C 26,1 C 83 % 1004,6 hPa 0,0 l/m 4,6 km/h (1 Bft) O-SO 109 2 min 0,000 mm 0,0 UV-I 107 W/m 19,0 C 22,0 C 6,4 km/h (2 Bft) 97,37 %
27.06.2017 19:52 22,0 C 26,1 C 82 % 1004,6 hPa 0,0 l/m 4,7 km/h (1 Bft) O-SO 109 2 min 0,000 mm 0,0 UV-I 103 W/m 18,8 C 22,0 C 6,4 km/h (2 Bft) 96,00 %
27.06.2017 19:54 21,9 C 26,1 C 81 % 1004,6 hPa 0,0 l/m 5,1 km/h (1 Bft) O-SO 111 2 min 0,000 mm 0,0 UV-I 100 W/m 18,5 C 21,9 C 9,7 km/h (2 Bft) 94,34 %
27.06.2017 19:56 21,9 C 26,1 C 81 % 1004,7 hPa 0,0 l/m 3,9 km/h (1 Bft) O-SO 111 2 min 0,000 mm 0,0 UV-I 98 W/m 18,5 C 21,9 C 6,4 km/h (2 Bft) 97,37 %
27.06.2017 19:58 21,9 C 26,1 C 82 % 1004,7 hPa 0,0 l/m 2,6 km/h (1 Bft) O-SO 111 2 min 0,000 mm 0,0 UV-I 94 W/m 18,7 C 21,9 C 4,8 km/h (1 Bft) 97,87 %
27.06.2017 20:00 22,0 C 26,1 C 82 % 1004,7 hPa 0,0 l/m 2,1 km/h (1 Bft) O-SO 111 2 min 0,101 mm 0,0 UV-I 90 W/m 18,8 C 22,0 C 3,2 km/h (1 Bft) 96,43 %
27.06.2017 20:02 22,0 C 26,1 C 82 % 1004,7 hPa 0,0 l/m 2,5 km/h (1 Bft) O-SO 111 2 min 0,000 mm 0,0 UV-I 88 W/m 18,8 C 22,0 C 3,2 km/h (1 Bft) 97,56 %
27.06.2017 20:04 22,1 C 26,1 C 82 % 1004,6 hPa 0,0 l/m 4,0 km/h (1 Bft) O-NO 68 2 min 0,000 mm 0,0 UV-I 84 W/m 18,9 C 22,1 C 6,4 km/h (2 Bft) 95,12 %
27.06.2017 20:06 22,0 C 26,1 C 82 % 1004,6 hPa 0,0 l/m 4,6 km/h (1 Bft) O-NO 69 2 min 0,000 mm 0,0 UV-I 79 W/m 18,8 C 22,0 C 6,4 km/h (2 Bft) 94,00 %
27.06.2017 20:08 21,9 C 26,1 C 82 % 1004,6 hPa 0,0 l/m 5,5 km/h (1 Bft) O-NO 72 2 min 0,000 mm 0,0 UV-I 76 W/m 18,7 C 21,9 C 6,4 km/h (2 Bft) 92,45 %
27.06.2017 20:10 21,8 C 26,1 C 83 % 1004,6 hPa 0,0 l/m 5,2 km/h (1 Bft) O 86 2 min 0,000 mm 0,0 UV-I 71 W/m 18,8 C 21,8 C 8,0 km/h (2 Bft) 95,12 %
27.06.2017 20:12 21,8 C 26,1 C 83 % 1004,6 hPa 0,0 l/m 4,7 km/h (1 Bft) O-SO 107 2 min 0,000 mm 0,0 UV-I 66 W/m 18,8 C 21,8 C 9,7 km/h (2 Bft) 98,11 %
27.06.2017 20:14 21,7 C 26,1 C 82 % 1004,6 hPa 0,0 l/m 5,7 km/h (1 Bft) O-NO 70 0 min 0,000 mm 0,0 UV-I 52 W/m 18,5 C 21,7 C 8,0 km/h (2 Bft) 97,87 %
27.06.2017 20:16 21,6 C 26,1 C 82 % 1004,5 hPa 0,0 l/m 4,0 km/h (1 Bft) O 79 0 min 0,000 mm 0,0 UV-I 52 W/m 18,4 C 21,6 C 6,4 km/h (2 Bft) 95,24 %
27.06.2017 20:18 21,5 C 26,1 C 83 % 1004,4 hPa 0,0 l/m 4,1 km/h (1 Bft) O 79 0 min 0,000 mm 0,0 UV-I 53 W/m 18,5 C 21,5 C 6,4 km/h (2 Bft) 97,87 %
27.06.2017 20:20 21,4 C 26,1 C 82 % 1004,4 hPa 0,0 l/m 4,1 km/h (1 Bft) O 79 0 min 0,000 mm 0,0 UV-I 39 W/m 18,2 C 21,4 C 6,4 km/h (2 Bft) 98,00 %
27.06.2017 20:22 21,3 C 26,1 C 82 % 1004,4 hPa 0,0 l/m 3,0 km/h (1 Bft) O 79 0 min 0,000 mm 0,0 UV-I 27 W/m 18,1 C 21,3 C 4,8 km/h (1 Bft) 98,00 %
27.06.2017 20:24 21,2 C 26,1 C 82 % 1004,4 hPa 0,0 l/m 3,3 km/h (1 Bft) O 79 0 min 0,000 mm 0,0 UV-I 27 W/m 18,0 C 21,2 C 4,8 km/h (1 Bft) 97,87 %
27.06.2017 20:26 21,1 C 26,1 C 84 % 1004,4 hPa 0,0 l/m 3,4 km/h (1 Bft) O 79 0 min 0,000 mm 0,0 UV-I 32 W/m 18,3 C 21,1 C 4,8 km/h (1 Bft) 94,74 %
27.06.2017 20:28 21,0 C 26,1 C 84 % 1004,3 hPa 0,0 l/m 3,5 km/h (1 Bft) O 79 0 min 0,000 mm 0,0 UV-I 28 W/m 18,2 C 21,0 C 4,8 km/h (1 Bft) 98,11 %
27.06.2017 20:30 20,8 C 26,1 C 85 % 1004,3 hPa 0,0 l/m 3,4 km/h (1 Bft) O 79 0 min 0,000 mm 0,0 UV-I 24 W/m 18,2 C 20,8 C 4,8 km/h (1 Bft) 100,00 %
27.06.2017 20:32 20,7 C 26,1 C 86 % 1004,4 hPa 0,0 l/m 4,3 km/h (1 Bft) O 79 0 min 0,000 mm 0,0 UV-I 19 W/m 18,3 C 20,7 C 4,8 km/h (1 Bft) 100,00 %
27.06.2017 20:34 20,5 C 26,1 C 87 % 1004,4 hPa 0,0 l/m 2,8 km/h (1 Bft) O 79 0 min 0,000 mm 0,0 UV-I 19 W/m 18,3 C 20,5 C 3,2 km/h (1 Bft) 97,14 %
27.06.2017 20:36 20,4 C 26,1 C 87 % 1004,5 hPa 0,0 l/m 1,4 km/h (1 Bft) O 79 0 min 0,000 mm 0,0 UV-I 17 W/m 18,2 C 20,4 C 3,2 km/h (1 Bft) 98,21 %
27.06.2017 20:38 20,3 C 26,1 C 87 % 1004,5 hPa 0,0 l/m 0,2 km/h (0 Bft) O 79 0 min 0,000 mm 0,0 UV-I 14 W/m 18,1 C 20,3 C 1,6 km/h (1 Bft) 100,00 %
27.06.2017 20:40 20,3 C 26,1 C 88 % 1004,5 hPa 0,0 l/m 0,2 km/h (0 Bft) O 79 0 min 0,000 mm 0,0 UV-I 14 W/m 18,2 C 20,3 C 1,6 km/h (1 Bft) 100,00 %
27.06.2017 20:42 20,3 C 26,1 C 88 % 1004,4 hPa 0,0 l/m 3,0 km/h (1 Bft) O-SO 117 0 min 0,000 mm 0,0 UV-I 12 W/m 18,2 C 20,3 C 6,4 km/h (2 Bft) 95,74 %
27.06.2017 20:44 20,2 C 26,1 C 88 % 1004,4 hPa 0,0 l/m 0,8 km/h (0 Bft) O-SO 117 0 min 0,000 mm 0,0 UV-I 12 W/m 18,1 C 20,2 C 3,2 km/h (1 Bft) 94,00 %
27.06.2017 20:46 20,2 C 26,1 C 88 % 1004,5 hPa 0,0 l/m 0,4 km/h (0 Bft) O-SO 117 0 min 0,000 mm 0,0 UV-I 11 W/m 18,1 C 20,2 C 1,6 km/h (1 Bft) 100,00 %
27.06.2017 20:48 20,2 C 26,1 C 88 % 1004,5 hPa 0,0 l/m 0,2 km/h (0 Bft) O-SO 117 0 min 0,000 mm 0,0 UV-I 11 W/m 18,1 C 20,2 C 1,6 km/h (1 Bft) 97,44 %
27.06.2017 20:50 20,2 C 26,1 C 89 % 1004,5 hPa 0,0 l/m 0,0 km/h (0 Bft) O-SO 117 0 min 0,000 mm 0,0 UV-I 11 W/m 18,3 C 20,2 C 0,0 km/h (0 Bft) 98,18 %
27.06.2017 20:52 20,1 C 26,1 C 89 % 1004,5 hPa 0,0 l/m 0,1 km/h (0 Bft) O-SO 117 0 min 0,000 mm 0,0 UV-I 11 W/m 18,2 C 20,1 C 1,6 km/h (1 Bft) 97,87 %
27.06.2017 20:54 20,0 C 26,1 C 90 % 1004,5 hPa 0,0 l/m 0,3 km/h (0 Bft) O-SO 117 0 min 0,000 mm 0,0 UV-I 9 W/m 18,3 C 20,0 C 1,6 km/h (1 Bft) 100,00 %
27.06.2017 20:56 19,9 C 26,1 C 90 % 1004,6 hPa 0,0 l/m 2,1 km/h (1 Bft) O-SO 117 0 min 0,000 mm 0,0 UV-I 9 W/m 18,2 C 19,9 C 3,2 km/h (1 Bft) 97,92 %
27.06.2017 20:58 19,9 C 26,1 C 90 % 1004,5 hPa 0,0 l/m 2,1 km/h (1 Bft) O-SO 117 0 min 0,000 mm 0,0 UV-I 9 W/m 18,2 C 19,9 C 3,2 km/h (1 Bft) 100,00 %
27.06.2017 21:00 19,9 C 26,1 C 91 % 1004,5 hPa 0,0 l/m 1,0 km/h (0 Bft) O-SO 117 0 min 0,000 mm 0,0 UV-I 8 W/m 18,4 C 19,9 C 3,2 km/h (1 Bft) 98,00 %
27.06.2017 21:02 19,8 C 26,1 C 91 % 1004,4 hPa 0,0 l/m 0,2 km/h (0 Bft) O-SO 117 0 min 0,026 mm 0,0 UV-I 7 W/m 18,3 C 19,8 C 1,6 km/h (1 Bft) 96,00 %
27.06.2017 21:04 19,7 C 26,1 C 90 % 1004,4 hPa 0,0 l/m 0,0 km/h (0 Bft) O-SO 117 0 min 0,000 mm 0,0 UV-I 7 W/m 18,0 C 19,7 C 0,0 km/h (0 Bft) 94,74 %
27.06.2017 21:06 19,6 C 26,1 C 90 % 1004,4 hPa 0,0 l/m 0,0 km/h (0 Bft) O-SO 117 0 min 0,000 mm 0,0 UV-I 7 W/m 17,9 C 19,6 C 0,0 km/h (0 Bft) 96,00 %
27.06.2017 21:08 19,6 C 26,1 C 91 % 1004,4 hPa 0,0 l/m 0,0 km/h (0 Bft) O-SO 117 0 min 0,000 mm 0,0 UV-I 7 W/m 18,1 C 19,6 C 0,0 km/h (0 Bft) 98,00 %
27.06.2017 21:10 19,5 C 26,1 C 91 % 1004,4 hPa 0,0 l/m 0,0 km/h (0 Bft) O-SO 117 0 min 0,000 mm 0,0 UV-I 7 W/m 18,0 C 19,5 C 0,0 km/h (0 Bft) 96,00 %
27.06.2017 21:12 19,5 C 26,1 C 91 % 1004,4 hPa 0,0 l/m 0,0 km/h (0 Bft) O-SO 117 0 min 0,000 mm 0,0 UV-I 6 W/m 18,0 C 19,5 C 0,0 km/h (0 Bft) 97,56 %
27.06.2017 21:14 19,4 C 26,1 C 91 % 1004,4 hPa 0,0 l/m 0,0 km/h (0 Bft) O-SO 117 0 min 0,000 mm 0,0 UV-I 5 W/m 17,9 C 19,4 C 0,0 km/h (0 Bft) 98,00 %
27.06.2017 21:16 19,4 C 26,1 C 91 % 1004,4 hPa 0,0 l/m 0,0 km/h (0 Bft) O-SO 117 0 min 0,000 mm 0,0 UV-I 5 W/m 17,9 C 19,4 C 0,0 km/h (0 Bft) 97,56 %
27.06.2017 21:18 19,4 C 26,1 C 91 % 1004,4 hPa 0,0 l/m 0,0 km/h (0 Bft) O-SO 117 0 min 0,000 mm 0,0 UV-I 5 W/m 17,9 C 19,4 C 0,0 km/h (0 Bft) 100,00 %
27.06.2017 21:20 19,3 C 26,1 C 91 % 1004,4 hPa 0,0 l/m 0,0 km/h (0 Bft) O-SO 117 0 min 0,000 mm 0,0 UV-I 5 W/m 17,8 C 19,3 C 0,0 km/h (0 Bft) 97,14 %
27.06.2017 21:22 19,3 C 26,1 C 92 % 1004,4 hPa 0,0 l/m 2,6 km/h (1 Bft) O-SO 120 0 min 0,000 mm 0,0 UV-I 2 W/m 18,0 C 19,3 C 3,2 km/h (1 Bft) 98,11 %
27.06.2017 21:24 19,3 C 26,1 C 92 % 1004,5 hPa 0,0 l/m 3,0 km/h (1 Bft) SO 146 0 min 0,000 mm 0,0 UV-I 0 W/m 18,0 C 19,3 C 4,8 km/h (1 Bft) 100,00 %
27.06.2017 21:26 19,3 C 26,1 C 92 % 1004,5 hPa 0,0 l/m 2,0 km/h (1 Bft) SO 146 0 min 0,000 mm 0,0 UV-I 0 W/m 18,0 C 19,3 C 3,2 km/h (1 Bft) 95,12 %
27.06.2017 21:30 19,2 C 26,1 C 92 % 1004,5 hPa 0,0 l/m 2,3 km/h (1 Bft) SO 146 0 min 0,000 mm 0,0 UV-I 0 W/m 17,9 C 19,2 C 3,2 km/h (1 Bft) 96,43 %
27.06.2017 21:32 19,1 C 26,1 C 92 % 1004,5 hPa 0,0 l/m 2,7 km/h (1 Bft) SO 146 0 min 0,000 mm 0,0 UV-I 0 W/m 17,8 C 19,1 C 3,2 km/h (1 Bft) 97,14 %
27.06.2017 21:34 18,9 C 26,1 C 92 % 1004,5 hPa 0,0 l/m 2,0 km/h (1 Bft) SO 146 0 min 0,000 mm 0,0 UV-I 0 W/m 17,6 C 18,9 C 3,2 km/h (1 Bft) 98,31 %
27.06.2017 21:36 18,9 C 26,1 C 93 % 1004,5 hPa 0,0 l/m 1,8 km/h (1 Bft) SO 146 0 min 0,000 mm 0,0 UV-I 0 W/m 17,7 C 18,9 C 3,2 km/h (1 Bft) 92,11 %
27.06.2017 21:38 18,9 C 26,1 C 93 % 1004,5 hPa 0,0 l/m 0,3 km/h (0 Bft) SO 146 0 min 0,000 mm 0,0 UV-I 0 W/m 17,7 C 18,9 C 1,6 km/h (1 Bft) 98,00 %
27.06.2017 21:40 18,9 C 26,1 C 93 % 1004,5 hPa 0,0 l/m 0,0 km/h (0 Bft) SO 146 0 min 0,000 mm 0,0 UV-I 0 W/m 17,7 C 18,9 C 0,0 km/h (0 Bft) 97,62 %
27.06.2017 21:42 18,9 C 26,1 C 93 % 1004,4 hPa 0,0 l/m 0,0 km/h (0 Bft) SO 146 0 min 0,000 mm 0,0 UV-I 0 W/m 17,7 C 18,9 C 0,0 km/h (0 Bft) 98,00 %
27.06.2017 21:44 18,9 C 26,1 C 93 % 1004,4 hPa 0,0 l/m 0,7 km/h (0 Bft) SO 146 0 min 0,000 mm 0,0 UV-I 0 W/m 17,7 C 18,9 C 1,6 km/h (1 Bft) 94,74 %
27.06.2017 21:46 18,9 C 26,1 C 93 % 1004,5 hPa 0,0 l/m 2,1 km/h (1 Bft) SO 146 0 min 0,000 mm 0,0 UV-I 0 W/m 17,7 C 18,9 C 3,2 km/h (1 Bft) 98,11 %
27.06.2017 21:48 18,8 C 26,1 C 94 % 1004,5 hPa 0,0 l/m 0,5 km/h (0 Bft) SO 146 0 min 0,000 mm 0,0 UV-I 0 W/m 17,8 C 18,8 C 3,2 km/h (1 Bft) 93,62 %
27.06.2017 21:50 18,8 C 26,1 C 93 % 1004,4 hPa 0,0 l/m 0,0 km/h (0 Bft) SO 146 0 min 0,000 mm 0,0 UV-I 0 W/m 17,6 C 18,8 C 0,0 km/h (0 Bft) 92,00 %
27.06.2017 21:52 18,8 C 26,1 C 93 % 1004,4 hPa 0,0 l/m 0,0 km/h (0 Bft) SO 146 0 min 0,000 mm 0,0 UV-I 0 W/m 17,6 C 18,8 C 0,0 km/h (0 Bft) 91,49 %
27.06.2017 21:54 18,7 C 26,1 C 93 % 1004,4 hPa 0,0 l/m 0,0 km/h (0 Bft) SO 146 0 min 0,000 mm 0,0 UV-I 0 W/m 17,5 C 18,7 C 0,0 km/h (0 Bft) 96,00 %
27.06.2017 21:56 18,7 C 26,1 C 93 % 1004,3 hPa 0,0 l/m 0,0 km/h (0 Bft) SO 146 0 min 0,000 mm 0,0 UV-I 0 W/m 17,5 C 18,7 C 0,0 km/h (0 Bft) 91,49 %
27.06.2017 21:58 18,6 C 26,1 C 93 % 1004,3 hPa 0,0 l/m 0,0 km/h (0 Bft) SO 146 0 min 0,000 mm 0,0 UV-I 0 W/m 17,4 C 18,6 C 0,0 km/h (0 Bft) 96,00 %
27.06.2017 22:00 18,5 C 26,1 C 94 % 1004,3 hPa 0,0 l/m 1,5 km/h (1 Bft) O 96 0 min 0,000 mm 0,0 UV-I 0 W/m 17,5 C 18,5 C 4,8 km/h (1 Bft) 92,68 %
27.06.2017 22:02 18,4 C 26,1 C 93 % 1004,3 hPa 0,0 l/m 4,4 km/h (1 Bft) O 86 0 min 0,000 mm 0,0 UV-I 0 W/m 17,2 C 18,4 C 6,4 km/h (2 Bft) 93,62 %
27.06.2017 22:04 18,3 C 26,1 C 93 % 1004,2 hPa 0,0 l/m 3,8 km/h (1 Bft) O-NO 63 0 min 0,000 mm 0,0 UV-I 0 W/m 17,1 C 18,3 C 4,8 km/h (1 Bft) 92,11 %
27.06.2017 22:06 18,3 C 26,1 C 94 % 1004,3 hPa 0,0 l/m 3,5 km/h (1 Bft) O-NO 63 0 min 0,000 mm 0,0 UV-I 0 W/m 17,3 C 18,3 C 4,8 km/h (1 Bft) 92,86 %
27.06.2017 22:08 18,3 C 26,1 C 94 % 1004,2 hPa 0,0 l/m 2,6 km/h (1 Bft) O-NO 63 0 min 0,000 mm 0,0 UV-I 0 W/m 17,3 C 18,3 C 4,8 km/h (1 Bft) 91,49 %
27.06.2017 22:10 18,3 C 26,1 C 94 % 1004,1 hPa 0,0 l/m 2,6 km/h (1 Bft) O-NO 63 0 min 0,000 mm 0,0 UV-I 0 W/m 17,3 C 18,3 C 3,2 km/h (1 Bft) 93,62 %
27.06.2017 22:12 18,3 C 26,1 C 94 % 1004,2 hPa 0,0 l/m 1,8 km/h (1 Bft) O-NO 63 0 min 0,000 mm 0,0 UV-I 0 W/m 17,3 C 18,3 C 3,2 km/h (1 Bft) 93,62 %
27.06.2017 22:14 18,3 C 26,1 C 94 % 1004,2 hPa 0,0 l/m 0,7 km/h (0 Bft) O-NO 63 0 min 0,000 mm 0,0 UV-I 0 W/m 17,3 C 18,3 C 1,6 km/h (1 Bft) 96,00 %
27.06.2017 22:16 18,4 C 26,1 C 95 % 1004,2 hPa 0,0 l/m 1,5 km/h (1 Bft) O-NO 63 0 min 0,000 mm 0,0 UV-I 0 W/m 17,6 C 18,4 C 3,2 km/h (1 Bft) 95,83 %
27.06.2017 22:18 18,4 C 26,1 C 94 % 1004,2 hPa 0,0 l/m 2,7 km/h (1 Bft) O-NO 63 0 min 0,000 mm 0,0 UV-I 0 W/m 17,4 C 18,4 C 3,2 km/h (1 Bft) 92,19 %
27.06.2017 22:20 18,3 C 26,1 C 94 % 1004,1 hPa 0,0 l/m 3,0 km/h (1 Bft) O-NO 63 0 min 0,000 mm 0,0 UV-I 0 W/m 17,3 C 18,3 C 4,8 km/h (1 Bft) 95,83 %
27.06.2017 22:22 18,3 C 26,1 C 94 % 1004,1 hPa 0,0 l/m 2,5 km/h (1 Bft) O-NO 63 0 min 0,000 mm 0,0 UV-I 0 W/m 17,3 C 18,3 C 3,2 km/h (1 Bft) 96,00 %
27.06.2017 22:24 18,3 C 26,1 C 95 % 1004,1 hPa 0,0 l/m 2,0 km/h (1 Bft) O-NO 63 0 min 0,000 mm 0,0 UV-I 0 W/m 17,5 C 18,3 C 3,2 km/h (1 Bft) 94,74 %
27.06.2017 22:26 18,3 C 26,1 C 95 % 1004,1 hPa 0,0 l/m 0,5 km/h (0 Bft) O-NO 63 0 min 0,000 mm 0,0 UV-I 0 W/m 17,5 C 18,3 C 1,6 km/h (1 Bft) 96,43 %
27.06.2017 22:28 18,3 C 26,1 C 95 % 1004,1 hPa 0,0 l/m 0,0 km/h (0 Bft) O-NO 63 0 min 0,000 mm 0,0 UV-I 0 W/m 17,5 C 18,3 C 0,0 km/h (0 Bft) 96,00 %
27.06.2017 22:30 18,4 C 26,1 C 95 % 1004,1 hPa 0,0 l/m 0,3 km/h (0 Bft) O-NO 63 0 min 0,000 mm 0,0 UV-I 0 W/m 17,6 C 18,4 C 1,6 km/h (1 Bft) 94,29 %
27.06.2017 22:32 18,4 C 26,1 C 95 % 1004,1 hPa 0,0 l/m 1,5 km/h (1 Bft) O-NO 63 0 min 0,000 mm 0,0 UV-I 0 W/m 17,6 C 18,4 C 3,2 km/h (1 Bft) 98,21 %
27.06.2017 22:34 18,3 C 26,1 C 95 % 1004,0 hPa 0,0 l/m 0,7 km/h (0 Bft) O-NO 63 0 min 0,000 mm 0,0 UV-I 0 W/m 17,5 C 18,3 C 1,6 km/h (1 Bft) 95,74 %
27.06.2017 22:36 18,3 C 26,1 C 95 % 1004,1 hPa 0,0 l/m 0,0 km/h (0 Bft) O-NO 63 0 min 0,000 mm 0,0 UV-I 0 W/m 17,5 C 18,3 C 0,0 km/h (0 Bft) 100,00 %
27.06.2017 22:38 18,2 C 26,1 C 95 % 1004,0 hPa 0,0 l/m 0,0 km/h (0 Bft) O-NO 63 0 min 0,000 mm 0,0 UV-I 0 W/m 17,4 C 18,2 C 0,0 km/h (0 Bft) 98,11 %
27.06.2017 22:40 18,2 C 26,1 C 94 % 1004,0 hPa 0,0 l/m 2,9 km/h (1 Bft) O-NO 63 0 min 0,000 mm 0,0 UV-I 0 W/m 17,2 C 18,2 C 4,8 km/h (1 Bft) 98,11 %
27.06.2017 22:42 18,2 C 26,1 C 95 % 1003,9 hPa 0,0 l/m 4,4 km/h (1 Bft) O-NO 63 0 min 0,000 mm 0,0 UV-I 0 W/m 17,4 C 18,2 C 4,8 km/h (1 Bft) 100,00 %
27.06.2017 22:44 18,1 C 26,1 C 95 % 1003,9 hPa 0,0 l/m 4,1 km/h (1 Bft) O-NO 63 0 min 0,000 mm 0,0 UV-I 0 W/m 17,3 C 18,1 C 4,8 km/h (1 Bft) 96,00 %
27.06.2017 22:46 18,0 C 26,1 C 95 % 1003,9 hPa 0,0 l/m 2,6 km/h (1 Bft) O-NO 63 0 min 0,000 mm 0,0 UV-I 0 W/m 17,2 C 18,0 C 4,8 km/h (1 Bft) 100,00 %
27.06.2017 22:48 18,0 C 26,1 C 95 % 1004,0 hPa 0,0 l/m 1,0 km/h (0 Bft) O-NO 63 0 min 0,000 mm 0,0 UV-I 0 W/m 17,2 C 18,0 C 3,2 km/h (1 Bft) 100,00 %
27.06.2017 22:50 18,1 C 26,1 C 95 % 1004,0 hPa 0,0 l/m 0,3 km/h (0 Bft) O-NO 63 0 min 0,000 mm 0,0 UV-I 0 W/m 17,3 C 18,1 C 1,6 km/h (1 Bft) 100,00 %
27.06.2017 22:52 18,1 C 26,1 C 95 % 1004,0 hPa 0,0 l/m 0,1 km/h (0 Bft) O-NO 63 0 min 0,000 mm 0,0 UV-I 0 W/m 17,3 C 18,1 C 1,6 km/h (1 Bft) 100,00 %
27.06.2017 22:54 18,1 C 26,1 C 95 % 1004,1 hPa 0,0 l/m 0,0 km/h (0 Bft) O-NO 63 0 min 0,000 mm 0,0 UV-I 0 W/m 17,3 C 18,1 C 0,0 km/h (0 Bft) 100,00 %
27.06.2017 22:56 18,2 C 26,1 C 95 % 1004,0 hPa 0,0 l/m 0,0 km/h (0 Bft) O-NO 63 0 min 0,000 mm 0,0 UV-I 0 W/m 17,4 C 18,2 C 1,6 km/h (1 Bft) 100,00 %
27.06.2017 22:58 18,1 C 26,1 C 95 % 1004,0 hPa 0,0 l/m 0,0 km/h (0 Bft) O-NO 63 0 min 0,000 mm 0,0 UV-I 0 W/m 17,3 C 18,1 C 0,0 km/h (0 Bft) 97,22 %
27.06.2017 23:00 18,0 C 26,1 C 95 % 1004,0 hPa 0,0 l/m 0,0 km/h (0 Bft) O-NO 63 0 min 0,000 mm 0,0 UV-I 0 W/m 17,2 C 18,0 C 0,0 km/h (0 Bft) 98,44 %
27.06.2017 23:02 18,0 C 26,1 C 95 % 1004,0 hPa 0,0 l/m 0,4 km/h (0 Bft) O-NO 63 0 min 0,000 mm 0,0 UV-I 0 W/m 17,2 C 18,0 C 1,6 km/h (1 Bft) 97,87 %
27.06.2017 23:04 17,9 C 26,1 C 95 % 1004,0 hPa 0,0 l/m 1,9 km/h (1 Bft) O-NO 63 0 min 0,000 mm 0,0 UV-I 0 W/m 17,1 C 17,9 C 3,2 km/h (1 Bft) 97,44 %
27.06.2017 23:06 17,9 C 26,1 C 95 % 1004,0 hPa 0,0 l/m 2,4 km/h (1 Bft) O-NO 63 0 min 0,000 mm 0,0 UV-I 0 W/m 17,1 C 17,9 C 3,2 km/h (1 Bft) 100,00 %
27.06.2017 23:08 17,9 C 26,1 C 95 % 1003,9 hPa 0,0 l/m 0,1 km/h (0 Bft) O-NO 63 0 min 0,000 mm 0,0 UV-I 0 W/m 17,1 C 17,9 C 1,6 km/h (1 Bft) 98,00 %
27.06.2017 23:10 17,8 C 26,1 C 95 % 1003,9 hPa 0,0 l/m 3,0 km/h (1 Bft) O-NO 63 0 min 0,000 mm 0,0 UV-I 0 W/m 17,0 C 17,8 C 4,8 km/h (1 Bft) 94,74 %
27.06.2017 23:12 17,8 C 25,6 C 95 % 1003,8 hPa 0,0 l/m 3,7 km/h (1 Bft) O-NO 63 0 min 0,000 mm 0,0 UV-I 0 W/m 17,0 C 17,8 C 4,8 km/h (1 Bft) 98,11 %
27.06.2017 23:14 17,7 C 25,6 C 95 % 1003,8 hPa 0,0 l/m 2,5 km/h (1 Bft) O-NO 63 0 min 0,000 mm 0,0 UV-I 0 W/m 16,9 C 17,7 C 4,8 km/h (1 Bft) 97,87 %
27.06.2017 23:16 17,7 C 25,6 C 95 % 1003,8 hPa 0,0 l/m 2,0 km/h (1 Bft) O-NO 63 0 min 0,000 mm 0,0 UV-I 0 W/m 16,9 C 17,7 C 3,2 km/h (1 Bft) 97,87 %
27.06.2017 23:18 17,7 C 25,6 C 95 % 1003,8 hPa 0,0 l/m 1,2 km/h (1 Bft) O-NO 63 0 min 0,000 mm 0,0 UV-I 0 W/m 16,9 C 17,7 C 3,2 km/h (1 Bft) 97,56 %
27.06.2017 23:20 17,7 C 25,6 C 95 % 1003,8 hPa 0,0 l/m 0,0 km/h (0 Bft) O-NO 63 0 min 0,000 mm 0,0 UV-I 0 W/m 16,9 C 17,7 C 0,0 km/h (0 Bft) 96,00 %
27.06.2017 23:22 17,8 C 25,6 C 95 % 1003,7 hPa 0,0 l/m 0,0 km/h (0 Bft) O-NO 63 0 min 0,000 mm 0,0 UV-I 0 W/m 17,0 C 17,8 C 0,0 km/h (0 Bft) 94,74 %
27.06.2017 23:24 17,9 C 25,6 C 96 % 1003,7 hPa 0,0 l/m 0,0 km/h (0 Bft) O-NO 63 0 min 0,000 mm 0,0 UV-I 0 W/m 17,3 C 17,9 C 0,0 km/h (0 Bft) 100,00 %
27.06.2017 23:26 17,9 C 25,6 C 96 % 1003,7 hPa 0,0 l/m 0,0 km/h (0 Bft) O-NO 63 0 min 0,000 mm 0,0 UV-I 0 W/m 17,3 C 17,9 C 0,0 km/h (0 Bft) 96,23 %
27.06.2017 23:28 17,8 C 25,6 C 95 % 1003,7 hPa 0,0 l/m 0,0 km/h (0 Bft) O-NO 63 0 min 0,000 mm 0,0 UV-I 0 W/m 17,0 C 17,8 C 0,0 km/h (0 Bft) 97,87 %
27.06.2017 23:30 17,8 C 25,6 C 95 % 1003,7 hPa 0,0 l/m 0,3 km/h (0 Bft) O-NO 63 0 min 0,000 mm 0,0 UV-I 0 W/m 17,0 C 17,8 C 3,2 km/h (1 Bft) 97,87 %
27.06.2017 23:32 17,9 C 25,6 C 95 % 1003,7 hPa 0,0 l/m 0,1 km/h (0 Bft) O-NO 63 0 min 0,000 mm 0,0 UV-I 0 W/m 17,1 C 17,9 C 1,6 km/h (1 Bft) 97,87 %
27.06.2017 23:34 17,9 C 25,6 C 95 % 1003,7 hPa 0,0 l/m 0,0 km/h (0 Bft) O-NO 63 0 min 0,000 mm 0,0 UV-I 0 W/m 17,1 C 17,9 C 1,6 km/h (1 Bft) 97,87 %
27.06.2017 23:36 17,9 C 25,6 C 95 % 1003,8 hPa 0,0 l/m 1,2 km/h (1 Bft) O-NO 63 0 min 0,000 mm 0,0 UV-I 0 W/m 17,1 C 17,9 C 3,2 km/h (1 Bft) 100,00 %
27.06.2017 23:38 17,8 C 25,6 C 95 % 1003,8 hPa 0,0 l/m 1,0 km/h (0 Bft) O-NO 63 0 min 0,000 mm 0,0 UV-I 0 W/m 17,0 C 17,8 C 1,6 km/h (1 Bft) 97,62 %
27.06.2017 23:40 17,8 C 25,6 C 95 % 1003,8 hPa 0,0 l/m 1,2 km/h (1 Bft) O-NO 63 0 min 0,000 mm 0,0 UV-I 0 W/m 17,0 C 17,8 C 3,2 km/h (1 Bft) 100,00 %
27.06.2017 23:42 17,8 C 25,6 C 95 % 1003,8 hPa 0,0 l/m 0,9 km/h (0 Bft) O-NO 63 0 min 0,000 mm 0,0 UV-I 0 W/m 17,0 C 17,8 C 3,2 km/h (1 Bft) 97,87 %
27.06.2017 23:44 17,8 C 25,6 C 95 % 1003,8 hPa 0,0 l/m 1,6 km/h (1 Bft) O-NO 63 0 min 0,000 mm 0,0 UV-I 0 W/m 17,0 C 17,8 C 3,2 km/h (1 Bft) 100,00 %
27.06.2017 23:46 17,7 C 25,6 C 95 % 1003,8 hPa 0,0 l/m 0,8 km/h (0 Bft) O-NO 63 0 min 0,000 mm 0,0 UV-I 0 W/m 16,9 C 17,7 C 1,6 km/h (1 Bft) 96,00 %
27.06.2017 23:48 17,7 C 25,6 C 95 % 1003,7 hPa 0,0 l/m 0,5 km/h (0 Bft) O-NO 63 0 min 0,000 mm 0,0 UV-I 0 W/m 16,9 C 17,7 C 1,6 km/h (1 Bft) 96,00 %
27.06.2017 23:50 17,7 C 25,6 C 95 % 1003,7 hPa 0,0 l/m 0,0 km/h (0 Bft) O-NO 63 0 min 0,000 mm 0,0 UV-I 0 W/m 16,9 C 17,7 C 0,0 km/h (0 Bft) 95,74 %
27.06.2017 23:53 17,6 C 25,6 C 95 % 1003,7 hPa 0,0 l/m 0,0 km/h (0 Bft) O-NO 63 0 min 0,000 mm 0,0 UV-I 0 W/m 16,8 C 17,6 C 0,0 km/h (0 Bft) 97,37 %
27.06.2017 23:54 17,6 C 25,6 C 95 % 1003,7 hPa 0,0 l/m 0,0 km/h (0 Bft) O-NO 63 0 min 0,000 mm 0,0 UV-I 0 W/m 16,8 C 17,6 C 0,0 km/h (0 Bft) 91,67 %
27.06.2017 23:56 17,6 C 25,6 C 95 % 1003,7 hPa 0,0 l/m 0,0 km/h (0 Bft) O-NO 63 0 min 0,000 mm 0,0 UV-I 0 W/m 16,8 C 17,6 C 0,0 km/h (0 Bft) 96,23 %
27.06.2017 23:58 17,6 C 25,6 C 95 % 1003,8 hPa 0,0 l/m 0,0 km/h (0 Bft) O-NO 63 0 min 0,000 mm 0,0 UV-I 0 W/m 16,8 C 17,6 C 0,0 km/h (0 Bft) 96,15 %
_ Min-Zeit 03:26 09:36 14:14 23:22 - 00:28 - - - - - - 03:24 16:58 00:28 11:24
Minimum _ 17,4 C 25,0 C 54 % 1003,7 hPa - 0,0 km/h (0 Bft) - - - - - - 14,8 C 15,9 C 0,0 km/h (0 Bft) 86,79 %
_ Max-Zeit 14:58 15:09 23:24 08:36 16:52 16:52 - - 14:03 15:00 12:52 14:10 19:08 15:00 16:38 00:00
Maximum _ 27,9 C 26,7 C 96 % 1009,5 hPa 1,2 l/m 24,1 km/h
O-SO (4 Bft)
- - 3 min 0,559 mm 6,9 UV-I 1023 W/m 19,2 C 27,9 C 37,0 km/h
S-SW (5 Bft)
100,00 %
Durchschnitt _ 20,9 C 26,0 C 77 % 1006,9 hPa #5,6 l/m 4,2 km/h (1 Bft) O-SO - #9:10 h #3,988 mm 3,1 UV-I 354 W/m 16,5 C 20,7 C 7,7 km/h (2 Bft) 97,00 %